Wetterdaten: aktuell Mittwoch, 14.04.2021 17:03
Datum Zeit Temp. A. Feuchte A. Luftdruck Regen Wind Richtung Richtung ET Taupunkt Windchill Windben Empfang
14.04.2021 17:03 6,4 C 56 % 1026,6 hPa 0,0 l/m 12,9 km/h (3 Bft) W-NW 292 0,000 mm -1,7 C 3,8 C 22,5 km/h (4 Bft) 100,00 %
14.04.2021 17:02 6,6 C 56 % 1026,6 hPa 0,0 l/m 16,1 km/h (3 Bft) W 270 0,000 mm -1,5 C 3,6 C 25,7 km/h (4 Bft) 100,00 %
14.04.2021 17:01 6,7 C 57 % 1026,6 hPa 0,0 l/m 14,5 km/h (3 Bft) W 270 0,000 mm -1,2 C 3,9 C 16,1 km/h (3 Bft) 100,00 %
14.04.2021 17:00 6,7 C 58 % 1026,5 hPa 0,0 l/m 12,9 km/h (3 Bft) W-NW 292 0,000 mm -1,0 C 4,2 C 16,1 km/h (3 Bft) 100,00 %
14.04.2021 16:59 6,7 C 59 % 1026,5 hPa 0,0 l/m 11,3 km/h (2 Bft) W 270 0,000 mm -0,7 C 4,4 C 14,5 km/h (3 Bft) 100,00 %
14.04.2021 16:58 6,8 C 58 % 1026,4 hPa 0,0 l/m 11,3 km/h (2 Bft) W 270 0,000 mm -0,9 C 4,6 C 14,5 km/h (3 Bft) 100,00 %
14.04.2021 16:57 6,8 C 58 % 1026,5 hPa 0,0 l/m 9,7 km/h (2 Bft) W 270 0,000 mm -0,9 C 4,9 C 12,9 km/h (3 Bft) 100,00 %
14.04.2021 16:56 6,9 C 56 % 1026,4 hPa 0,0 l/m 14,5 km/h (3 Bft) W 270 0,000 mm -1,3 C 4,2 C 17,7 km/h (3 Bft) 100,00 %
14.04.2021 16:55 7,0 C 57 % 1026,4 hPa 0,0 l/m 14,5 km/h (3 Bft) W 270 0,000 mm -0,9 C 4,3 C 17,7 km/h (3 Bft) 100,00 %
14.04.2021 16:54 7,1 C 57 % 1026,4 hPa 0,0 l/m 12,9 km/h (3 Bft) W 270 0,000 mm -0,8 C 4,7 C 16,1 km/h (3 Bft) 100,00 %
14.04.2021 16:53 7,1 C 56 % 1026,4 hPa 0,0 l/m 11,3 km/h (2 Bft) W-NW 292 0,000 mm -1,1 C 4,9 C 14,5 km/h (3 Bft) 100,00 %
14.04.2021 16:52 7,2 C 56 % 1026,3 hPa 0,0 l/m 11,3 km/h (2 Bft) W 270 0,000 mm -1,0 C 5,0 C 14,5 km/h (3 Bft) 100,00 %
14.04.2021 16:51 7,2 C 55 % 1026,3 hPa 0,0 l/m 14,5 km/h (3 Bft) W-NW 292 0,000 mm -1,2 C 4,5 C 19,3 km/h (3 Bft) 100,00 %
14.04.2021 16:50 7,3 C 56 % 1026,3 hPa 0,0 l/m 9,7 km/h (2 Bft) W-NW 292 0,000 mm -0,9 C 5,5 C 16,1 km/h (3 Bft) 100,00 %
14.04.2021 16:49 7,3 C 57 % 1026,3 hPa 0,0 l/m 11,3 km/h (2 Bft) W-NW 292 0,000 mm -0,6 C 5,2 C 16,1 km/h (3 Bft) 100,00 %
14.04.2021 16:48 7,4 C 55 % 1026,2 hPa 0,0 l/m 16,1 km/h (3 Bft) W 270 0,000 mm -1,0 C 4,6 C 19,3 km/h (3 Bft) 100,00 %
14.04.2021 16:47 7,4 C 59 % 1026,2 hPa 0,0 l/m 14,5 km/h (3 Bft) W 270 0,000 mm -0,1 C 4,8 C 17,7 km/h (3 Bft) 100,00 %
14.04.2021 16:46 7,5 C 61 % 1026,2 hPa 0,0 l/m 14,5 km/h (3 Bft) W 270 0,000 mm 0,5 C 4,9 C 16,1 km/h (3 Bft) 100,00 %
14.04.2021 16:45 7,5 C 60 % 1026,3 hPa 0,0 l/m 16,1 km/h (3 Bft) W 270 0,000 mm 0,2 C 4,7 C 19,3 km/h (3 Bft) 100,00 %
14.04.2021 16:44 7,4 C 59 % 1026,3 hPa 0,0 l/m 17,7 km/h (3 Bft) W-SW 247 0,000 mm -0,1 C 4,4 C 24,1 km/h (4 Bft) 100,00 %
14.04.2021 16:43 7,3 C 64 % 1026,3 hPa 0,0 l/m 12,9 km/h (3 Bft) W 270 0,000 mm 1,0 C 4,9 C 22,5 km/h (4 Bft) 100,00 %
14.04.2021 16:42 7,2 C 60 % 1026,4 hPa 0,0 l/m 6,4 km/h (2 Bft) W-SW 247 0,000 mm -0,0 C 6,1 C 9,7 km/h (2 Bft) 100,00 %
14.04.2021 16:41 7,2 C 63 % 1026,3 hPa 0,0 l/m 8,0 km/h (2 Bft) W-SW 247 0,000 mm 0,6 C 5,7 C 9,7 km/h (2 Bft) 100,00 %
14.04.2021 16:40 7,2 C 66 % 1026,3 hPa 0,0 l/m 8,0 km/h (2 Bft) W-SW 247 0,000 mm 1,3 C 5,7 C 12,9 km/h (3 Bft) 100,00 %
14.04.2021 16:39 7,2 C 65 % 1026,2 hPa 0,0 l/m 3,2 km/h (1 Bft) O-SO 112 0,000 mm 1,1 C 7,2 C 4,8 km/h (1 Bft) 100,00 %
14.04.2021 16:38 7,1 C 62 % 1026,2 hPa 0,0 l/m 4,8 km/h (1 Bft) O-SO 112 0,000 mm 0,3 C 6,5 C 6,4 km/h (2 Bft) 100,00 %
14.04.2021 16:37 7,1 C 62 % 1026,3 hPa 0,0 l/m 4,8 km/h (1 Bft) O-SO 112 0,000 mm 0,3 C 6,5 C 6,4 km/h (2 Bft) 100,00 %
14.04.2021 16:36 7,1 C 64 % 1026,3 hPa 0,0 l/m 1,6 km/h (1 Bft) S-SW 202 0,000 mm 0,8 C 7,1 C 4,8 km/h (1 Bft) 100,00 %
14.04.2021 16:35 6,9 C 68 % 1026,3 hPa 0,0 l/m 4,8 km/h (1 Bft) S 180 0,000 mm 1,4 C 6,3 C 6,4 km/h (2 Bft) 100,00 %
14.04.2021 16:34 6,8 C 63 % 1026,3 hPa 0,0 l/m 3,2 km/h (1 Bft) O-SO 112 0,000 mm 0,3 C 6,8 C 8,0 km/h (2 Bft) 100,00 %
14.04.2021 16:33 6,8 C 61 % 1026,4 hPa 0,0 l/m 4,8 km/h (1 Bft) O-SO 112 0,000 mm -0,2 C 6,2 C 6,4 km/h (2 Bft) 100,00 %
14.04.2021 16:32 6,8 C 66 % 1026,4 hPa 0,0 l/m 3,2 km/h (1 Bft) S-SW 202 0,000 mm 0,9 C 6,8 C 6,4 km/h (2 Bft) 100,00 %
14.04.2021 16:31 6,8 C 64 % 1026,4 hPa 0,0 l/m 3,2 km/h (1 Bft) SW 225 0,000 mm 0,5 C 6,8 C 4,8 km/h (1 Bft) 100,00 %
14.04.2021 16:30 6,8 C 67 % 1026,3 hPa 0,0 l/m 4,8 km/h (1 Bft) SW 225 0,000 mm 1,1 C 6,2 C 8,0 km/h (2 Bft) 100,00 %
14.04.2021 16:29 6,8 C 67 % 1026,4 hPa 0,0 l/m 4,8 km/h (1 Bft) S-SW 202 0,000 mm 1,1 C 6,2 C 6,4 km/h (2 Bft) 100,00 %
14.04.2021 16:28 6,7 C 66 % 1026,3 hPa 0,0 l/m 6,4 km/h (2 Bft) S-SO 157 0,000 mm 0,8 C 5,6 C 8,0 km/h (2 Bft) 100,00 %
14.04.2021 16:27 6,5 C 64 % 1026,4 hPa 0,0 l/m 1,6 km/h (1 Bft) O-SO 112 0,000 mm 0,2 C 6,5 C 3,2 km/h (1 Bft) 100,00 %
14.04.2021 16:26 6,4 C 62 % 1026,4 hPa 0,0 l/m 6,4 km/h (2 Bft) SO 135 0,000 mm -0,3 C 5,2 C 8,0 km/h (2 Bft) 100,00 %
14.04.2021 16:25 6,6 C 62 % 1026,4 hPa 0,0 l/m 6,4 km/h (2 Bft) SO 135 0,000 mm -0,1 C 5,4 C 9,7 km/h (2 Bft) 100,00 %
14.04.2021 16:24 6,6 C 66 % 1026,4 hPa 0,0 l/m 6,4 km/h (2 Bft) S-SO 157 0,000 mm 0,7 C 5,4 C 9,7 km/h (2 Bft) 100,00 %
14.04.2021 16:23 6,5 C 65 % 1026,5 hPa 0,0 l/m 4,8 km/h (1 Bft) SW 225 0,000 mm 0,4 C 5,9 C 8,0 km/h (2 Bft) 100,00 %
14.04.2021 16:22 6,4 C 67 % 1026,4 hPa 0,0 l/m 8,0 km/h (2 Bft) S-SW 202 0,000 mm 0,7 C 4,8 C 11,3 km/h (2 Bft) 100,00 %
14.04.2021 16:21 6,3 C 63 % 1026,5 hPa 0,0 l/m 4,8 km/h (1 Bft) SO 135 0,000 mm -0,2 C 5,6 C 14,5 km/h (3 Bft) 100,00 %
14.04.2021 16:20 6,3 C 64 % 1026,4 hPa 0,0 l/m 8,0 km/h (2 Bft) O-SO 112 0,000 mm 0,0 C 4,7 C 12,9 km/h (3 Bft) 100,00 %
14.04.2021 16:19 6,4 C 61 % 1026,4 hPa 0,0 l/m 6,4 km/h (2 Bft) O-SO 112 0,000 mm -0,6 C 5,2 C 8,0 km/h (2 Bft) 100,00 %
14.04.2021 16:18 6,4 C 64 % 1026,4 hPa 0,0 l/m 8,0 km/h (2 Bft) O-SO 112 0,000 mm 0,1 C 4,8 C 11,3 km/h (2 Bft) 100,00 %
14.04.2021 16:17 6,3 C 63 % 1026,5 hPa 0,0 l/m 9,7 km/h (2 Bft) SO 135 0,000 mm -0,2 C 4,3 C 14,5 km/h (3 Bft) 100,00 %
14.04.2021 16:16 6,4 C 63 % 1026,5 hPa 0,0 l/m 6,4 km/h (2 Bft) SW 225 0,000 mm -0,1 C 5,2 C 12,9 km/h (3 Bft) 100,00 %
14.04.2021 16:15 6,4 C 66 % 1026,6 hPa 0,0 l/m 4,8 km/h (1 Bft) S 180 0,000 mm 0,5 C 5,7 C 8,0 km/h (2 Bft) 100,00 %
14.04.2021 16:14 6,5 C 62 % 1026,6 hPa 0,0 l/m 4,8 km/h (1 Bft) S-SO 157 0,000 mm -0,2 C 5,9 C 8,0 km/h (2 Bft) 100,00 %
14.04.2021 16:13 6,6 C 66 % 1026,7 hPa 0,0 l/m 6,4 km/h (2 Bft) SO 135 0,000 mm 0,7 C 5,4 C 12,9 km/h (3 Bft) 100,00 %
14.04.2021 16:12 6,4 C 63 % 1026,6 hPa 0,0 l/m 3,2 km/h (1 Bft) O 90 0,000 mm -0,1 C 6,4 C 6,4 km/h (2 Bft) 100,00 %
14.04.2021 16:11 6,2 C 68 % 1026,6 hPa 0,0 l/m 9,7 km/h (2 Bft) SO 135 0,000 mm 0,7 C 4,2 C 12,9 km/h (3 Bft) 100,00 %
14.04.2021 16:10 6,2 C 67 % 1026,6 hPa 0,0 l/m 6,4 km/h (2 Bft) S-SO 157 0,000 mm 0,5 C 5,0 C 12,9 km/h (3 Bft) 100,00 %
14.04.2021 16:09 6,2 C 66 % 1026,7 hPa 0,0 l/m 6,4 km/h (2 Bft) SO 135 0,000 mm 0,3 C 5,0 C 11,3 km/h (2 Bft) 100,00 %
14.04.2021 16:08 6,1 C 69 % 1026,7 hPa 0,0 l/m 6,4 km/h (2 Bft) S-SO 157 0,000 mm 0,8 C 4,9 C 8,0 km/h (2 Bft) 100,00 %
14.04.2021 16:07 6,1 C 68 % 1026,7 hPa 0,0 l/m 4,8 km/h (1 Bft) S-SO 157 0,000 mm 0,6 C 5,4 C 8,0 km/h (2 Bft) 100,00 %
14.04.2021 16:06 6,0 C 71 % 1026,7 hPa 0,0 l/m 9,7 km/h (2 Bft) SO 135 0,000 mm 1,1 C 3,9 C 11,3 km/h (2 Bft) 100,00 %
14.04.2021 16:05 5,9 C 69 % 1026,7 hPa 0,0 l/m 9,7 km/h (2 Bft) SO 135 0,000 mm 0,7 C 3,8 C 12,9 km/h (3 Bft) 100,00 %
14.04.2021 16:04 5,9 C 71 % 1026,8 hPa 0,0 l/m 11,3 km/h (2 Bft) SO 135 0,000 mm 1,1 C 3,5 C 12,9 km/h (3 Bft) 100,00 %
14.04.2021 16:03 5,8 C 71 % 1026,8 hPa 0,0 l/m 9,7 km/h (2 Bft) SO 135 0,000 mm 1,0 C 3,7 C 12,9 km/h (3 Bft) 100,00 %
14.04.2021 16:02 5,7 C 69 % 1026,8 hPa 0,0 l/m 8,0 km/h (2 Bft) SO 135 0,000 mm 0,5 C 4,0 C 11,3 km/h (2 Bft) 100,00 %
14.04.2021 16:01 5,7 C 70 % 1026,8 hPa 0,0 l/m 9,7 km/h (2 Bft) S-SO 157 0,000 mm 0,7 C 3,6 C 12,9 km/h (3 Bft) 100,00 %
14.04.2021 16:00 5,6 C 67 % 1026,8 hPa 0,0 l/m 6,4 km/h (2 Bft) S-SO 157 0,000 mm -0,0 C 4,3 C 9,7 km/h (2 Bft) 100,00 %
14.04.2021 15:59 5,6 C 67 % 1026,8 hPa 0,0 l/m 9,7 km/h (2 Bft) SO 135 0,000 mm -0,0 C 3,4 C 12,9 km/h (3 Bft) 100,00 %
14.04.2021 15:58 5,6 C 66 % 1026,9 hPa 0,0 l/m 11,3 km/h (2 Bft) SO 135 0,000 mm -0,2 C 3,1 C 12,9 km/h (3 Bft) 100,00 %
14.04.2021 15:57 5,6 C 66 % 1026,9 hPa 0,0 l/m 8,0 km/h (2 Bft) SO 135 0,000 mm -0,2 C 3,8 C 14,5 km/h (3 Bft) 100,00 %
14.04.2021 15:56 5,6 C 64 % 1026,8 hPa 0,0 l/m 8,0 km/h (2 Bft) SO 135 0,000 mm -0,7 C 3,8 C 14,5 km/h (3 Bft) 100,00 %
14.04.2021 15:55 5,8 C 68 % 1026,9 hPa 0,0 l/m 12,9 km/h (3 Bft) SO 135 0,000 mm 0,4 C 3,1 C 14,5 km/h (3 Bft) 100,00 %
14.04.2021 15:54 5,8 C 68 % 1026,8 hPa 0,0 l/m 11,3 km/h (2 Bft) SO 135 0,000 mm 0,4 C 3,4 C 12,9 km/h (3 Bft) 100,00 %
14.04.2021 15:53 5,9 C 67 % 1026,8 hPa 0,0 l/m 11,3 km/h (2 Bft) SO 135 0,000 mm 0,3 C 3,5 C 14,5 km/h (3 Bft) 100,00 %
14.04.2021 15:52 6,0 C 70 % 1026,9 hPa 0,0 l/m 14,5 km/h (3 Bft) SO 135 0,000 mm 1,0 C 3,1 C 16,1 km/h (3 Bft) 100,00 %
14.04.2021 15:51 6,0 C 67 % 1026,9 hPa 0,0 l/m 14,5 km/h (3 Bft) O-SO 112 0,000 mm 0,3 C 3,1 C 16,1 km/h (3 Bft) 100,00 %
14.04.2021 15:50 6,1 C 69 % 1026,9 hPa 0,0 l/m 16,1 km/h (3 Bft) O-SO 112 0,000 mm 0,8 C 2,9 C 19,3 km/h (3 Bft) 100,00 %
14.04.2021 15:49 6,1 C 66 % 1026,9 hPa 0,0 l/m 14,5 km/h (3 Bft) O-SO 112 0,000 mm 0,2 C 3,2 C 19,3 km/h (3 Bft) 100,00 %
14.04.2021 15:48 6,3 C 68 % 1027,0 hPa 0,0 l/m 14,5 km/h (3 Bft) O-SO 112 0,000 mm 0,8 C 3,4 C 19,3 km/h (3 Bft) 100,00 %
14.04.2021 15:47 6,3 C 68 % 1026,9 hPa 0,0 l/m 14,5 km/h (3 Bft) O-SO 112 0,000 mm 0,8 C 3,4 C 19,3 km/h (3 Bft) 100,00 %
14.04.2021 15:46 6,3 C 68 % 1026,9 hPa 0,0 l/m 12,9 km/h (3 Bft) O 90 0,000 mm 0,8 C 3,7 C 17,7 km/h (3 Bft) 100,00 %
14.04.2021 15:45 6,3 C 70 % 1027,0 hPa 0,0 l/m 11,3 km/h (2 Bft) O 90 0,000 mm 1,2 C 4,0 C 14,5 km/h (3 Bft) 100,00 %
14.04.2021 15:44 6,3 C 70 % 1027,0 hPa 0,0 l/m 11,3 km/h (2 Bft) O-SO 112 0,000 mm 1,2 C 4,0 C 14,5 km/h (3 Bft) 100,00 %
14.04.2021 15:43 6,4 C 69 % 1026,9 hPa 0,0 l/m 14,5 km/h (3 Bft) O-SO 112 0,000 mm 1,1 C 3,5 C 17,7 km/h (3 Bft) 100,00 %
14.04.2021 15:42 6,4 C 70 % 1027,0 hPa 0,0 l/m 12,9 km/h (3 Bft) O-SO 112 0,000 mm 1,3 C 3,8 C 17,7 km/h (3 Bft) 100,00 %
14.04.2021 15:41 6,4 C 67 % 1027,0 hPa 0,0 l/m 14,5 km/h (3 Bft) O-SO 112 0,000 mm 0,7 C 3,5 C 17,7 km/h (3 Bft) 100,00 %
14.04.2021 15:40 6,4 C 70 % 1027,0 hPa 0,0 l/m 12,9 km/h (3 Bft) O-SO 112 0,000 mm 1,3 C 3,8 C 19,3 km/h (3 Bft) 100,00 %
14.04.2021 15:39 6,1 C 73 % 1027,1 hPa 0,0 l/m 8,0 km/h (2 Bft) O 90 0,000 mm 1,6 C 4,4 C 11,3 km/h (2 Bft) 100,00 %
14.04.2021 15:38 5,6 C 71 % 1027,0 hPa 0,0 l/m 6,4 km/h (2 Bft) O-SO 112 0,000 mm 0,8 C 4,3 C 12,9 km/h (3 Bft) 100,00 %
14.04.2021 15:37 5,4 C 69 % 1027,1 hPa 0,0 l/m 8,0 km/h (2 Bft) O-SO 112 0,000 mm 0,2 C 3,6 C 11,3 km/h (2 Bft) 100,00 %
14.04.2021 15:36 5,4 C 67 % 1027,1 hPa 0,0 l/m 8,0 km/h (2 Bft) SO 135 0,000 mm -0,2 C 3,6 C 12,9 km/h (3 Bft) 100,00 %
14.04.2021 15:35 5,8 C 64 % 1027,2 hPa 0,0 l/m 6,4 km/h (2 Bft) SO 135 0,000 mm -0,5 C 4,5 C 11,3 km/h (2 Bft) 100,00 %
14.04.2021 15:34 6,2 C 63 % 1027,1 hPa 0,0 l/m 9,7 km/h (2 Bft) O-SO 112 0,000 mm -0,3 C 4,2 C 17,7 km/h (3 Bft) 100,00 %
14.04.2021 15:33 6,7 C 64 % 1027,2 hPa 0,0 l/m 17,7 km/h (3 Bft) O-SO 112 0,000 mm 0,4 C 3,5 C 20,9 km/h (4 Bft) 100,00 %
14.04.2021 15:32 7,1 C 65 % 1027,2 hPa 0,0 l/m 11,3 km/h (2 Bft) O 90 0,000 mm 1,0 C 4,9 C 19,3 km/h (3 Bft) 100,00 %
14.04.2021 15:31 7,4 C 61 % 1027,2 hPa 0,0 l/m 12,9 km/h (3 Bft) O-SO 112 0,000 mm 0,4 C 5,0 C 16,1 km/h (3 Bft) 100,00 %
14.04.2021 15:30 8,0 C 60 % 1027,2 hPa 0,0 l/m 6,4 km/h (2 Bft) SO 135 0,000 mm 0,7 C 7,1 C 16,1 km/h (3 Bft) 100,00 %
14.04.2021 15:29 8,1 C 60 % 1027,2 hPa 0,0 l/m 8,0 km/h (2 Bft) N 360 0,000 mm 0,8 C 6,8 C 12,9 km/h (3 Bft) 100,00 %
14.04.2021 15:28 7,9 C 62 % 1027,2 hPa 0,0 l/m 6,4 km/h (2 Bft) NW 315 0,000 mm 1,1 C 6,9 C 12,9 km/h (3 Bft) 100,00 %
14.04.2021 15:27 7,6 C 62 % 1027,1 hPa 0,0 l/m 6,4 km/h (2 Bft) W-NW 292 0,000 mm 0,8 C 6,6 C 11,3 km/h (2 Bft) 100,00 %
14.04.2021 15:26 7,4 C 63 % 1027,1 hPa 0,0 l/m 9,7 km/h (2 Bft) W-NW 292 0,000 mm 0,8 C 5,6 C 14,5 km/h (3 Bft) 100,00 %
14.04.2021 15:25 7,4 C 63 % 1027,1 hPa 0,0 l/m 12,9 km/h (3 Bft) W-NW 292 0,000 mm 0,8 C 5,0 C 16,1 km/h (3 Bft) 100,00 %
14.04.2021 15:24 7,3 C 64 % 1027,1 hPa 0,0 l/m 11,3 km/h (2 Bft) W 270 0,000 mm 1,0 C 5,2 C 16,1 km/h (3 Bft) 100,00 %
14.04.2021 15:23 7,2 C 66 % 1027,1 hPa 0,0 l/m 9,7 km/h (2 Bft) W 270 0,000 mm 1,3 C 5,3 C 12,9 km/h (3 Bft) 100,00 %
14.04.2021 15:22 7,1 C 66 % 1027,1 hPa 0,0 l/m 11,3 km/h (2 Bft) W 270 0,000 mm 1,2 C 4,9 C 16,1 km/h (3 Bft) 100,00 %
14.04.2021 15:21 7,0 C 65 % 1027,1 hPa 0,0 l/m 11,3 km/h (2 Bft) W 270 0,000 mm 0,9 C 4,8 C 16,1 km/h (3 Bft) 100,00 %
14.04.2021 15:20 7,2 C 66 % 1027,1 hPa 0,0 l/m 12,9 km/h (3 Bft) W 270 0,000 mm 1,3 C 4,8 C 17,7 km/h (3 Bft) 100,00 %
14.04.2021 15:19 7,3 C 67 % 1027,0 hPa 0,0 l/m 16,1 km/h (3 Bft) W 270 0,000 mm 1,6 C 4,4 C 19,3 km/h (3 Bft) 100,00 %
14.04.2021 15:18 7,4 C 70 % 1027,0 hPa 0,0 l/m 17,7 km/h (3 Bft) W-SW 247 0,000 mm 2,3 C 4,4 C 22,5 km/h (4 Bft) 100,00 %
14.04.2021 15:17 7,6 C 69 % 1027,1 hPa 0,0 l/m 11,3 km/h (2 Bft) W-SW 247 0,000 mm 2,3 C 5,5 C 14,5 km/h (3 Bft) 100,00 %
14.04.2021 15:16 7,7 C 68 % 1027,1 hPa 0,0 l/m 14,5 km/h (3 Bft) W-SW 247 0,000 mm 2,2 C 5,1 C 17,7 km/h (3 Bft) 100,00 %
14.04.2021 15:15 7,7 C 66 % 1027,0 hPa 0,0 l/m 12,9 km/h (3 Bft) W-SW 247 0,000 mm 1,8 C 5,4 C 17,7 km/h (3 Bft) 100,00 %
14.04.2021 15:14 7,8 C 67 % 1027,0 hPa 0,0 l/m 9,7 km/h (2 Bft) W-SW 247 0,000 mm 2,1 C 6,1 C 14,5 km/h (3 Bft) 100,00 %
14.04.2021 15:13 7,9 C 65 % 1027,0 hPa 0,0 l/m 8,0 km/h (2 Bft) SW 225 0,000 mm 1,7 C 6,5 C 9,7 km/h (2 Bft) 100,00 %
14.04.2021 15:12 8,1 C 64 % 1027,0 hPa 0,0 l/m 9,7 km/h (2 Bft) W 270 0,000 mm 1,7 C 6,4 C 12,9 km/h (3 Bft) 100,00 %
14.04.2021 15:11 8,2 C 64 % 1027,1 hPa 0,0 l/m 6,4 km/h (2 Bft) W 270 0,000 mm 1,8 C 7,3 C 9,7 km/h (2 Bft) 100,00 %
14.04.2021 15:10 8,3 C 62 % 1027,2 hPa 0,0 l/m 11,3 km/h (2 Bft) W 270 0,000 mm 1,5 C 6,4 C 19,3 km/h (3 Bft) 100,00 %
14.04.2021 15:09 8,4 C 64 % 1027,1 hPa 0,0 l/m 8,0 km/h (2 Bft) W-NW 292 0,000 mm 2,0 C 7,1 C 12,9 km/h (3 Bft) 100,00 %
14.04.2021 15:08 8,4 C 63 % 1027,1 hPa 0,0 l/m 11,3 km/h (2 Bft) W 270 0,000 mm 1,8 C 6,5 C 14,5 km/h (3 Bft) 100,00 %
14.04.2021 15:07 8,2 C 66 % 1027,1 hPa 0,0 l/m 12,9 km/h (3 Bft) W 270 0,000 mm 2,2 C 6,0 C 16,1 km/h (3 Bft) 100,00 %
14.04.2021 15:06 8,2 C 66 % 1027,1 hPa 0,0 l/m 16,1 km/h (3 Bft) W 270 0,000 mm 2,2 C 5,6 C 19,3 km/h (3 Bft) 100,00 %
14.04.2021 15:05 8,4 C 64 % 1027,1 hPa 0,0 l/m 12,9 km/h (3 Bft) W 270 0,000 mm 2,0 C 6,2 C 17,7 km/h (3 Bft) 100,00 %
14.04.2021 15:04 8,4 C 63 % 1027,1 hPa 0,0 l/m 11,3 km/h (2 Bft) W 270 0,000 mm 1,8 C 6,5 C 14,5 km/h (3 Bft) 100,00 %
14.04.2021 15:03 8,3 C 61 % 1027,1 hPa 0,0 l/m 9,7 km/h (2 Bft) W-NW 292 0,000 mm 1,2 C 6,7 C 14,5 km/h (3 Bft) 100,00 %
14.04.2021 15:02 8,1 C 64 % 1027,1 hPa 0,0 l/m 9,7 km/h (2 Bft) W 270 0,000 mm 1,7 C 6,4 C 14,5 km/h (3 Bft) 100,00 %
14.04.2021 15:01 7,9 C 66 % 1027,1 hPa 0,0 l/m 11,3 km/h (2 Bft) W-NW 292 0,000 mm 1,9 C 5,9 C 16,1 km/h (3 Bft) 100,00 %
14.04.2021 15:00 7,6 C 71 % 1027,1 hPa 0,0 l/m 12,9 km/h (3 Bft) W 270 0,000 mm 2,7 C 5,3 C 16,1 km/h (3 Bft) 100,00 %
14.04.2021 14:59 7,3 C 69 % 1027,1 hPa 0,0 l/m 8,0 km/h (2 Bft) W 270 0,000 mm 2,0 C 5,8 C 11,3 km/h (2 Bft) 100,00 %
14.04.2021 14:58 7,0 C 67 % 1027,2 hPa 0,0 l/m 4,8 km/h (1 Bft) W-NW 292 0,000 mm 1,3 C 6,4 C 9,7 km/h (2 Bft) 100,00 %
14.04.2021 14:57 7,0 C 66 % 1027,1 hPa 0,0 l/m 8,0 km/h (2 Bft) W-SW 247 0,000 mm 1,1 C 5,5 C 12,9 km/h (3 Bft) 100,00 %
14.04.2021 14:56 7,1 C 67 % 1027,2 hPa 0,0 l/m 9,7 km/h (2 Bft) W 270 0,000 mm 1,4 C 5,2 C 11,3 km/h (2 Bft) 100,00 %
14.04.2021 14:55 7,1 C 70 % 1027,1 hPa 0,0 l/m 11,3 km/h (2 Bft) W 270 0,000 mm 2,0 C 4,9 C 14,5 km/h (3 Bft) 100,00 %
14.04.2021 14:54 7,0 C 70 % 1027,2 hPa 0,0 l/m 11,3 km/h (2 Bft) W-SW 247 0,000 mm 1,9 C 4,8 C 14,5 km/h (3 Bft) 100,00 %
14.04.2021 14:53 7,0 C 68 % 1027,1 hPa 0,0 l/m 14,5 km/h (3 Bft) W-SW 247 0,000 mm 1,5 C 4,3 C 17,7 km/h (3 Bft) 100,00 %
14.04.2021 14:52 7,1 C 69 % 1027,2 hPa 0,0 l/m 12,9 km/h (3 Bft) W 270 0,000 mm 1,8 C 4,7 C 16,1 km/h (3 Bft) 100,00 %
14.04.2021 14:51 7,1 C 65 % 1027,2 hPa 0,0 l/m 11,3 km/h (2 Bft) W 270 0,000 mm 1,0 C 4,9 C 14,5 km/h (3 Bft) 100,00 %
14.04.2021 14:50 6,9 C 63 % 1027,2 hPa 0,0 l/m 8,0 km/h (2 Bft) W-SW 247 0,000 mm 0,4 C 5,4 C 14,5 km/h (3 Bft) 100,00 %
14.04.2021 14:49 6,7 C 63 % 1027,2 hPa 0,0 l/m 11,3 km/h (2 Bft) W 270 0,000 mm 0,2 C 4,4 C 14,5 km/h (3 Bft) 100,00 %
14.04.2021 14:48 6,8 C 62 % 1027,2 hPa 0,0 l/m 12,9 km/h (3 Bft) W 270 0,000 mm 0,0 C 4,3 C 17,7 km/h (3 Bft) 100,00 %
14.04.2021 14:47 6,8 C 65 % 1027,1 hPa 0,0 l/m 16,1 km/h (3 Bft) W 270 0,000 mm 0,7 C 3,8 C 22,5 km/h (4 Bft) 100,00 %
14.04.2021 14:46 6,8 C 68 % 1027,2 hPa 0,0 l/m 14,5 km/h (3 Bft) W-SW 247 0,000 mm 1,3 C 4,0 C 17,7 km/h (3 Bft) 100,00 %
14.04.2021 14:45 6,9 C 67 % 1027,2 hPa 0,0 l/m 16,1 km/h (3 Bft) W-SW 247 0,000 mm 1,2 C 3,9 C 20,9 km/h (4 Bft) 100,00 %
14.04.2021 14:44 7,2 C 67 % 1027,3 hPa 0,0 l/m 16,1 km/h (3 Bft) W 270 0,000 mm 1,5 C 4,3 C 20,9 km/h (4 Bft) 100,00 %
14.04.2021 14:43 7,2 C 65 % 1027,3 hPa 0,0 l/m 16,1 km/h (3 Bft) W 270 0,000 mm 1,1 C 4,3 C 19,3 km/h (3 Bft) 100,00 %
14.04.2021 14:42 7,3 C 61 % 1027,3 hPa 0,0 l/m 12,9 km/h (3 Bft) W 270 0,000 mm 0,3 C 4,9 C 16,1 km/h (3 Bft) 100,00 %
14.04.2021 14:41 7,6 C 62 % 1027,2 hPa 0,0 l/m 16,1 km/h (3 Bft) W 270 0,000 mm 0,8 C 4,8 C 20,9 km/h (4 Bft) 100,00 %
14.04.2021 14:40 7,7 C 67 % 1027,3 hPa 0,0 l/m 14,5 km/h (3 Bft) W 270 0,000 mm 2,0 C 5,1 C 20,9 km/h (4 Bft) 100,00 %
14.04.2021 14:39 7,8 C 65 % 1027,3 hPa 0,0 l/m 14,5 km/h (3 Bft) W 270 0,000 mm 1,6 C 5,3 C 19,3 km/h (3 Bft) 100,00 %
14.04.2021 14:38 8,1 C 64 % 1027,4 hPa 0,0 l/m 14,5 km/h (3 Bft) W-SW 247 0,000 mm 1,7 C 5,6 C 19,3 km/h (3 Bft) 100,00 %
14.04.2021 14:37 8,2 C 63 % 1027,4 hPa 0,0 l/m 9,7 km/h (2 Bft) W 270 0,000 mm 1,6 C 6,5 C 12,9 km/h (3 Bft) 100,00 %
14.04.2021 14:36 8,4 C 62 % 1027,4 hPa 0,0 l/m 11,3 km/h (2 Bft) W 270 0,000 mm 1,6 C 6,5 C 14,5 km/h (3 Bft) 100,00 %
14.04.2021 14:35 8,6 C 58 % 1027,4 hPa 0,0 l/m 4,8 km/h (1 Bft) NW 315 0,000 mm 0,8 C 8,2 C 8,0 km/h (2 Bft) 100,00 %
14.04.2021 14:34 8,7 C 58 % 1027,5 hPa 0,0 l/m 9,7 km/h (2 Bft) W-NW 292 0,000 mm 0,9 C 7,1 C 12,9 km/h (3 Bft) 100,00 %
14.04.2021 14:33 8,8 C 65 % 1027,5 hPa 0,0 l/m 8,0 km/h (2 Bft) W 270 0,000 mm 2,6 C 7,6 C 17,7 km/h (3 Bft) 100,00 %
14.04.2021 14:32 8,7 C 66 % 1027,5 hPa 0,0 l/m 3,2 km/h (1 Bft) N 360 0,000 mm 2,7 C 8,7 C 6,4 km/h (2 Bft) 100,00 %
14.04.2021 14:31 8,6 C 63 % 1027,5 hPa 0,0 l/m 4,8 km/h (1 Bft) NW 315 0,000 mm 2,0 C 8,2 C 8,0 km/h (2 Bft) 100,00 %
14.04.2021 14:30 8,4 C 60 % 1027,5 hPa 0,0 l/m 6,4 km/h (2 Bft) N-NW 337 0,000 mm 1,1 C 7,5 C 11,3 km/h (2 Bft) 100,00 %
14.04.2021 14:29 8,4 C 65 % 1027,6 hPa 0,0 l/m 6,4 km/h (2 Bft) W-NW 292 0,000 mm 2,2 C 7,5 C 8,0 km/h (2 Bft) 100,00 %
14.04.2021 14:28 8,2 C 64 % 1027,5 hPa 0,0 l/m 6,4 km/h (2 Bft) W-NW 292 0,000 mm 1,8 C 7,3 C 9,7 km/h (2 Bft) 100,00 %
14.04.2021 14:27 7,9 C 68 % 1027,6 hPa 0,0 l/m 4,8 km/h (1 Bft) NW 315 0,000 mm 2,4 C 7,4 C 9,7 km/h (2 Bft) 100,00 %
14.04.2021 14:26 7,4 C 70 % 1027,6 hPa 0,0 l/m 4,8 km/h (1 Bft) W-NW 292 0,000 mm 2,3 C 6,9 C 6,4 km/h (2 Bft) 100,00 %
14.04.2021 14:25 6,9 C 68 % 1027,7 hPa 0,0 l/m 3,2 km/h (1 Bft) N-NW 337 0,000 mm 1,4 C 6,9 C 4,8 km/h (1 Bft) 100,00 %
14.04.2021 14:24 6,7 C 69 % 1027,6 hPa 0,0 l/m 4,8 km/h (1 Bft) W-NW 292 0,000 mm 1,4 C 6,1 C 4,8 km/h (1 Bft) 100,00 %
14.04.2021 14:23 6,4 C 69 % 1027,6 hPa 0,0 l/m 4,8 km/h (1 Bft) W-NW 292 0,000 mm 1,1 C 5,7 C 8,0 km/h (2 Bft) 100,00 %
14.04.2021 14:22 6,2 C 71 % 1027,7 hPa 0,0 l/m 1,6 km/h (1 Bft) W-SW 247 0,000 mm 1,3 C 6,2 C 6,4 km/h (2 Bft) 100,00 %
14.04.2021 14:21 6,3 C 72 % 1027,6 hPa 0,0 l/m 3,2 km/h (1 Bft) W-SW 247 0,000 mm 1,6 C 6,3 C 6,4 km/h (2 Bft) 100,00 %
14.04.2021 14:20 6,2 C 70 % 1027,7 hPa 0,0 l/m 3,2 km/h (1 Bft) N-NW 337 0,000 mm 1,1 C 6,2 C 6,4 km/h (2 Bft) 100,00 %
14.04.2021 14:19 6,1 C 74 % 1027,7 hPa 0,0 l/m 3,2 km/h (1 Bft) NW 315 0,000 mm 1,8 C 6,1 C 6,4 km/h (2 Bft) 100,00 %
14.04.2021 14:18 5,7 C 74 % 1027,7 hPa 0,0 l/m 3,2 km/h (1 Bft) NW 315 0,000 mm 1,4 C 5,7 C 4,8 km/h (1 Bft) 100,00 %
14.04.2021 14:17 5,2 C 73 % 1027,8 hPa 0,0 l/m 3,2 km/h (1 Bft) W 270 0,000 mm 0,8 C 5,2 C 4,8 km/h (1 Bft) 100,00 %
14.04.2021 14:16 5,1 C 72 % 1027,8 hPa 0,0 l/m 1,6 km/h (1 Bft) W-SW 247 0,000 mm 0,5 C 5,1 C 3,2 km/h (1 Bft) 100,00 %
14.04.2021 14:15 4,9 C 71 % 1027,8 hPa 0,0 l/m 1,6 km/h (1 Bft) W-SW 247 0,000 mm 0,1 C 4,9 C 3,2 km/h (1 Bft) 100,00 %
14.04.2021 14:14 4,9 C 72 % 1027,7 hPa 0,0 l/m 3,2 km/h (1 Bft) W-SW 247 0,000 mm 0,3 C 4,9 C 4,8 km/h (1 Bft) 100,00 %
14.04.2021 14:13 4,9 C 75 % 1027,8 hPa 0,0 l/m 4,8 km/h (1 Bft) W-SW 247 0,000 mm 0,8 C 4,0 C 9,7 km/h (2 Bft) 100,00 %
14.04.2021 14:12 4,8 C 73 % 1027,8 hPa 0,0 l/m 6,4 km/h (2 Bft) W-SW 247 0,000 mm 0,4 C 3,4 C 9,7 km/h (2 Bft) 100,00 %
14.04.2021 14:11 4,7 C 73 % 1027,8 hPa 0,0 l/m 8,0 km/h (2 Bft) W 270 0,000 mm 0,3 C 2,8 C 11,3 km/h (2 Bft) 100,00 %
14.04.2021 14:10 4,7 C 73 % 1027,8 hPa 0,0 l/m 8,0 km/h (2 Bft) W 270 0,000 mm 0,3 C 2,8 C 12,9 km/h (3 Bft) 100,00 %
14.04.2021 14:09 4,8 C 77 % 1027,9 hPa 0,0 l/m 9,7 km/h (2 Bft) W-SW 247 0,000 mm 1,1 C 2,5 C 12,9 km/h (3 Bft) 100,00 %
14.04.2021 14:08 4,8 C 79 % 1027,9 hPa 0,0 l/m 9,7 km/h (2 Bft) W 270 0,000 mm 1,5 C 2,5 C 12,9 km/h (3 Bft) 100,00 %
14.04.2021 14:07 4,6 C 78 % 1027,9 hPa 0,0 l/m 6,4 km/h (2 Bft) SW 225 0,000 mm 1,1 C 3,1 C 8,0 km/h (2 Bft) 100,00 %
14.04.2021 14:06 4,5 C 77 % 1027,9 hPa 0,0 l/m 6,4 km/h (2 Bft) W 270 0,000 mm 0,8 C 3,0 C 11,3 km/h (2 Bft) 100,00 %
14.04.2021 14:05 4,6 C 79 % 1027,9 hPa 0,0 l/m 8,0 km/h (2 Bft) W-SW 247 0,000 mm 1,3 C 2,7 C 11,3 km/h (2 Bft) 100,00 %
14.04.2021 14:04 4,4 C 78 % 1027,9 hPa 0,0 l/m 11,3 km/h (2 Bft) W-SW 247 0,000 mm 0,9 C 1,7 C 14,5 km/h (3 Bft) 100,00 %
14.04.2021 14:03 4,2 C 81 % 1028,0 hPa 0,2 l/m 9,7 km/h (2 Bft) W 270 0,000 mm 1,2 C 1,8 C 12,9 km/h (3 Bft) 100,00 %
14.04.2021 14:02 4,0 C 81 % 1028,0 hPa 0,0 l/m 9,7 km/h (2 Bft) W-SW 247 0,000 mm 1,0 C 1,5 C 11,3 km/h (2 Bft) 100,00 %
14.04.2021 14:01 3,7 C 80 % 1028,0 hPa 0,0 l/m 8,0 km/h (2 Bft) W-SW 247 0,000 mm 0,6 C 1,6 C 9,7 km/h (2 Bft) 100,00 %
14.04.2021 14:00 3,5 C 80 % 1028,0 hPa 0,0 l/m 8,0 km/h (2 Bft) W-SW 247 0,000 mm 0,4 C 1,4 C 11,3 km/h (2 Bft) 100,00 %
14.04.2021 13:59 3,4 C 80 % 1028,0 hPa 0,0 l/m 9,7 km/h (2 Bft) W-SW 247 0,000 mm 0,3 C 0,8 C 12,9 km/h (3 Bft) 100,00 %
14.04.2021 13:58 3,2 C 82 % 1028,0 hPa 0,0 l/m 8,0 km/h (2 Bft) W-SW 247 0,000 mm 0,4 C 1,0 C 11,3 km/h (2 Bft) 100,00 %
14.04.2021 13:57 3,1 C 83 % 1028,0 hPa 0,0 l/m 8,0 km/h (2 Bft) W-SW 247 0,000 mm 0,5 C 0,9 C 11,3 km/h (2 Bft) 100,00 %
14.04.2021 13:56 2,8 C 84 % 1028,1 hPa 0,0 l/m 6,4 km/h (2 Bft) SW 225 0,000 mm 0,4 C 1,1 C 8,0 km/h (2 Bft) 100,00 %
14.04.2021 13:55 2,6 C 83 % 1028,0 hPa 0,0 l/m 6,4 km/h (2 Bft) SW 225 0,000 mm 0,0 C 0,8 C 8,0 km/h (2 Bft) 100,00 %
14.04.2021 13:54 2,4 C 85 % 1028,0 hPa 0,0 l/m 6,4 km/h (2 Bft) SW 225 0,000 mm 0,1 C 0,6 C 9,7 km/h (2 Bft) 100,00 %
14.04.2021 13:53 2,3 C 86 % 1028,1 hPa 0,0 l/m 6,4 km/h (2 Bft) W-SW 247 0,000 mm 0,2 C 0,5 C 8,0 km/h (2 Bft) 100,00 %
14.04.2021 13:52 2,1 C 87 % 1028,1 hPa 0,2 l/m 8,0 km/h (2 Bft) SW 225 0,000 mm 0,2 C -0,3 C 9,7 km/h (2 Bft) 100,00 %
14.04.2021 13:51 1,9 C 88 % 1028,1 hPa 0,0 l/m 6,4 km/h (2 Bft) SW 225 0,000 mm 0,1 C 0,0 C 8,0 km/h (2 Bft) 100,00 %
14.04.2021 13:50 1,8 C 88 % 1028,2 hPa 0,0 l/m 4,8 km/h (1 Bft) W-SW 247 0,000 mm 0,0 C 0,5 C 8,0 km/h (2 Bft) 100,00 %
14.04.2021 13:49 1,7 C 88 % 1028,1 hPa 0,2 l/m 8,0 km/h (2 Bft) SW 225 0,000 mm -0,1 C -0,7 C 9,7 km/h (2 Bft) 100,00 %
14.04.2021 13:48 1,5 C 88 % 1028,2 hPa 0,0 l/m 6,4 km/h (2 Bft) SW 225 0,000 mm -0,3 C -0,4 C 9,7 km/h (2 Bft) 100,00 %
14.04.2021 13:47 1,4 C 88 % 1028,1 hPa 0,0 l/m 8,0 km/h (2 Bft) SW 225 0,000 mm -0,4 C -1,1 C 9,7 km/h (2 Bft) 100,00 %
14.04.2021 13:46 1,4 C 88 % 1028,1 hPa 0,2 l/m 8,0 km/h (2 Bft) SW 225 0,000 mm -0,4 C -1,1 C 11,3 km/h (2 Bft) 100,00 %
14.04.2021 13:45 1,3 C 88 % 1028,2 hPa 0,0 l/m 8,0 km/h (2 Bft) SW 225 0,000 mm -0,5 C -1,2 C 9,7 km/h (2 Bft) 100,00 %
14.04.2021 13:44 1,2 C 88 % 1028,2 hPa 0,0 l/m 8,0 km/h (2 Bft) SW 225 0,000 mm -0,6 C -1,3 C 9,7 km/h (2 Bft) 100,00 %
14.04.2021 13:43 1,1 C 87 % 1028,2 hPa 0,2 l/m 8,0 km/h (2 Bft) SW 225 0,000 mm -0,8 C -1,4 C 9,7 km/h (2 Bft) 100,00 %
14.04.2021 13:42 0,9 C 87 % 1028,2 hPa 0,0 l/m 8,0 km/h (2 Bft) SW 225 0,000 mm -1,0 C -1,7 C 11,3 km/h (2 Bft) 100,00 %
14.04.2021 13:41 0,9 C 87 % 1028,2 hPa 0,0 l/m 9,7 km/h (2 Bft) SW 225 0,000 mm -1,0 C -2,2 C 12,9 km/h (3 Bft) 100,00 %
14.04.2021 13:40 0,8 C 87 % 1028,2 hPa 0,0 l/m 8,0 km/h (2 Bft) W-SW 247 0,000 mm -1,1 C -1,8 C 9,7 km/h (2 Bft) 100,00 %
14.04.2021 13:39 0,8 C 87 % 1028,2 hPa 0,0 l/m 8,0 km/h (2 Bft) SW 225 0,000 mm -1,1 C -1,8 C 9,7 km/h (2 Bft) 100,00 %
14.04.2021 13:38 0,7 C 86 % 1028,2 hPa 0,0 l/m 8,0 km/h (2 Bft) SW 225 0,000 mm -1,4 C -1,9 C 11,3 km/h (2 Bft) 100,00 %
14.04.2021 13:37 0,7 C 86 % 1028,3 hPa 0,0 l/m 8,0 km/h (2 Bft) SW 225 0,000 mm -1,4 C -1,9 C 9,7 km/h (2 Bft) 100,00 %
14.04.2021 13:36 0,7 C 86 % 1028,2 hPa 0,0 l/m 8,0 km/h (2 Bft) SW 225 0,000 mm -1,4 C -1,9 C 9,7 km/h (2 Bft) 100,00 %
14.04.2021 13:35 0,7 C 86 % 1028,3 hPa 0,0 l/m 8,0 km/h (2 Bft) SW 225 0,000 mm -1,4 C -1,9 C 9,7 km/h (2 Bft) 100,00 %
14.04.2021 13:34 0,7 C 85 % 1028,4 hPa 0,0 l/m 6,4 km/h (2 Bft) SW 225 0,000 mm -1,5 C -1,4 C 8,0 km/h (2 Bft) 100,00 %
14.04.2021 13:33 0,7 C 85 % 1028,6 hPa 0,0 l/m 4,8 km/h (1 Bft) N 360 0,000 mm -1,5 C -0,7 C 6,4 km/h (2 Bft) 100,00 %
14.04.2021 13:32 0,8 C 85 % 1028,6 hPa 0,0 l/m 1,6 km/h (1 Bft) NW 315 0,000 mm -1,4 C 0,8 C 3,2 km/h (1 Bft) 100,00 %
14.04.2021 13:31 0,8 C 85 % 1028,7 hPa 0,0 l/m 3,2 km/h (1 Bft) NW 315 0,000 mm -1,4 C 0,8 C 4,8 km/h (1 Bft) 100,00 %
14.04.2021 13:30 0,8 C 85 % 1028,7 hPa 0,0 l/m 3,2 km/h (1 Bft) NW 315 0,000 mm -1,4 C 0,8 C 4,8 km/h (1 Bft) 100,00 %
14.04.2021 13:29 0,8 C 85 % 1028,7 hPa 0,0 l/m 4,8 km/h (1 Bft) N-NW 337 0,000 mm -1,4 C -0,6 C 8,0 km/h (2 Bft) 100,00 %
14.04.2021 13:28 0,8 C 84 % 1028,6 hPa 0,0 l/m 4,8 km/h (1 Bft) N-NW 337 0,000 mm -1,6 C -0,6 C 8,0 km/h (2 Bft) 100,00 %
14.04.2021 13:27 0,8 C 84 % 1028,8 hPa 0,0 l/m 3,2 km/h (1 Bft) N 360 0,000 mm -1,6 C 0,8 C 4,8 km/h (1 Bft) 100,00 %
14.04.2021 13:26 0,8 C 84 % 1028,7 hPa 0,0 l/m 4,8 km/h (1 Bft) N-NW 337 0,000 mm -1,6 C -0,6 C 6,4 km/h (2 Bft) 100,00 %
14.04.2021 13:25 0,9 C 84 % 1028,7 hPa 0,0 l/m 4,8 km/h (1 Bft) N 360 0,000 mm -1,5 C -0,5 C 8,0 km/h (2 Bft) 100,00 %
14.04.2021 13:24 0,9 C 84 % 1028,7 hPa 0,0 l/m 6,4 km/h (2 Bft) N 360 0,000 mm -1,5 C -1,1 C 9,7 km/h (2 Bft) 100,00 %
14.04.2021 13:23 1,0 C 84 % 1028,7 hPa 0,0 l/m 6,4 km/h (2 Bft) N 360 0,000 mm -1,4 C -1,0 C 8,0 km/h (2 Bft) 100,00 %
14.04.2021 13:22 1,1 C 83 % 1028,8 hPa 0,0 l/m 9,7 km/h (2 Bft) N-NW 337 0,000 mm -1,5 C -1,9 C 14,5 km/h (3 Bft) 100,00 %
14.04.2021 13:21 1,1 C 83 % 1028,6 hPa 0,0 l/m 6,4 km/h (2 Bft) N 360 0,000 mm -1,5 C -0,9 C 12,9 km/h (3 Bft) 100,00 %
14.04.2021 13:20 1,1 C 82 % 1028,8 hPa 0,0 l/m 6,4 km/h (2 Bft) N 360 0,000 mm -1,6 C -0,9 C 11,3 km/h (2 Bft) 100,00 %
14.04.2021 13:19 1,2 C 82 % 1028,9 hPa 0,0 l/m 6,4 km/h (2 Bft) NW 315 0,000 mm -1,5 C -0,8 C 12,9 km/h (3 Bft) 100,00 %
14.04.2021 13:18 1,3 C 82 % 1028,8 hPa 0,0 l/m 9,7 km/h (2 Bft) N 360 0,000 mm -1,4 C -1,7 C 14,5 km/h (3 Bft) 100,00 %
14.04.2021 13:17 1,4 C 82 % 1028,6 hPa 0,0 l/m 9,7 km/h (2 Bft) N-NW 337 0,000 mm -1,3 C -1,6 C 14,5 km/h (3 Bft) 100,00 %
14.04.2021 13:16 1,6 C 81 % 1028,8 hPa 0,0 l/m 8,0 km/h (2 Bft) N-NW 337 0,000 mm -1,3 C -0,9 C 17,7 km/h (3 Bft) 100,00 %
14.04.2021 13:15 1,8 C 81 % 1028,7 hPa 0,0 l/m 11,3 km/h (2 Bft) NW 315 0,000 mm -1,1 C -1,5 C 17,7 km/h (3 Bft) 100,00 %
14.04.2021 13:14 1,9 C 81 % 1028,7 hPa 0,0 l/m 14,5 km/h (3 Bft) NW 315 0,000 mm -1,0 C -2,0 C 20,9 km/h (4 Bft) 100,00 %
14.04.2021 13:13 2,1 C 81 % 1028,7 hPa 0,0 l/m 8,0 km/h (2 Bft) NW 315 0,000 mm -0,8 C -0,3 C 17,7 km/h (3 Bft) 100,00 %
14.04.2021 13:12 2,3 C 81 % 1028,6 hPa 0,0 l/m 14,5 km/h (3 Bft) NW 315 0,000 mm -0,6 C -1,5 C 25,7 km/h (4 Bft) 100,00 %
14.04.2021 13:11 2,4 C 80 % 1028,6 hPa 0,0 l/m 9,7 km/h (2 Bft) W-NW 292 0,000 mm -0,7 C -0,4 C 20,9 km/h (4 Bft) 100,00 %
14.04.2021 13:10 2,6 C 80 % 1028,6 hPa 0,0 l/m 11,3 km/h (2 Bft) N-NW 337 0,000 mm -0,5 C -0,5 C 19,3 km/h (3 Bft) 100,00 %
14.04.2021 13:09 2,9 C 80 % 1028,7 hPa 0,0 l/m 14,5 km/h (3 Bft) N-NW 337 0,000 mm -0,2 C -0,8 C 22,5 km/h (4 Bft) 100,00 %
14.04.2021 13:08 3,1 C 80 % 1028,6 hPa 0,0 l/m 9,7 km/h (2 Bft) NW 315 0,000 mm -0,0 C 0,5 C 14,5 km/h (3 Bft) 100,00 %
14.04.2021 13:07 3,2 C 80 % 1028,6 hPa 0,0 l/m 6,4 km/h (2 Bft) W-NW 292 0,000 mm 0,1 C 1,5 C 9,7 km/h (2 Bft) 100,00 %
14.04.2021 13:06 3,4 C 79 % 1028,6 hPa 0,0 l/m 8,0 km/h (2 Bft) W-NW 292 0,000 mm 0,1 C 1,3 C 12,9 km/h (3 Bft) 100,00 %
14.04.2021 13:05 3,6 C 79 % 1028,6 hPa 0,0 l/m 11,3 km/h (2 Bft) W-NW 292 0,000 mm 0,3 C 0,7 C 17,7 km/h (3 Bft) 100,00 %
14.04.2021 13:04 3,7 C 78 % 1028,6 hPa 0,0 l/m 9,7 km/h (2 Bft) W-NW 292 0,000 mm 0,2 C 1,2 C 14,5 km/h (3 Bft) 100,00 %
14.04.2021 13:03 3,8 C 78 % 1028,6 hPa 0,0 l/m 9,7 km/h (2 Bft) W-NW 292 0,000 mm 0,3 C 1,3 C 14,5 km/h (3 Bft) 100,00 %
14.04.2021 13:02 4,0 C 77 % 1028,5 hPa 0,0 l/m 11,3 km/h (2 Bft) N-NW 337 0,000 mm 0,3 C 1,2 C 19,3 km/h (3 Bft) 100,00 %
14.04.2021 13:01 4,1 C 77 % 1028,5 hPa 0,0 l/m 17,7 km/h (3 Bft) N-NW 337 0,000 mm 0,4 C 0,2 C 25,7 km/h (4 Bft) 100,00 %
14.04.2021 13:00 4,2 C 77 % 1028,4 hPa 0,0 l/m 16,1 km/h (3 Bft) N 360 0,000 mm 0,5 C 0,6 C 25,7 km/h (4 Bft) 100,00 %
14.04.2021 12:59 4,1 C 79 % 1028,5 hPa 0,2 l/m 9,7 km/h (2 Bft) N 360 0,000 mm 0,8 C 1,7 C 20,9 km/h (4 Bft) 100,00 %
14.04.2021 12:58 4,0 C 78 % 1028,3 hPa 0,0 l/m 3,2 km/h (1 Bft) W 270 0,000 mm 0,5 C 4,0 C 6,4 km/h (2 Bft) 100,00 %
14.04.2021 12:57 3,8 C 79 % 1028,4 hPa 0,0 l/m 6,4 km/h (2 Bft) W 270 0,000 mm 0,5 C 2,2 C 9,7 km/h (2 Bft) 100,00 %
14.04.2021 12:56 3,7 C 77 % 1028,3 hPa 0,0 l/m 4,8 km/h (1 Bft) W 270 0,000 mm 0,1 C 2,7 C 9,7 km/h (2 Bft) 100,00 %
14.04.2021 12:55 3,6 C 77 % 1028,2 hPa 0,0 l/m 4,8 km/h (1 Bft) W-SW 247 0,000 mm -0,0 C 2,6 C 9,7 km/h (2 Bft) 100,00 %
14.04.2021 12:54 3,4 C 77 % 1028,3 hPa 0,0 l/m 6,4 km/h (2 Bft) W-SW 247 0,000 mm -0,2 C 1,7 C 8,0 km/h (2 Bft) 100,00 %
14.04.2021 12:53 3,4 C 77 % 1028,3 hPa 0,0 l/m 6,4 km/h (2 Bft) W-SW 247 0,000 mm -0,2 C 1,7 C 8,0 km/h (2 Bft) 100,00 %
14.04.2021 12:52 3,3 C 75 % 1028,5 hPa 0,0 l/m 6,4 km/h (2 Bft) W-SW 247 0,000 mm -0,7 C 1,6 C 9,7 km/h (2 Bft) 100,00 %
14.04.2021 12:51 3,4 C 75 % 1028,4 hPa 0,0 l/m 8,0 km/h (2 Bft) W 270 0,000 mm -0,6 C 1,3 C 11,3 km/h (2 Bft) 100,00 %
14.04.2021 12:50 3,6 C 75 % 1028,5 hPa 0,0 l/m 8,0 km/h (2 Bft) W 270 0,000 mm -0,4 C 1,5 C 11,3 km/h (2 Bft) 100,00 %
14.04.2021 12:49 3,8 C 75 % 1028,5 hPa 0,0 l/m 4,8 km/h (1 Bft) W-NW 292 0,000 mm -0,2 C 2,8 C 6,4 km/h (2 Bft) 100,00 %
14.04.2021 12:48 3,8 C 77 % 1028,5 hPa 0,0 l/m 3,2 km/h (1 Bft) NW 315 0,000 mm 0,1 C 3,8 C 4,8 km/h (1 Bft) 100,00 %
14.04.2021 12:47 3,8 C 77 % 1028,5 hPa 0,0 l/m 3,2 km/h (1 Bft) W-NW 292 0,000 mm 0,1 C 3,8 C 6,4 km/h (2 Bft) 100,00 %
14.04.2021 12:46 3,8 C 78 % 1028,5 hPa 0,0 l/m 3,2 km/h (1 Bft) NW 315 0,000 mm 0,3 C 3,8 C 8,0 km/h (2 Bft) 100,00 %
14.04.2021 12:45 3,7 C 78 % 1028,6 hPa 0,0 l/m 4,8 km/h (1 Bft) N-NW 337 0,000 mm 0,2 C 2,7 C 6,4 km/h (2 Bft) 100,00 %
14.04.2021 12:44 3,5 C 78 % 1028,6 hPa 0,0 l/m 3,2 km/h (1 Bft) N-NW 337 0,000 mm 0,0 C 3,5 C 4,8 km/h (1 Bft) 100,00 %
14.04.2021 12:43 3,3 C 76 % 1028,6 hPa 0,0 l/m 3,2 km/h (1 Bft) N-NW 337 0,000 mm -0,5 C 3,3 C 4,8 km/h (1 Bft) 100,00 %
14.04.2021 12:42 3,4 C 75 % 1028,6 hPa 0,0 l/m 3,2 km/h (1 Bft) N-NO 22 0,000 mm -0,6 C 3,4 C 6,4 km/h (2 Bft) 100,00 %
14.04.2021 12:41 3,6 C 73 % 1028,6 hPa 0,0 l/m 3,2 km/h (1 Bft) N-NO 22 0,000 mm -0,8 C 3,6 C 4,8 km/h (1 Bft) 100,00 %
14.04.2021 12:40 3,8 C 73 % 1028,6 hPa 0,0 l/m 6,4 km/h (2 Bft) N-NO 22 0,000 mm -0,6 C 2,2 C 8,0 km/h (2 Bft) 100,00 %
14.04.2021 12:39 4,0 C 74 % 1028,6 hPa 0,0 l/m 9,7 km/h (2 Bft) N-NO 22 0,000 mm -0,2 C 1,5 C 17,7 km/h (3 Bft) 100,00 %
14.04.2021 12:38 4,2 C 73 % 1028,5 hPa 0,0 l/m 6,4 km/h (2 Bft) N 360 0,000 mm -0,2 C 2,7 C 9,7 km/h (2 Bft) 100,00 %
14.04.2021 12:37 4,4 C 73 % 1028,6 hPa 0,0 l/m 6,4 km/h (2 Bft) N-NW 337 0,000 mm -0,0 C 2,9 C 12,9 km/h (3 Bft) 100,00 %
14.04.2021 12:36 4,7 C 71 % 1028,5 hPa 0,0 l/m 8,0 km/h (2 Bft) N 360 0,000 mm -0,1 C 2,8 C 22,5 km/h (4 Bft) 100,00 %
14.04.2021 12:35 4,9 C 69 % 1028,5 hPa 0,0 l/m 8,0 km/h (2 Bft) N 360 0,000 mm -0,3 C 3,0 C 22,5 km/h (4 Bft) 100,00 %
14.04.2021 12:34 5,1 C 68 % 1028,5 hPa 0,0 l/m 8,0 km/h (2 Bft) N 360 0,000 mm -0,3 C 3,3 C 14,5 km/h (3 Bft) 100,00 %
14.04.2021 12:33 5,3 C 67 % 1028,5 hPa 0,0 l/m 11,3 km/h (2 Bft) N-NO 22 0,000 mm -0,3 C 2,8 C 17,7 km/h (3 Bft) 100,00 %
14.04.2021 12:32 5,6 C 66 % 1028,5 hPa 0,0 l/m 6,4 km/h (2 Bft) N-NO 22 0,000 mm -0,2 C 4,3 C 9,7 km/h (2 Bft) 100,00 %
14.04.2021 12:31 5,8 C 63 % 1028,5 hPa 0,0 l/m 8,0 km/h (2 Bft) N-NO 22 0,000 mm -0,7 C 4,1 C 16,1 km/h (3 Bft) 100,00 %
14.04.2021 12:30 6,1 C 60 % 1028,5 hPa 0,0 l/m 11,3 km/h (2 Bft) N-NO 22 0,000 mm -1,1 C 3,7 C 16,1 km/h (3 Bft) 100,00 %
14.04.2021 12:29 6,4 C 62 % 1028,4 hPa 0,0 l/m 9,7 km/h (2 Bft) N-NO 22 0,000 mm -0,3 C 4,4 C 17,7 km/h (3 Bft) 100,00 %
14.04.2021 12:28 6,7 C 62 % 1028,4 hPa 0,0 l/m 4,8 km/h (1 Bft) W 270 0,000 mm -0,1 C 6,1 C 6,4 km/h (2 Bft) 100,00 %
14.04.2021 12:27 6,9 C 64 % 1028,3 hPa 0,0 l/m 6,4 km/h (2 Bft) NW 315 0,000 mm 0,6 C 5,8 C 9,7 km/h (2 Bft) 100,00 %
14.04.2021 12:26 6,9 C 62 % 1028,4 hPa 0,0 l/m 4,8 km/h (1 Bft) N 360 0,000 mm 0,1 C 6,3 C 9,7 km/h (2 Bft) 100,00 %
14.04.2021 12:25 6,8 C 64 % 1028,3 hPa 0,0 l/m 8,0 km/h (2 Bft) W-NW 292 0,000 mm 0,5 C 5,2 C 12,9 km/h (3 Bft) 100,00 %
14.04.2021 12:24 6,6 C 64 % 1028,2 hPa 0,0 l/m 3,2 km/h (1 Bft) NW 315 0,000 mm 0,3 C 6,6 C 4,8 km/h (1 Bft) 100,00 %
14.04.2021 12:23 6,3 C 65 % 1028,2 hPa 0,0 l/m 3,2 km/h (1 Bft) W 270 0,000 mm 0,2 C 6,3 C 4,8 km/h (1 Bft) 100,00 %
14.04.2021 12:22 6,3 C 64 % 1028,3 hPa 0,0 l/m 4,8 km/h (1 Bft) W 270 0,000 mm 0,0 C 5,6 C 6,4 km/h (2 Bft) 100,00 %
14.04.2021 12:21 6,4 C 63 % 1028,2 hPa 0,0 l/m 6,4 km/h (2 Bft) W 270 0,000 mm -0,1 C 5,2 C 9,7 km/h (2 Bft) 100,00 %
14.04.2021 12:20 6,6 C 65 % 1028,2 hPa 0,0 l/m 8,0 km/h (2 Bft) W-SW 247 0,000 mm 0,5 C 5,0 C 11,3 km/h (2 Bft) 100,00 %
14.04.2021 12:19 6,7 C 64 % 1028,2 hPa 0,0 l/m 8,0 km/h (2 Bft) W 270 0,000 mm 0,4 C 5,1 C 11,3 km/h (2 Bft) 100,00 %
14.04.2021 12:18 6,9 C 60 % 1028,4 hPa 0,0 l/m 3,2 km/h (1 Bft) W 270 0,000 mm -0,3 C 6,9 C 4,8 km/h (1 Bft) 100,00 %
14.04.2021 12:17 7,3 C 62 % 1028,3 hPa 0,0 l/m 4,8 km/h (1 Bft) W 270 0,000 mm 0,5 C 6,8 C 9,7 km/h (2 Bft) 100,00 %
14.04.2021 12:16 7,6 C 58 % 1028,3 hPa 0,0 l/m 8,0 km/h (2 Bft) W 270 0,000 mm -0,1 C 6,2 C 11,3 km/h (2 Bft) 100,00 %
14.04.2021 12:15 7,8 C 60 % 1028,3 hPa 0,0 l/m 9,7 km/h (2 Bft) W 270 0,000 mm 0,5 C 6,1 C 14,5 km/h (3 Bft) 100,00 %
14.04.2021 12:14 7,9 C 60 % 1028,4 hPa 0,0 l/m 6,4 km/h (2 Bft) W-NW 292 0,000 mm 0,6 C 6,9 C 11,3 km/h (2 Bft) 100,00 %
14.04.2021 12:13 7,9 C 59 % 1028,3 hPa 0,0 l/m 3,2 km/h (1 Bft) N-NW 337 0,000 mm 0,4 C 7,9 C 6,4 km/h (2 Bft) 100,00 %
14.04.2021 12:12 7,8 C 58 % 1028,3 hPa 0,0 l/m 4,8 km/h (1 Bft) N-NW 337 0,000 mm 0,1 C 7,3 C 6,4 km/h (2 Bft) 100,00 %
14.04.2021 12:11 7,6 C 63 % 1028,4 hPa 0,0 l/m 4,8 km/h (1 Bft) N-NW 337 0,000 mm 1,0 C 7,1 C 6,4 km/h (2 Bft) 100,00 %
14.04.2021 12:10 7,3 C 62 % 1028,4 hPa 0,0 l/m 3,2 km/h (1 Bft) NW 315 0,000 mm 0,5 C 7,3 C 3,2 km/h (1 Bft) 100,00 %
14.04.2021 12:09 6,9 C 60 % 1028,4 hPa 0,0 l/m 3,2 km/h (1 Bft) NW 315 0,000 mm -0,3 C 6,9 C 4,8 km/h (1 Bft) 100,00 %
14.04.2021 12:08 6,6 C 62 % 1028,3 hPa 0,0 l/m 3,2 km/h (1 Bft) W-NW 292 0,000 mm -0,1 C 6,6 C 3,2 km/h (1 Bft) 100,00 %
14.04.2021 12:07 6,3 C 60 % 1028,5 hPa 0,0 l/m 6,4 km/h (2 Bft) W-NW 292 0,000 mm -0,9 C 5,1 C 8,0 km/h (2 Bft) 100,00 %
14.04.2021 12:06 6,2 C 68 % 1028,3 hPa 0,0 l/m 8,0 km/h (2 Bft) W-NW 292 0,000 mm 0,7 C 4,5 C 12,9 km/h (3 Bft) 100,00 %
14.04.2021 12:05 5,8 C 66 % 1028,4 hPa 0,0 l/m 11,3 km/h (2 Bft) W 270 0,000 mm -0,0 C 3,4 C 12,9 km/h (3 Bft) 100,00 %
14.04.2021 12:04 5,6 C 65 % 1028,4 hPa 0,0 l/m 12,9 km/h (3 Bft) W 270 0,000 mm -0,4 C 2,8 C 16,1 km/h (3 Bft) 100,00 %
14.04.2021 12:03 5,3 C 65 % 1028,5 hPa 0,0 l/m 8,0 km/h (2 Bft) W-NW 292 0,000 mm -0,7 C 3,5 C 11,3 km/h (2 Bft) 100,00 %
14.04.2021 12:02 5,2 C 63 % 1028,5 hPa 0,0 l/m 9,7 km/h (2 Bft) W 270 0,000 mm -1,3 C 3,0 C 14,5 km/h (3 Bft) 100,00 %
14.04.2021 12:01 5,3 C 65 % 1028,5 hPa 0,0 l/m 12,9 km/h (3 Bft) W 270 0,000 mm -0,7 C 2,5 C 16,1 km/h (3 Bft) 100,00 %
14.04.2021 12:00 5,3 C 64 % 1028,5 hPa 0,0 l/m 12,9 km/h (3 Bft) W 270 0,000 mm -0,9 C 2,5 C 16,1 km/h (3 Bft) 100,00 %
14.04.2021 11:59 5,3 C 65 % 1028,5 hPa 0,0 l/m 12,9 km/h (3 Bft) W-NW 292 0,000 mm -0,7 C 2,5 C 17,7 km/h (3 Bft) 100,00 %
14.04.2021 11:58 5,3 C 65 % 1028,5 hPa 0,0 l/m 8,0 km/h (2 Bft) W 270 0,000 mm -0,7 C 3,5 C 11,3 km/h (2 Bft) 100,00 %
14.04.2021 11:57 5,4 C 66 % 1028,6 hPa 0,0 l/m 8,0 km/h (2 Bft) W 270 0,000 mm -0,4 C 3,6 C 11,3 km/h (2 Bft) 100,00 %
14.04.2021 11:56 5,5 C 66 % 1028,6 hPa 0,0 l/m 6,4 km/h (2 Bft) W 270 0,000 mm -0,3 C 4,2 C 9,7 km/h (2 Bft) 100,00 %
14.04.2021 11:55 5,6 C 64 % 1028,6 hPa 0,0 l/m 6,4 km/h (2 Bft) W 270 0,000 mm -0,7 C 4,3 C 9,7 km/h (2 Bft) 100,00 %
14.04.2021 11:54 5,6 C 65 % 1028,6 hPa 0,0 l/m 6,4 km/h (2 Bft) W-NW 292 0,000 mm -0,4 C 4,3 C 9,7 km/h (2 Bft) 100,00 %
14.04.2021 11:53 5,5 C 64 % 1028,5 hPa 0,0 l/m 9,7 km/h (2 Bft) W-NW 292 0,000 mm -0,8 C 3,3 C 12,9 km/h (3 Bft) 100,00 %
14.04.2021 11:52 5,5 C 64 % 1028,7 hPa 0,0 l/m 6,4 km/h (2 Bft) W-NW 292 0,000 mm -0,8 C 4,2 C 11,3 km/h (2 Bft) 100,00 %
14.04.2021 11:51 5,5 C 63 % 1028,7 hPa 0,0 l/m 4,8 km/h (1 Bft) NW 315 0,000 mm -1,0 C 4,7 C 6,4 km/h (2 Bft) 100,00 %
14.04.2021 11:50 5,6 C 63 % 1028,6 hPa 0,0 l/m 4,8 km/h (1 Bft) NW 315 0,000 mm -0,9 C 4,8 C 6,4 km/h (2 Bft) 100,00 %
14.04.2021 11:49 5,5 C 65 % 1028,6 hPa 0,0 l/m 3,2 km/h (1 Bft) NW 315 0,000 mm -0,5 C 5,5 C 4,8 km/h (1 Bft) 100,00 %
14.04.2021 11:48 5,5 C 65 % 1028,8 hPa 0,0 l/m 3,2 km/h (1 Bft) NW 315 0,000 mm -0,5 C 5,5 C 4,8 km/h (1 Bft) 100,00 %
14.04.2021 11:47 5,4 C 64 % 1028,8 hPa 0,0 l/m 1,6 km/h (1 Bft) NW 315 0,000 mm -0,9 C 5,4 C 3,2 km/h (1 Bft) 100,00 %
14.04.2021 11:46 5,4 C 63 % 1028,8 hPa 0,0 l/m 4,8 km/h (1 Bft) NW 315 0,000 mm -1,1 C 4,6 C 8,0 km/h (2 Bft) 100,00 %
14.04.2021 11:45 5,4 C 64 % 1028,7 hPa 0,0 l/m 6,4 km/h (2 Bft) N-NW 337 0,000 mm -0,9 C 4,1 C 8,0 km/h (2 Bft) 100,00 %
14.04.2021 11:44 5,5 C 64 % 1028,8 hPa 0,0 l/m 3,2 km/h (1 Bft) N-NW 337 0,000 mm -0,8 C 5,5 C 4,8 km/h (1 Bft) 100,00 %
14.04.2021 11:43 5,4 C 63 % 1028,8 hPa 0,0 l/m 3,2 km/h (1 Bft) N 360 0,000 mm -1,1 C 5,4 C 6,4 km/h (2 Bft) 100,00 %
14.04.2021 11:42 5,4 C 63 % 1028,8 hPa 0,0 l/m 4,8 km/h (1 Bft) N-NW 337 0,000 mm -1,1 C 4,6 C 8,0 km/h (2 Bft) 100,00 %
14.04.2021 11:41 5,4 C 62 % 1028,8 hPa 0,0 l/m 6,4 km/h (2 Bft) N-NW 337 0,000 mm -1,3 C 4,1 C 9,7 km/h (2 Bft) 100,00 %
14.04.2021 11:40 5,5 C 63 % 1028,8 hPa 0,0 l/m 4,8 km/h (1 Bft) N-NW 337 0,000 mm -1,0 C 4,7 C 8,0 km/h (2 Bft) 100,00 %
14.04.2021 11:39 5,6 C 63 % 1028,9 hPa 0,0 l/m 6,4 km/h (2 Bft) W-NW 292 0,000 mm -0,9 C 4,3 C 11,3 km/h (2 Bft) 100,00 %
14.04.2021 11:38 5,6 C 63 % 1028,9 hPa 0,0 l/m 4,8 km/h (1 Bft) W-NW 292 0,000 mm -0,9 C 4,8 C 8,0 km/h (2 Bft) 100,00 %
14.04.2021 11:37 5,7 C 65 % 1028,9 hPa 0,0 l/m 6,4 km/h (2 Bft) W-NW 292 0,000 mm -0,4 C 4,4 C 8,0 km/h (2 Bft) 100,00 %
14.04.2021 11:36 5,6 C 66 % 1028,8 hPa 0,0 l/m 3,2 km/h (1 Bft) NW 315 0,000 mm -0,2 C 5,6 C 6,4 km/h (2 Bft) 100,00 %
14.04.2021 11:35 5,6 C 66 % 1028,8 hPa 0,0 l/m 4,8 km/h (1 Bft) W-NW 292 0,000 mm -0,2 C 4,8 C 6,4 km/h (2 Bft) 100,00 %
14.04.2021 11:34 5,5 C 66 % 1028,9 hPa 0,0 l/m 8,0 km/h (2 Bft) W-NW 292 0,000 mm -0,3 C 3,7 C 12,9 km/h (3 Bft) 100,00 %
14.04.2021 11:33 5,6 C 65 % 1028,9 hPa 0,0 l/m 9,7 km/h (2 Bft) W 270 0,000 mm -0,4 C 3,4 C 12,9 km/h (3 Bft) 100,00 %
14.04.2021 11:32 5,7 C 65 % 1028,9 hPa 0,0 l/m 8,0 km/h (2 Bft) W-NW 292 0,000 mm -0,4 C 4,0 C 12,9 km/h (3 Bft) 100,00 %
14.04.2021 11:31 5,7 C 64 % 1028,9 hPa 0,0 l/m 3,2 km/h (1 Bft) W-NW 292 0,000 mm -0,6 C 5,7 C 4,8 km/h (1 Bft) 100,00 %
14.04.2021 11:30 5,6 C 65 % 1028,9 hPa 0,0 l/m 6,4 km/h (2 Bft) W-NW 292 0,000 mm -0,4 C 4,3 C 11,3 km/h (2 Bft) 100,00 %
14.04.2021 11:29 5,6 C 64 % 1028,9 hPa 0,0 l/m 6,4 km/h (2 Bft) W-NW 292 0,000 mm -0,7 C 4,3 C 11,3 km/h (2 Bft) 100,00 %
14.04.2021 11:28 5,6 C 65 % 1028,9 hPa 0,0 l/m 6,4 km/h (2 Bft) W-NW 292 0,000 mm -0,4 C 4,3 C 11,3 km/h (2 Bft) 100,00 %
14.04.2021 11:27 5,6 C 65 % 1029,0 hPa 0,0 l/m 4,8 km/h (1 Bft) W-NW 292 0,000 mm -0,4 C 4,8 C 6,4 km/h (2 Bft) 100,00 %
14.04.2021 11:26 5,5 C 65 % 1028,9 hPa 0,0 l/m 4,8 km/h (1 Bft) W-NW 292 0,000 mm -0,5 C 4,7 C 11,3 km/h (2 Bft) 100,00 %
14.04.2021 11:25 5,4 C 66 % 1028,9 hPa 0,0 l/m 4,8 km/h (1 Bft) N-NW 337 0,000 mm -0,4 C 4,6 C 8,0 km/h (2 Bft) 100,00 %
14.04.2021 11:24 5,4 C 67 % 1028,9 hPa 0,0 l/m 4,8 km/h (1 Bft) NW 315 0,000 mm -0,2 C 4,6 C 11,3 km/h (2 Bft) 100,00 %
14.04.2021 11:23 5,4 C 66 % 1028,9 hPa 0,0 l/m 9,7 km/h (2 Bft) W 270 0,000 mm -0,4 C 3,2 C 12,9 km/h (3 Bft) 100,00 %
14.04.2021 11:22 5,6 C 66 % 1028,9 hPa 0,0 l/m 12,9 km/h (3 Bft) W 270 0,000 mm -0,2 C 2,8 C 14,5 km/h (3 Bft) 100,00 %
14.04.2021 11:21 5,6 C 66 % 1029,0 hPa 0,0 l/m 11,3 km/h (2 Bft) W 270 0,000 mm -0,2 C 3,1 C 16,1 km/h (3 Bft) 100,00 %
14.04.2021 11:20 5,6 C 67 % 1028,9 hPa 0,0 l/m 9,7 km/h (2 Bft) W 270 0,000 mm -0,0 C 3,4 C 16,1 km/h (3 Bft) 100,00 %
14.04.2021 11:19 5,4 C 66 % 1028,9 hPa 0,0 l/m 3,2 km/h (1 Bft) N-NW 337 0,000 mm -0,4 C 5,4 C 6,4 km/h (2 Bft) 100,00 %
14.04.2021 11:18 5,3 C 65 % 1028,9 hPa 0,0 l/m 3,2 km/h (1 Bft) N-NW 337 0,000 mm -0,7 C 5,3 C 6,4 km/h (2 Bft) 100,00 %
14.04.2021 11:17 5,3 C 65 % 1028,9 hPa 0,0 l/m 4,8 km/h (1 Bft) W-NW 292 0,000 mm -0,7 C 4,5 C 11,3 km/h (2 Bft) 100,00 %
14.04.2021 11:16 5,3 C 65 % 1029,0 hPa 0,0 l/m 12,9 km/h (3 Bft) W 270 0,000 mm -0,7 C 2,5 C 14,5 km/h (3 Bft) 100,00 %
14.04.2021 11:15 5,4 C 65 % 1029,0 hPa 0,0 l/m 14,5 km/h (3 Bft) W 270 0,000 mm -0,6 C 2,3 C 16,1 km/h (3 Bft) 100,00 %
14.04.2021 11:14 5,5 C 67 % 1028,9 hPa 0,0 l/m 14,5 km/h (3 Bft) W 270 0,000 mm -0,1 C 2,4 C 19,3 km/h (3 Bft) 100,00 %
14.04.2021 11:13 5,6 C 66 % 1028,9 hPa 0,0 l/m 11,3 km/h (2 Bft) W-NW 292 0,000 mm -0,2 C 3,1 C 14,5 km/h (3 Bft) 100,00 %
14.04.2021 11:12 5,4 C 68 % 1029,0 hPa 0,0 l/m 12,9 km/h (3 Bft) W-NW 292 0,000 mm -0,0 C 2,6 C 17,7 km/h (3 Bft) 100,00 %
14.04.2021 11:11 5,3 C 69 % 1029,0 hPa 0,0 l/m 12,9 km/h (3 Bft) W 270 0,000 mm 0,1 C 2,5 C 16,1 km/h (3 Bft) 100,00 %
14.04.2021 11:10 5,3 C 71 % 1029,0 hPa 0,0 l/m 16,1 km/h (3 Bft) W 270 0,000 mm 0,5 C 2,0 C 19,3 km/h (3 Bft) 100,00 %
14.04.2021 11:09 5,2 C 68 % 1028,9 hPa 0,0 l/m 9,7 km/h (2 Bft) W 270 0,000 mm -0,2 C 3,0 C 14,5 km/h (3 Bft) 100,00 %
14.04.2021 11:08 5,2 C 67 % 1029,0 hPa 0,0 l/m 3,2 km/h (1 Bft) W 270 0,000 mm -0,4 C 5,2 C 6,4 km/h (2 Bft) 100,00 %
14.04.2021 11:07 5,3 C 66 % 1029,0 hPa 0,0 l/m 6,4 km/h (2 Bft) W 270 0,000 mm -0,5 C 3,9 C 9,7 km/h (2 Bft) 100,00 %
14.04.2021 11:06 5,4 C 66 % 1029,1 hPa 0,0 l/m 4,8 km/h (1 Bft) W 270 0,000 mm -0,4 C 4,6 C 9,7 km/h (2 Bft) 100,00 %
14.04.2021 11:05 5,4 C 68 % 1029,0 hPa 0,0 l/m 12,9 km/h (3 Bft) W 270 0,000 mm -0,0 C 2,6 C 16,1 km/h (3 Bft) 100,00 %
14.04.2021 11:04 5,4 C 68 % 1029,0 hPa 0,0 l/m 11,3 km/h (2 Bft) W 270 0,000 mm -0,0 C 2,9 C 12,9 km/h (3 Bft) 100,00 %
14.04.2021 11:03 5,4 C 65 % 1029,1 hPa 0,0 l/m 6,4 km/h (2 Bft) W 270 0,000 mm -0,6 C 4,1 C 9,7 km/h (2 Bft) 100,00 %
14.04.2021 11:02 5,6 C 66 % 1029,1 hPa 0,0 l/m 6,4 km/h (2 Bft) W-NW 292 0,000 mm -0,2 C 4,3 C 9,7 km/h (2 Bft) 100,00 %
14.04.2021 11:01 5,5 C 66 % 1029,1 hPa 0,0 l/m 3,2 km/h (1 Bft) NW 315 0,000 mm -0,3 C 5,5 C 4,8 km/h (1 Bft) 100,00 %
14.04.2021 11:00 5,4 C 65 % 1029,0 hPa 0,0 l/m 4,8 km/h (1 Bft) W-NW 292 0,000 mm -0,6 C 4,6 C 9,7 km/h (2 Bft) 100,00 %
14.04.2021 10:59 5,6 C 65 % 1029,1 hPa 0,0 l/m 3,2 km/h (1 Bft) N-NW 337 0,000 mm -0,4 C 5,6 C 6,4 km/h (2 Bft) 100,00 %
14.04.2021 10:58 5,5 C 64 % 1029,1 hPa 0,0 l/m 4,8 km/h (1 Bft) N-NW 337 0,000 mm -0,8 C 4,7 C 6,4 km/h (2 Bft) 100,00 %
14.04.2021 10:57 5,5 C 64 % 1029,0 hPa 0,0 l/m 9,7 km/h (2 Bft) N-NW 337 0,000 mm -0,8 C 3,3 C 12,9 km/h (3 Bft) 100,00 %
14.04.2021 10:56 5,6 C 66 % 1029,0 hPa 0,0 l/m 8,0 km/h (2 Bft) W 270 0,000 mm -0,2 C 3,8 C 11,3 km/h (2 Bft) 100,00 %
14.04.2021 10:55 5,7 C 65 % 1029,0 hPa 0,0 l/m 6,4 km/h (2 Bft) W 270 0,000 mm -0,4 C 4,4 C 9,7 km/h (2 Bft) 100,00 %
14.04.2021 10:54 5,7 C 67 % 1029,0 hPa 0,0 l/m 8,0 km/h (2 Bft) W-NW 292 0,000 mm 0,1 C 4,0 C 14,5 km/h (3 Bft) 100,00 %
14.04.2021 10:53 5,7 C 65 % 1029,1 hPa 0,0 l/m 4,8 km/h (1 Bft) W 270 0,000 mm -0,4 C 5,0 C 8,0 km/h (2 Bft) 100,00 %
14.04.2021 10:52 5,9 C 66 % 1029,1 hPa 0,0 l/m 3,2 km/h (1 Bft) W 270 0,000 mm 0,0 C 5,9 C 4,8 km/h (1 Bft) 100,00 %
14.04.2021 10:51 6,0 C 66 % 1029,0 hPa 0,0 l/m 1,6 km/h (1 Bft) NW 315 0,000 mm 0,1 C 6,0 C 3,2 km/h (1 Bft) 100,00 %
14.04.2021 10:50 5,9 C 67 % 1029,1 hPa 0,0 l/m 3,2 km/h (1 Bft) W-NW 292 0,000 mm 0,3 C 5,9 C 4,8 km/h (1 Bft) 100,00 %
14.04.2021 10:49 5,9 C 67 % 1029,1 hPa 0,0 l/m 1,6 km/h (1 Bft) W 270 0,000 mm 0,3 C 5,9 C 4,8 km/h (1 Bft) 100,00 %
14.04.2021 10:48 5,9 C 65 % 1029,2 hPa 0,0 l/m 3,2 km/h (1 Bft) NW 315 0,000 mm -0,2 C 5,9 C 4,8 km/h (1 Bft) 100,00 %
14.04.2021 10:47 5,8 C 66 % 1029,1 hPa 0,0 l/m 4,8 km/h (1 Bft) NW 315 0,000 mm -0,0 C 5,1 C 6,4 km/h (2 Bft) 100,00 %
14.04.2021 10:46 5,7 C 67 % 1029,1 hPa 0,0 l/m 1,6 km/h (1 Bft) N-NW 337 0,000 mm 0,1 C 5,7 C 3,2 km/h (1 Bft) 100,00 %
14.04.2021 10:45 5,8 C 65 % 1029,2 hPa 0,0 l/m 1,6 km/h (1 Bft) N-NW 337 0,000 mm -0,3 C 5,8 C 3,2 km/h (1 Bft) 100,00 %
14.04.2021 10:44 5,9 C 63 % 1029,2 hPa 0,0 l/m 4,8 km/h (1 Bft) N-NW 337 0,000 mm -0,6 C 5,2 C 12,9 km/h (3 Bft) 100,00 %
14.04.2021 10:43 6,0 C 63 % 1029,1 hPa 0,0 l/m 6,4 km/h (2 Bft) N-NO 22 0,000 mm -0,5 C 4,7 C 14,5 km/h (3 Bft) 100,00 %
14.04.2021 10:42 6,1 C 64 % 1029,2 hPa 0,0 l/m 6,4 km/h (2 Bft) N 360 0,000 mm -0,2 C 4,9 C 12,9 km/h (3 Bft) 100,00 %
14.04.2021 10:41 6,1 C 69 % 1029,2 hPa 0,0 l/m 8,0 km/h (2 Bft) N-NO 22 0,000 mm 0,8 C 4,4 C 14,5 km/h (3 Bft) 100,00 %
14.04.2021 10:40 5,8 C 71 % 1029,1 hPa 0,0 l/m 4,8 km/h (1 Bft) W-NW 292 0,000 mm 1,0 C 5,1 C 8,0 km/h (2 Bft) 100,00 %
14.04.2021 10:39 5,6 C 71 % 1029,2 hPa 0,0 l/m 4,8 km/h (1 Bft) W 270 0,000 mm 0,8 C 4,8 C 9,7 km/h (2 Bft) 100,00 %
14.04.2021 10:38 5,6 C 72 % 1029,2 hPa 0,0 l/m 6,4 km/h (2 Bft) W 270 0,000 mm 1,0 C 4,3 C 9,7 km/h (2 Bft) 100,00 %
14.04.2021 10:37 5,4 C 71 % 1029,2 hPa 0,0 l/m 9,7 km/h (2 Bft) W-SW 247 0,000 mm 0,6 C 3,2 C 12,9 km/h (3 Bft) 100,00 %
14.04.2021 10:36 5,4 C 69 % 1029,3 hPa 0,0 l/m 4,8 km/h (1 Bft) W 270 0,000 mm 0,2 C 4,6 C 11,3 km/h (2 Bft) 100,00 %
14.04.2021 10:35 5,4 C 72 % 1029,2 hPa 0,0 l/m 9,7 km/h (2 Bft) W 270 0,000 mm 0,8 C 3,2 C 12,9 km/h (3 Bft) 100,00 %
14.04.2021 10:34 5,4 C 70 % 1029,2 hPa 0,0 l/m 4,8 km/h (1 Bft) W 270 0,000 mm 0,4 C 4,6 C 9,7 km/h (2 Bft) 100,00 %
14.04.2021 10:33 5,4 C 71 % 1029,2 hPa 0,0 l/m 3,2 km/h (1 Bft) W 270 0,000 mm 0,6 C 5,4 C 4,8 km/h (1 Bft) 100,00 %
14.04.2021 10:32 5,4 C 70 % 1029,2 hPa 0,0 l/m 3,2 km/h (1 Bft) W-NW 292 0,000 mm 0,4 C 5,4 C 6,4 km/h (2 Bft) 100,00 %
14.04.2021 10:31 5,3 C 71 % 1029,2 hPa 0,0 l/m 3,2 km/h (1 Bft) NW 315 0,000 mm 0,5 C 5,3 C 9,7 km/h (2 Bft) 100,00 %
14.04.2021 10:30 5,1 C 70 % 1029,2 hPa 0,0 l/m 4,8 km/h (1 Bft) NW 315 0,000 mm 0,1 C 4,3 C 8,0 km/h (2 Bft) 100,00 %
14.04.2021 10:29 5,1 C 71 % 1029,3 hPa 0,0 l/m 4,8 km/h (1 Bft) N-NW 337 0,000 mm 0,3 C 4,3 C 8,0 km/h (2 Bft) 100,00 %
14.04.2021 10:28 5,0 C 73 % 1029,2 hPa 0,0 l/m 6,4 km/h (2 Bft) W 270 0,000 mm 0,6 C 3,6 C 11,3 km/h (2 Bft) 100,00 %
14.04.2021 10:27 4,9 C 73 % 1029,2 hPa 0,0 l/m 4,8 km/h (1 Bft) W 270 0,000 mm 0,5 C 4,0 C 9,7 km/h (2 Bft) 100,00 %
14.04.2021 10:26 4,8 C 71 % 1029,2 hPa 0,0 l/m 4,8 km/h (1 Bft) W 270 0,000 mm -0,0 C 3,9 C 9,7 km/h (2 Bft) 100,00 %
14.04.2021 10:25 4,9 C 72 % 1029,3 hPa 0,0 l/m 9,7 km/h (2 Bft) W 270 0,000 mm 0,3 C 2,6 C 14,5 km/h (3 Bft) 100,00 %
14.04.2021 10:24 4,9 C 71 % 1029,3 hPa 0,0 l/m 9,7 km/h (2 Bft) W 270 0,000 mm 0,1 C 2,6 C 12,9 km/h (3 Bft) 100,00 %
14.04.2021 10:23 5,1 C 70 % 1029,3 hPa 0,0 l/m 11,3 km/h (2 Bft) W 270 0,000 mm 0,1 C 2,5 C 14,5 km/h (3 Bft) 100,00 %
14.04.2021 10:22 5,2 C 71 % 1029,3 hPa 0,0 l/m 11,3 km/h (2 Bft) W 270 0,000 mm 0,4 C 2,6 C 16,1 km/h (3 Bft) 100,00 %
14.04.2021 10:21 5,1 C 71 % 1029,2 hPa 0,0 l/m 6,4 km/h (2 Bft) W-NW 292 0,000 mm 0,3 C 3,7 C 11,3 km/h (2 Bft) 100,00 %
14.04.2021 10:20 5,1 C 71 % 1029,2 hPa 0,0 l/m 6,4 km/h (2 Bft) W 270 0,000 mm 0,3 C 3,7 C 11,3 km/h (2 Bft) 100,00 %
14.04.2021 10:19 5,2 C 70 % 1029,3 hPa 0,0 l/m 12,9 km/h (3 Bft) W 270 0,000 mm 0,2 C 2,3 C 16,1 km/h (3 Bft) 100,00 %
14.04.2021 10:18 5,2 C 72 % 1029,4 hPa 0,0 l/m 12,9 km/h (3 Bft) W 270 0,000 mm 0,6 C 2,3 C 17,7 km/h (3 Bft) 100,00 %
14.04.2021 10:17 5,2 C 72 % 1029,3 hPa 0,0 l/m 8,0 km/h (2 Bft) W-NW 292 0,000 mm 0,6 C 3,4 C 12,9 km/h (3 Bft) 100,00 %
14.04.2021 10:16 5,0 C 71 % 1029,3 hPa 0,0 l/m 11,3 km/h (2 Bft) W 270 0,000 mm 0,2 C 2,4 C 16,1 km/h (3 Bft) 100,00 %
14.04.2021 10:15 5,0 C 72 % 1029,4 hPa 0,0 l/m 11,3 km/h (2 Bft) W-NW 292 0,000 mm 0,4 C 2,4 C 16,1 km/h (3 Bft) 100,00 %
14.04.2021 10:14 4,9 C 72 % 1029,4 hPa 0,0 l/m 9,7 km/h (2 Bft) W 270 0,000 mm 0,3 C 2,6 C 12,9 km/h (3 Bft) 100,00 %
14.04.2021 10:13 4,9 C 72 % 1029,3 hPa 0,0 l/m 8,0 km/h (2 Bft) W-NW 292 0,000 mm 0,3 C 3,0 C 12,9 km/h (3 Bft) 100,00 %
14.04.2021 10:12 4,9 C 73 % 1029,4 hPa 0,0 l/m 14,5 km/h (3 Bft) W 270 0,000 mm 0,5 C 1,7 C 16,1 km/h (3 Bft) 100,00 %
14.04.2021 10:11 4,9 C 75 % 1029,4 hPa 0,0 l/m 8,0 km/h (2 Bft) W-NW 292 0,000 mm 0,8 C 3,0 C 12,9 km/h (3 Bft) 100,00 %
14.04.2021 10:10 4,8 C 75 % 1029,4 hPa 0,0 l/m 3,2 km/h (1 Bft) W-NW 292 0,000 mm 0,8 C 4,8 C 4,8 km/h (1 Bft) 100,00 %
14.04.2021 10:09 4,8 C 73 % 1029,4 hPa 0,0 l/m 3,2 km/h (1 Bft) W-NW 292 0,000 mm 0,4 C 4,8 C 6,4 km/h (2 Bft) 100,00 %
14.04.2021 10:08 4,9 C 72 % 1029,4 hPa 0,0 l/m 4,8 km/h (1 Bft) W 270 0,000 mm 0,3 C 4,0 C 9,7 km/h (2 Bft) 100,00 %
14.04.2021 10:07 4,9 C 72 % 1029,4 hPa 0,0 l/m 6,4 km/h (2 Bft) NW 315 0,000 mm 0,3 C 3,5 C 9,7 km/h (2 Bft) 100,00 %
14.04.2021 10:06 4,9 C 72 % 1029,4 hPa 0,0 l/m 8,0 km/h (2 Bft) W-NW 292 0,000 mm 0,3 C 3,0 C 12,9 km/h (3 Bft) 100,00 %
14.04.2021 10:05 5,0 C 74 % 1029,4 hPa 0,0 l/m 9,7 km/h (2 Bft) W-NW 292 0,000 mm 0,8 C 2,7 C 12,9 km/h (3 Bft) 100,00 %
14.04.2021 10:04 4,8 C 74 % 1029,4 hPa 0,0 l/m 8,0 km/h (2 Bft) W-NW 292 0,000 mm 0,6 C 2,9 C 12,9 km/h (3 Bft) 100,00 %
14.04.2021 10:03 4,8 C 73 % 1029,4 hPa 0,0 l/m 6,4 km/h (2 Bft) W-NW 292 0,000 mm 0,4 C 3,4 C 9,7 km/h (2 Bft) 100,00 %
14.04.2021 10:02 4,7 C 75 % 1029,4 hPa 0,0 l/m 11,3 km/h (2 Bft) W-NW 292 0,000 mm 0,7 C 2,0 C 14,5 km/h (3 Bft) 100,00 %
14.04.2021 10:01 4,6 C 75 % 1029,4 hPa 0,0 l/m 11,3 km/h (2 Bft) W 270 0,000 mm 0,6 C 1,9 C 14,5 km/h (3 Bft) 100,00 %
14.04.2021 10:00 4,4 C 75 % 1029,4 hPa 0,0 l/m 6,4 km/h (2 Bft) W-NW 292 0,000 mm 0,4 C 2,9 C 11,3 km/h (2 Bft) 100,00 %
14.04.2021 09:59 4,2 C 75 % 1029,4 hPa 0,0 l/m 4,8 km/h (1 Bft) W 270 0,000 mm 0,2 C 3,3 C 6,4 km/h (2 Bft) 100,00 %
14.04.2021 09:58 4,1 C 76 % 1029,4 hPa 0,0 l/m 9,7 km/h (2 Bft) W 270 0,000 mm 0,3 C 1,7 C 12,9 km/h (3 Bft) 100,00 %
14.04.2021 09:57 4,1 C 75 % 1029,4 hPa 0,0 l/m 12,9 km/h (3 Bft) W 270 0,000 mm 0,1 C 1,0 C 16,1 km/h (3 Bft) 100,00 %
14.04.2021 09:56 4,2 C 76 % 1029,4 hPa 0,0 l/m 11,3 km/h (2 Bft) W 270 0,000 mm 0,4 C 1,4 C 14,5 km/h (3 Bft) 56,52 %
14.04.2021 09:54 4,2 C 76 % 1029,5 hPa 0,0 l/m 11,3 km/h (2 Bft) W 270 0,000 mm 0,4 C 1,4 C 19,3 km/h (3 Bft) 100,00 %
14.04.2021 09:53 4,2 C 74 % 1029,5 hPa 0,0 l/m 14,5 km/h (3 Bft) W-SW 247 0,000 mm -0,0 C 0,8 C 19,3 km/h (3 Bft) 100,00 %
14.04.2021 09:52 4,3 C 75 % 1029,5 hPa 0,0 l/m 14,5 km/h (3 Bft) W 270 0,000 mm 0,3 C 1,0 C 17,7 km/h (3 Bft) 100,00 %
14.04.2021 09:51 4,3 C 74 % 1029,5 hPa 0,0 l/m 9,7 km/h (2 Bft) W 270 0,000 mm 0,1 C 1,9 C 14,5 km/h (3 Bft) 100,00 %
14.04.2021 09:50 4,2 C 76 % 1029,5 hPa 0,0 l/m 8,0 km/h (2 Bft) W-NW 292 0,000 mm 0,4 C 2,2 C 12,9 km/h (3 Bft) 100,00 %
14.04.2021 09:49 4,1 C 74 % 1029,5 hPa 0,0 l/m 6,4 km/h (2 Bft) W 270 0,000 mm -0,1 C 2,6 C 11,3 km/h (2 Bft) 100,00 %
14.04.2021 09:48 4,3 C 74 % 1029,5 hPa 0,0 l/m 9,7 km/h (2 Bft) W 270 0,000 mm 0,1 C 1,9 C 14,5 km/h (3 Bft) 100,00 %
14.04.2021 09:47 4,3 C 75 % 1029,5 hPa 0,0 l/m 8,0 km/h (2 Bft) W 270 0,000 mm 0,3 C 2,3 C 9,7 km/h (2 Bft) 100,00 %
14.04.2021 09:46 4,2 C 74 % 1029,5 hPa 0,0 l/m 6,4 km/h (2 Bft) W 270 0,000 mm -0,0 C 2,7 C 11,3 km/h (2 Bft) 100,00 %
14.04.2021 09:45 4,3 C 73 % 1029,5 hPa 0,0 l/m 11,3 km/h (2 Bft) W 270 0,000 mm -0,1 C 1,5 C 12,9 km/h (3 Bft) 100,00 %
14.04.2021 09:44 4,4 C 73 % 1029,4 hPa 0,0 l/m 12,9 km/h (3 Bft) W 270 0,000 mm -0,0 C 1,4 C 16,1 km/h (3 Bft) 100,00 %
14.04.2021 09:43 4,4 C 74 % 1029,5 hPa 0,0 l/m 12,9 km/h (3 Bft) W-NW 292 0,000 mm 0,2 C 1,4 C 17,7 km/h (3 Bft) 100,00 %
14.04.2021 09:42 4,3 C 74 % 1029,5 hPa 0,0 l/m 8,0 km/h (2 Bft) W-NW 292 0,000 mm 0,1 C 2,3 C 11,3 km/h (2 Bft) 100,00 %
14.04.2021 09:41 4,2 C 74 % 1029,5 hPa 0,0 l/m 6,4 km/h (2 Bft) W-NW 292 0,000 mm -0,0 C 2,7 C 11,3 km/h (2 Bft) 100,00 %
14.04.2021 09:40 4,2 C 75 % 1029,5 hPa 0,0 l/m 6,4 km/h (2 Bft) W-NW 292 0,000 mm 0,2 C 2,7 C 11,3 km/h (2 Bft) 100,00 %
14.04.2021 09:39 3,9 C 74 % 1029,4 hPa 0,0 l/m 4,8 km/h (1 Bft) W-NW 292 0,000 mm -0,3 C 2,9 C 11,3 km/h (2 Bft) 100,00 %
14.04.2021 09:38 3,8 C 76 % 1029,5 hPa 0,0 l/m 11,3 km/h (2 Bft) W-NW 292 0,000 mm -0,0 C 0,9 C 14,5 km/h (3 Bft) 100,00 %
14.04.2021 09:37 3,8 C 76 % 1029,5 hPa 0,0 l/m 11,3 km/h (2 Bft) W 270 0,000 mm -0,0 C 0,9 C 14,5 km/h (3 Bft) 100,00 %
14.04.2021 09:36 3,7 C 77 % 1029,4 hPa 0,0 l/m 9,7 km/h (2 Bft) W 270 0,000 mm 0,1 C 1,2 C 12,9 km/h (3 Bft) 100,00 %
14.04.2021 09:35 3,7 C 76 % 1029,5 hPa 0,0 l/m 11,3 km/h (2 Bft) W-SW 247 0,000 mm -0,1 C 0,8 C 14,5 km/h (3 Bft) 100,00 %
14.04.2021 09:34 3,8 C 75 % 1029,4 hPa 0,0 l/m 11,3 km/h (2 Bft) W 270 0,000 mm -0,2 C 0,9 C 16,1 km/h (3 Bft) 100,00 %
14.04.2021 09:33 3,8 C 74 % 1029,5 hPa 0,0 l/m 6,4 km/h (2 Bft) W 270 0,000 mm -0,4 C 2,2 C 9,7 km/h (2 Bft) 100,00 %
14.04.2021 09:32 3,9 C 75 % 1029,4 hPa 0,0 l/m 8,0 km/h (2 Bft) W-NW 292 0,000 mm -0,1 C 1,8 C 11,3 km/h (2 Bft) 100,00 %
14.04.2021 09:31 4,0 C 75 % 1029,5 hPa 0,0 l/m 9,7 km/h (2 Bft) W-NW 292 0,000 mm -0,0 C 1,5 C 12,9 km/h (3 Bft) 100,00 %
14.04.2021 09:30 3,9 C 76 % 1029,3 hPa 0,0 l/m 8,0 km/h (2 Bft) W 270 0,000 mm 0,1 C 1,8 C 12,9 km/h (3 Bft) 100,00 %
14.04.2021 09:29 3,9 C 76 % 1029,4 hPa 0,0 l/m 8,0 km/h (2 Bft) W-NW 292 0,000 mm 0,1 C 1,8 C 14,5 km/h (3 Bft) 100,00 %
14.04.2021 09:28 3,8 C 75 % 1029,4 hPa 0,0 l/m 6,4 km/h (2 Bft) W-NW 292 0,000 mm -0,2 C 2,2 C 11,3 km/h (2 Bft) 100,00 %
14.04.2021 09:27 3,8 C 75 % 1029,3 hPa 0,0 l/m 9,7 km/h (2 Bft) W-NW 292 0,000 mm -0,2 C 1,3 C 14,5 km/h (3 Bft) 100,00 %
14.04.2021 09:26 3,7 C 76 % 1029,3 hPa 0,0 l/m 8,0 km/h (2 Bft) W-NW 292 0,000 mm -0,1 C 1,6 C 12,9 km/h (3 Bft) 100,00 %
14.04.2021 09:25 3,7 C 77 % 1029,4 hPa 0,0 l/m 11,3 km/h (2 Bft) W-NW 292 0,000 mm 0,1 C 0,8 C 14,5 km/h (3 Bft) 100,00 %
14.04.2021 09:24 3,6 C 78 % 1029,4 hPa 0,0 l/m 9,7 km/h (2 Bft) W 270 0,000 mm 0,1 C 1,1 C 12,9 km/h (3 Bft) 100,00 %
14.04.2021 09:23 3,5 C 78 % 1029,4 hPa 0,0 l/m 8,0 km/h (2 Bft) W 270 0,000 mm 0,0 C 1,4 C 12,9 km/h (3 Bft) 100,00 %
14.04.2021 09:22 3,4 C 79 % 1029,4 hPa 0,0 l/m 9,7 km/h (2 Bft) W 270 0,000 mm 0,1 C 0,8 C 12,9 km/h (3 Bft) 100,00 %
14.04.2021 09:21 3,3 C 79 % 1029,4 hPa 0,0 l/m 9,7 km/h (2 Bft) W 270 0,000 mm 0,0 C 0,7 C 11,3 km/h (2 Bft) 100,00 %
14.04.2021 09:20 3,3 C 79 % 1029,5 hPa 0,0 l/m 9,7 km/h (2 Bft) W 270 0,000 mm 0,0 C 0,7 C 11,3 km/h (2 Bft) 100,00 %
14.04.2021 09:19 3,3 C 78 % 1029,4 hPa 0,0 l/m 6,4 km/h (2 Bft) W 270 0,000 mm -0,2 C 1,6 C 11,3 km/h (2 Bft) 100,00 %
14.04.2021 09:18 3,3 C 78 % 1029,5 hPa 0,0 l/m 11,3 km/h (2 Bft) W 270 0,000 mm -0,2 C 0,3 C 12,9 km/h (3 Bft) 100,00 %
14.04.2021 09:17 3,2 C 78 % 1029,5 hPa 0,0 l/m 11,3 km/h (2 Bft) W 270 0,000 mm -0,3 C 0,2 C 14,5 km/h (3 Bft) 100,00 %
14.04.2021 09:16 3,1 C 78 % 1029,5 hPa 0,0 l/m 11,3 km/h (2 Bft) W 270 0,000 mm -0,4 C 0,1 C 14,5 km/h (3 Bft) 100,00 %
14.04.2021 09:15 3,1 C 79 % 1029,4 hPa 0,0 l/m 11,3 km/h (2 Bft) W 270 0,000 mm -0,2 C 0,1 C 14,5 km/h (3 Bft) 100,00 %
14.04.2021 09:14 3,0 C 78 % 1029,4 hPa 0,0 l/m 11,3 km/h (2 Bft) W 270 0,000 mm -0,5 C -0,0 C 12,9 km/h (3 Bft) 100,00 %
14.04.2021 09:13 2,9 C 78 % 1029,5 hPa 0,0 l/m 9,7 km/h (2 Bft) W 270 0,000 mm -0,5 C 0,2 C 12,9 km/h (3 Bft) 100,00 %
14.04.2021 09:12 2,9 C 77 % 1029,5 hPa 0,0 l/m 6,4 km/h (2 Bft) W 270 0,000 mm -0,7 C 1,2 C 11,3 km/h (2 Bft) 100,00 %
14.04.2021 09:11 2,9 C 77 % 1029,5 hPa 0,0 l/m 6,4 km/h (2 Bft) W 270 0,000 mm -0,7 C 1,2 C 9,7 km/h (2 Bft) 100,00 %
14.04.2021 09:10 2,9 C 77 % 1029,4 hPa 0,0 l/m 6,4 km/h (2 Bft) W 270 0,000 mm -0,7 C 1,2 C 9,7 km/h (2 Bft) 100,00 %
14.04.2021 09:09 2,9 C 78 % 1029,5 hPa 0,0 l/m 8,0 km/h (2 Bft) W-NW 292 0,000 mm -0,5 C 0,7 C 11,3 km/h (2 Bft) 100,00 %
14.04.2021 09:08 2,8 C 79 % 1029,4 hPa 0,0 l/m 6,4 km/h (2 Bft) W-NW 292 0,000 mm -0,5 C 1,1 C 11,3 km/h (2 Bft) 100,00 %
14.04.2021 09:07 2,8 C 80 % 1029,4 hPa 0,0 l/m 8,0 km/h (2 Bft) W-NW 292 0,000 mm -0,3 C 0,6 C 12,9 km/h (3 Bft) 100,00 %
14.04.2021 09:06 2,7 C 80 % 1029,5 hPa 0,0 l/m 9,7 km/h (2 Bft) W 270 0,000 mm -0,4 C -0,0 C 12,9 km/h (3 Bft) 100,00 %
14.04.2021 09:05 2,7 C 81 % 1029,5 hPa 0,0 l/m 8,0 km/h (2 Bft) W 270 0,000 mm -0,2 C 0,4 C 11,3 km/h (2 Bft) 100,00 %
14.04.2021 09:04 2,6 C 80 % 1029,4 hPa 0,0 l/m 6,4 km/h (2 Bft) W-SW 247 0,000 mm -0,5 C 0,8 C 9,7 km/h (2 Bft) 100,00 %
14.04.2021 09:03 2,6 C 80 % 1029,4 hPa 0,0 l/m 9,7 km/h (2 Bft) W 270 0,000 mm -0,5 C -0,1 C 11,3 km/h (2 Bft) 100,00 %
14.04.2021 09:02 2,7 C 81 % 1029,3 hPa 0,0 l/m 9,7 km/h (2 Bft) W 270 0,000 mm -0,2 C -0,0 C 11,3 km/h (2 Bft) 100,00 %
14.04.2021 09:01 2,7 C 81 % 1029,4 hPa 0,0 l/m 8,0 km/h (2 Bft) W 270 0,000 mm -0,2 C 0,4 C 11,3 km/h (2 Bft) 100,00 %
14.04.2021 09:00 2,6 C 81 % 1029,4 hPa 0,0 l/m 6,4 km/h (2 Bft) W 270 0,000 mm -0,3 C 0,8 C 9,7 km/h (2 Bft) 100,00 %
14.04.2021 08:59 2,5 C 80 % 1029,3 hPa 0,0 l/m 6,4 km/h (2 Bft) W 270 0,000 mm -0,6 C 0,7 C 9,7 km/h (2 Bft) 100,00 %
14.04.2021 08:58 2,5 C 80 % 1029,3 hPa 0,0 l/m 4,8 km/h (1 Bft) W 270 0,000 mm -0,6 C 1,3 C 9,7 km/h (2 Bft) 100,00 %
14.04.2021 08:57 2,4 C 80 % 1029,3 hPa 0,0 l/m 6,4 km/h (2 Bft) W 270 0,000 mm -0,7 C 0,6 C 6,4 km/h (2 Bft) 100,00 %
14.04.2021 08:56 2,4 C 80 % 1029,4 hPa 0,0 l/m 8,0 km/h (2 Bft) W 270 0,000 mm -0,7 C 0,1 C 9,7 km/h (2 Bft) 100,00 %
14.04.2021 08:55 2,3 C 80 % 1029,3 hPa 0,0 l/m 8,0 km/h (2 Bft) W 270 0,000 mm -0,8 C -0,0 C 11,3 km/h (2 Bft) 100,00 %
14.04.2021 08:54 2,4 C 80 % 1029,3 hPa 0,0 l/m 11,3 km/h (2 Bft) W 270 0,000 mm -0,7 C -0,7 C 14,5 km/h (3 Bft) 100,00 %
14.04.2021 08:53 2,4 C 81 % 1029,3 hPa 0,0 l/m 6,4 km/h (2 Bft) W 270 0,000 mm -0,5 C 0,6 C 9,7 km/h (2 Bft) 100,00 %
14.04.2021 08:52 2,3 C 81 % 1029,3 hPa 0,0 l/m 4,8 km/h (1 Bft) W 270 0,000 mm -0,6 C 1,1 C 6,4 km/h (2 Bft) 100,00 %
14.04.2021 08:51 2,2 C 81 % 1029,3 hPa 0,0 l/m 8,0 km/h (2 Bft) W 270 0,000 mm -0,7 C -0,2 C 12,9 km/h (3 Bft) 100,00 %
14.04.2021 08:50 2,2 C 81 % 1029,4 hPa 0,0 l/m 8,0 km/h (2 Bft) W 270 0,000 mm -0,7 C -0,2 C 11,3 km/h (2 Bft) 100,00 %
14.04.2021 08:49 2,1 C 81 % 1029,4 hPa 0,0 l/m 6,4 km/h (2 Bft) W 270 0,000 mm -0,8 C 0,2 C 9,7 km/h (2 Bft) 100,00 %
14.04.2021 08:48 2,1 C 81 % 1029,3 hPa 0,0 l/m 9,7 km/h (2 Bft) W 270 0,000 mm -0,8 C -0,7 C 11,3 km/h (2 Bft) 100,00 %
14.04.2021 08:47 2,1 C 81 % 1029,3 hPa 0,0 l/m 4,8 km/h (1 Bft) W 270 0,000 mm -0,8 C 0,9 C 6,4 km/h (2 Bft) 100,00 %
14.04.2021 08:46 2,0 C 81 % 1029,3 hPa 0,0 l/m 4,8 km/h (1 Bft) W 270 0,000 mm -0,9 C 0,8 C 6,4 km/h (2 Bft) 100,00 %
14.04.2021 08:45 1,9 C 81 % 1029,3 hPa 0,0 l/m 4,8 km/h (1 Bft) W 270 0,000 mm -1,0 C 0,7 C 9,7 km/h (2 Bft) 100,00 %
14.04.2021 08:44 1,9 C 81 % 1029,3 hPa 0,0 l/m 8,0 km/h (2 Bft) W 270 0,000 mm -1,0 C -0,5 C 12,9 km/h (3 Bft) 100,00 %
14.04.2021 08:43 1,9 C 81 % 1029,3 hPa 0,0 l/m 8,0 km/h (2 Bft) W 270 0,000 mm -1,0 C -0,5 C 11,3 km/h (2 Bft) 100,00 %
14.04.2021 08:42 1,9 C 81 % 1029,3 hPa 0,0 l/m 6,4 km/h (2 Bft) W 270 0,000 mm -1,0 C 0,0 C 9,7 km/h (2 Bft) 100,00 %
14.04.2021 08:41 1,9 C 82 % 1029,2 hPa 0,0 l/m 9,7 km/h (2 Bft) W-SW 247 0,000 mm -0,8 C -1,0 C 12,9 km/h (3 Bft) 100,00 %
14.04.2021 08:40 1,9 C 82 % 1029,3 hPa 0,0 l/m 6,4 km/h (2 Bft) W-NW 292 0,000 mm -0,8 C 0,0 C 11,3 km/h (2 Bft) 100,00 %
14.04.2021 08:39 1,8 C 82 % 1029,2 hPa 0,0 l/m 6,4 km/h (2 Bft) W 270 0,000 mm -0,9 C -0,1 C 9,7 km/h (2 Bft) 100,00 %
14.04.2021 08:38 1,8 C 82 % 1029,2 hPa 0,0 l/m 4,8 km/h (1 Bft) W-SW 247 0,000 mm -0,9 C 0,5 C 9,7 km/h (2 Bft) 100,00 %
14.04.2021 08:37 1,8 C 82 % 1029,3 hPa 0,0 l/m 4,8 km/h (1 Bft) W 270 0,000 mm -0,9 C 0,5 C 9,7 km/h (2 Bft) 100,00 %
14.04.2021 08:36 1,8 C 82 % 1029,3 hPa 0,0 l/m 4,8 km/h (1 Bft) W 270 0,000 mm -0,9 C 0,5 C 6,4 km/h (2 Bft) 100,00 %
14.04.2021 08:35 1,7 C 82 % 1029,2 hPa 0,0 l/m 4,8 km/h (1 Bft) W 270 0,000 mm -1,0 C 0,4 C 6,4 km/h (2 Bft) 100,00 %
14.04.2021 08:34 1,7 C 82 % 1029,3 hPa 0,0 l/m 4,8 km/h (1 Bft) W 270 0,000 mm -1,0 C 0,4 C 6,4 km/h (2 Bft) 100,00 %
14.04.2021 08:33 1,7 C 82 % 1029,3 hPa 0,0 l/m 4,8 km/h (1 Bft) W 270 0,000 mm -1,0 C 0,4 C 6,4 km/h (2 Bft) 100,00 %
14.04.2021 08:32 1,7 C 83 % 1029,4 hPa 0,0 l/m 4,8 km/h (1 Bft) W 270 0,000 mm -0,9 C 0,4 C 6,4 km/h (2 Bft) 100,00 %
14.04.2021 08:31 1,7 C 83 % 1029,3 hPa 0,0 l/m 4,8 km/h (1 Bft) W-NW 292 0,000 mm -0,9 C 0,4 C 6,4 km/h (2 Bft) 100,00 %
14.04.2021 08:30 1,6 C 82 % 1029,4 hPa 0,0 l/m 3,2 km/h (1 Bft) W 270 0,000 mm -1,1 C 1,6 C 4,8 km/h (1 Bft) 100,00 %
14.04.2021 08:29 1,5 C 82 % 1029,4 hPa 0,0 l/m 4,8 km/h (1 Bft) W 270 0,000 mm -1,2 C 0,2 C 6,4 km/h (2 Bft) 100,00 %
14.04.2021 08:28 1,5 C 82 % 1029,3 hPa 0,0 l/m 4,8 km/h (1 Bft) W 270 0,000 mm -1,2 C 0,2 C 6,4 km/h (2 Bft) 100,00 %
14.04.2021 08:27 1,5 C 82 % 1029,3 hPa 0,0 l/m 4,8 km/h (1 Bft) W 270 0,000 mm -1,2 C 0,2 C 6,4 km/h (2 Bft) 100,00 %
14.04.2021 08:26 1,6 C 83 % 1029,4 hPa 0,0 l/m 8,0 km/h (2 Bft) W 270 0,000 mm -1,0 C -0,9 C 9,7 km/h (2 Bft) 100,00 %
14.04.2021 08:25 1,6 C 83 % 1029,5 hPa 0,0 l/m 4,8 km/h (1 Bft) W 270 0,000 mm -1,0 C 0,3 C 6,4 km/h (2 Bft) 100,00 %
14.04.2021 08:24 1,5 C 83 % 1029,4 hPa 0,0 l/m 4,8 km/h (1 Bft) W 270 0,000 mm -1,1 C 0,2 C 6,4 km/h (2 Bft) 100,00 %
14.04.2021 08:23 1,5 C 83 % 1029,3 hPa 0,0 l/m 4,8 km/h (1 Bft) W 270 0,000 mm -1,1 C 0,2 C 9,7 km/h (2 Bft) 100,00 %
14.04.2021 08:22 1,4 C 83 % 1029,4 hPa 0,0 l/m 4,8 km/h (1 Bft) W 270 0,000 mm -1,2 C 0,1 C 6,4 km/h (2 Bft) 100,00 %
14.04.2021 08:21 1,4 C 83 % 1029,3 hPa 0,0 l/m 4,8 km/h (1 Bft) W-SW 247 0,000 mm -1,2 C 0,1 C 6,4 km/h (2 Bft) 100,00 %
14.04.2021 08:20 1,4 C 83 % 1029,3 hPa 0,0 l/m 4,8 km/h (1 Bft) W-SW 247 0,000 mm -1,2 C 0,1 C 6,4 km/h (2 Bft) 100,00 %
14.04.2021 08:19 1,3 C 84 % 1029,3 hPa 0,0 l/m 3,2 km/h (1 Bft) W-SW 247 0,000 mm -1,1 C 1,3 C 6,4 km/h (2 Bft) 100,00 %
14.04.2021 08:18 1,3 C 83 % 1029,2 hPa 0,0 l/m 3,2 km/h (1 Bft) W-SW 247 0,000 mm -1,3 C 1,3 C 4,8 km/h (1 Bft) 100,00 %
14.04.2021 08:17 1,3 C 83 % 1029,2 hPa 0,0 l/m 8,0 km/h (2 Bft) W-SW 247 0,000 mm -1,3 C -1,2 C 11,3 km/h (2 Bft) 100,00 %
14.04.2021 08:16 1,3 C 83 % 1029,2 hPa 0,0 l/m 6,4 km/h (2 Bft) W 270 0,000 mm -1,3 C -0,7 C 11,3 km/h (2 Bft) 100,00 %
14.04.2021 08:15 1,2 C 83 % 1029,2 hPa 0,0 l/m 9,7 km/h (2 Bft) W 270 0,000 mm -1,4 C -1,8 C 11,3 km/h (2 Bft) 100,00 %
14.04.2021 08:14 1,2 C 83 % 1029,3 hPa 0,0 l/m 8,0 km/h (2 Bft) W-SW 247 0,000 mm -1,4 C -1,3 C 12,9 km/h (3 Bft) 100,00 %
14.04.2021 08:13 1,1 C 83 % 1029,4 hPa 0,0 l/m 9,7 km/h (2 Bft) W 270 0,000 mm -1,5 C -1,9 C 12,9 km/h (3 Bft) 100,00 %
14.04.2021 08:12 1,1 C 84 % 1029,3 hPa 0,0 l/m 9,7 km/h (2 Bft) W-SW 247 0,000 mm -1,3 C -1,9 C 12,9 km/h (3 Bft) 100,00 %
14.04.2021 08:11 1,1 C 84 % 1029,4 hPa 0,0 l/m 8,0 km/h (2 Bft) W-SW 247 0,000 mm -1,3 C -1,4 C 11,3 km/h (2 Bft) 100,00 %
14.04.2021 08:10 1,1 C 84 % 1029,5 hPa 0,0 l/m 9,7 km/h (2 Bft) W-SW 247 0,000 mm -1,3 C -1,9 C 12,9 km/h (3 Bft) 100,00 %
14.04.2021 08:09 1,1 C 83 % 1029,5 hPa 0,0 l/m 8,0 km/h (2 Bft) W-SW 247 0,000 mm -1,5 C -1,4 C 11,3 km/h (2 Bft) 100,00 %
14.04.2021 08:08 1,0 C 83 % 1029,5 hPa 0,0 l/m 6,4 km/h (2 Bft) W-SW 247 0,000 mm -1,6 C -1,0 C 11,3 km/h (2 Bft) 100,00 %
14.04.2021 08:07 1,1 C 83 % 1029,4 hPa 0,0 l/m 8,0 km/h (2 Bft) W-SW 247 0,000 mm -1,5 C -1,4 C 11,3 km/h (2 Bft) 100,00 %
14.04.2021 08:06 1,1 C 83 % 1029,5 hPa 0,0 l/m 4,8 km/h (1 Bft) W 270 0,000 mm -1,5 C -0,2 C 9,7 km/h (2 Bft) 100,00 %
14.04.2021 08:05 1,0 C 83 % 1029,5 hPa 0,0 l/m 4,8 km/h (1 Bft) W 270 0,000 mm -1,6 C -0,4 C 8,0 km/h (2 Bft) 100,00 %
14.04.2021 08:04 1,0 C 83 % 1029,4 hPa 0,0 l/m 6,4 km/h (2 Bft) W 270 0,000 mm -1,6 C -1,0 C 8,0 km/h (2 Bft) 100,00 %
14.04.2021 08:03 1,0 C 83 % 1029,3 hPa 0,0 l/m 6,4 km/h (2 Bft) W 270 0,000 mm -1,6 C -1,0 C 9,7 km/h (2 Bft) 100,00 %
14.04.2021 08:02 1,0 C 83 % 1029,3 hPa 0,0 l/m 8,0 km/h (2 Bft) W 270 0,000 mm -1,6 C -1,6 C 11,3 km/h (2 Bft) 100,00 %
14.04.2021 08:01 1,0 C 83 % 1029,3 hPa 0,0 l/m 8,0 km/h (2 Bft) W 270 0,000 mm -1,6 C -1,6 C 11,3 km/h (2 Bft) 100,00 %
14.04.2021 08:00 1,0 C 83 % 1029,4 hPa 0,0 l/m 6,4 km/h (2 Bft) W 270 0,000 mm -1,6 C -1,0 C 9,7 km/h (2 Bft) 100,00 %
14.04.2021 07:59 1,0 C 83 % 1029,3 hPa 0,0 l/m 4,8 km/h (1 Bft) W 270 0,000 mm -1,6 C -0,4 C 6,4 km/h (2 Bft) 100,00 %
14.04.2021 07:58 1,0 C 83 % 1029,3 hPa 0,0 l/m 6,4 km/h (2 Bft) W 270 0,000 mm -1,6 C -1,0 C 9,7 km/h (2 Bft) 100,00 %
14.04.2021 07:57 0,9 C 83 % 1029,3 hPa 0,0 l/m 9,7 km/h (2 Bft) W 270 0,000 mm -1,7 C -2,2 C 11,3 km/h (2 Bft) 100,00 %
14.04.2021 07:56 1,0 C 83 % 1029,2 hPa 0,0 l/m 6,4 km/h (2 Bft) W 270 0,000 mm -1,6 C -1,0 C 11,3 km/h (2 Bft) 100,00 %
14.04.2021 07:55 1,0 C 84 % 1029,2 hPa 0,0 l/m 6,4 km/h (2 Bft) W 270 0,000 mm -1,4 C -1,0 C 9,7 km/h (2 Bft) 100,00 %
14.04.2021 07:54 1,0 C 84 % 1029,2 hPa 0,0 l/m 6,4 km/h (2 Bft) W 270 0,000 mm -1,4 C -1,0 C 9,7 km/h (2 Bft) 100,00 %
14.04.2021 07:53 1,0 C 84 % 1029,2 hPa 0,0 l/m 8,0 km/h (2 Bft) W-SW 247 0,000 mm -1,4 C -1,6 C 11,3 km/h (2 Bft) 100,00 %
14.04.2021 07:52 0,9 C 84 % 1029,3 hPa 0,0 l/m 8,0 km/h (2 Bft) W 270 0,000 mm -1,5 C -1,7 C 11,3 km/h (2 Bft) 100,00 %
14.04.2021 07:51 0,9 C 84 % 1029,2 hPa 0,0 l/m 6,4 km/h (2 Bft) W 270 0,000 mm -1,5 C -1,1 C 9,7 km/h (2 Bft) 100,00 %
14.04.2021 07:50 0,9 C 84 % 1029,2 hPa 0,0 l/m 8,0 km/h (2 Bft) W 270 0,000 mm -1,5 C -1,7 C 11,3 km/h (2 Bft) 100,00 %
14.04.2021 07:49 0,9 C 84 % 1029,2 hPa 0,0 l/m 8,0 km/h (2 Bft) W-SW 247 0,000 mm -1,5 C -1,7 C 11,3 km/h (2 Bft) 100,00 %
14.04.2021 07:48 0,9 C 84 % 1029,2 hPa 0,0 l/m 6,4 km/h (2 Bft) W-SW 247 0,000 mm -1,5 C -1,1 C 9,7 km/h (2 Bft) 100,00 %
14.04.2021 07:47 0,9 C 84 % 1029,2 hPa 0,0 l/m 6,4 km/h (2 Bft) W 270 0,000 mm -1,5 C -1,1 C 9,7 km/h (2 Bft) 100,00 %
14.04.2021 07:46 0,8 C 84 % 1029,2 hPa 0,0 l/m 8,0 km/h (2 Bft) W 270 0,000 mm -1,6 C -1,8 C 11,3 km/h (2 Bft) 100,00 %
14.04.2021 07:45 0,8 C 84 % 1029,2 hPa 0,0 l/m 6,4 km/h (2 Bft) W-SW 247 0,000 mm -1,6 C -1,3 C 9,7 km/h (2 Bft) 100,00 %
14.04.2021 07:44 0,8 C 84 % 1029,2 hPa 0,0 l/m 6,4 km/h (2 Bft) W 270 0,000 mm -1,6 C -1,3 C 9,7 km/h (2 Bft) 100,00 %
14.04.2021 07:43 0,7 C 84 % 1029,2 hPa 0,0 l/m 8,0 km/h (2 Bft) W 270 0,000 mm -1,7 C -1,9 C 9,7 km/h (2 Bft) 100,00 %
14.04.2021 07:42 0,7 C 84 % 1029,2 hPa 0,0 l/m 6,4 km/h (2 Bft) W 270 0,000 mm -1,7 C -1,4 C 9,7 km/h (2 Bft) 100,00 %
14.04.2021 07:41 0,7 C 84 % 1029,2 hPa 0,0 l/m 6,4 km/h (2 Bft) W-SW 247 0,000 mm -1,7 C -1,4 C 9,7 km/h (2 Bft) 100,00 %
14.04.2021 07:40 0,7 C 84 % 1029,2 hPa 0,0 l/m 4,8 km/h (1 Bft) W-SW 247 0,000 mm -1,7 C -0,7 C 6,4 km/h (2 Bft) 100,00 %
14.04.2021 07:39 0,7 C 84 % 1029,2 hPa 0,0 l/m 4,8 km/h (1 Bft) W-SW 247 0,000 mm -1,7 C -0,7 C 6,4 km/h (2 Bft) 100,00 %
14.04.2021 07:38 0,7 C 84 % 1029,3 hPa 0,0 l/m 4,8 km/h (1 Bft) W-SW 247 0,000 mm -1,7 C -0,7 C 4,8 km/h (1 Bft) 100,00 %
14.04.2021 07:37 0,6 C 84 % 1029,3 hPa 0,0 l/m 4,8 km/h (1 Bft) W-SW 247 0,000 mm -1,8 C -0,8 C 6,4 km/h (2 Bft) 100,00 %
14.04.2021 07:36 0,6 C 84 % 1029,3 hPa 0,0 l/m 4,8 km/h (1 Bft) W-SW 247 0,000 mm -1,8 C -0,8 C 4,8 km/h (1 Bft) 100,00 %
14.04.2021 07:35 0,6 C 84 % 1029,2 hPa 0,0 l/m 4,8 km/h (1 Bft) W-SW 247 0,000 mm -1,8 C -0,8 C 6,4 km/h (2 Bft) 100,00 %
14.04.2021 07:34 0,6 C 84 % 1029,2 hPa 0,0 l/m 3,2 km/h (1 Bft) W-SW 247 0,000 mm -1,8 C 0,6 C 4,8 km/h (1 Bft) 100,00 %
14.04.2021 07:33 0,6 C 84 % 1029,2 hPa 0,0 l/m 4,8 km/h (1 Bft) W-SW 247 0,000 mm -1,8 C -0,8 C 6,4 km/h (2 Bft) 100,00 %
14.04.2021 07:32 0,6 C 85 % 1029,2 hPa 0,0 l/m 4,8 km/h (1 Bft) W-SW 247 0,000 mm -1,6 C -0,8 C 6,4 km/h (2 Bft) 100,00 %
14.04.2021 07:31 0,6 C 85 % 1029,3 hPa 0,0 l/m 6,4 km/h (2 Bft) W-SW 247 0,000 mm -1,6 C -1,5 C 8,0 km/h (2 Bft) 100,00 %
14.04.2021 07:30 0,5 C 85 % 1029,2 hPa 0,0 l/m 4,8 km/h (1 Bft) W-SW 247 0,000 mm -1,7 C -0,9 C 6,4 km/h (2 Bft) 100,00 %
14.04.2021 07:29 0,6 C 85 % 1029,2 hPa 0,0 l/m 4,8 km/h (1 Bft) W-SW 247 0,000 mm -1,6 C -0,8 C 6,4 km/h (2 Bft) 100,00 %
14.04.2021 07:28 0,5 C 85 % 1029,2 hPa 0,0 l/m 4,8 km/h (1 Bft) W-SW 247 0,000 mm -1,7 C -0,9 C 6,4 km/h (2 Bft) 100,00 %
14.04.2021 07:27 0,5 C 85 % 1029,2 hPa 0,0 l/m 4,8 km/h (1 Bft) W-SW 247 0,000 mm -1,7 C -0,9 C 6,4 km/h (2 Bft) 100,00 %
14.04.2021 07:26 0,4 C 85 % 1029,3 hPa 0,0 l/m 4,8 km/h (1 Bft) W-SW 247 0,000 mm -1,8 C -1,0 C 6,4 km/h (2 Bft) 100,00 %
14.04.2021 07:25 0,4 C 85 % 1029,2 hPa 0,0 l/m 4,8 km/h (1 Bft) W-SW 247 0,000 mm -1,8 C -1,0 C 6,4 km/h (2 Bft) 100,00 %
14.04.2021 07:24 0,4 C 85 % 1029,2 hPa 0,0 l/m 4,8 km/h (1 Bft) W-SW 247 0,000 mm -1,8 C -1,0 C 6,4 km/h (2 Bft) 100,00 %
14.04.2021 07:23 0,4 C 85 % 1029,2 hPa 0,0 l/m 4,8 km/h (1 Bft) W-SW 247 0,000 mm -1,8 C -1,0 C 6,4 km/h (2 Bft) 100,00 %
14.04.2021 07:22 0,3 C 85 % 1029,2 hPa 0,0 l/m 4,8 km/h (1 Bft) W-SW 247 0,000 mm -1,9 C -1,2 C 6,4 km/h (2 Bft) 100,00 %
14.04.2021 07:21 0,3 C 86 % 1029,2 hPa 0,0 l/m 4,8 km/h (1 Bft) W-SW 247 0,000 mm -1,8 C -1,2 C 6,4 km/h (2 Bft) 100,00 %
14.04.2021 07:20 0,3 C 85 % 1029,2 hPa 0,0 l/m 6,4 km/h (2 Bft) W-SW 247 0,000 mm -1,9 C -1,8 C 8,0 km/h (2 Bft) 100,00 %
14.04.2021 07:19 0,3 C 86 % 1029,2 hPa 0,0 l/m 4,8 km/h (1 Bft) W-SW 247 0,000 mm -1,8 C -1,2 C 6,4 km/h (2 Bft) 100,00 %
14.04.2021 07:18 0,3 C 86 % 1029,2 hPa 0,0 l/m 4,8 km/h (1 Bft) W-SW 247 0,000 mm -1,8 C -1,2 C 6,4 km/h (2 Bft) 100,00 %
14.04.2021 07:17 0,3 C 86 % 1029,2 hPa 0,0 l/m 4,8 km/h (1 Bft) W-SW 247 0,000 mm -1,8 C -1,2 C 4,8 km/h (1 Bft) 100,00 %
14.04.2021 07:16 0,3 C 86 % 1029,2 hPa 0,0 l/m 4,8 km/h (1 Bft) W-SW 247 0,000 mm -1,8 C -1,2 C 6,4 km/h (2 Bft) 100,00 %
14.04.2021 07:15 0,2 C 86 % 1029,1 hPa 0,0 l/m 3,2 km/h (1 Bft) W-SW 247 0,000 mm -1,9 C 0,2 C 4,8 km/h (1 Bft) 100,00 %
14.04.2021 07:14 0,2 C 86 % 1029,1 hPa 0,0 l/m 4,8 km/h (1 Bft) W-SW 247 0,000 mm -1,9 C -1,3 C 6,4 km/h (2 Bft) 100,00 %
14.04.2021 07:13 0,2 C 86 % 1029,2 hPa 0,0 l/m 4,8 km/h (1 Bft) W-SW 247 0,000 mm -1,9 C -1,3 C 4,8 km/h (1 Bft) 100,00 %
14.04.2021 07:12 0,2 C 86 % 1029,1 hPa 0,0 l/m 4,8 km/h (1 Bft) W-SW 247 0,000 mm -1,9 C -1,3 C 4,8 km/h (1 Bft) 100,00 %
14.04.2021 07:11 0,2 C 86 % 1029,1 hPa 0,0 l/m 4,8 km/h (1 Bft) W-SW 247 0,000 mm -1,9 C -1,3 C 4,8 km/h (1 Bft) 100,00 %
14.04.2021 07:10 0,1 C 86 % 1029,1 hPa 0,0 l/m 4,8 km/h (1 Bft) W-SW 247 0,000 mm -2,0 C -1,4 C 6,4 km/h (2 Bft) 100,00 %
14.04.2021 07:09 0,1 C 86 % 1029,0 hPa 0,0 l/m 3,2 km/h (1 Bft) W-SW 247 0,000 mm -2,0 C 0,1 C 4,8 km/h (1 Bft) 100,00 %
14.04.2021 07:08 0,1 C 86 % 1029,1 hPa 0,0 l/m 3,2 km/h (1 Bft) W-SW 247 0,000 mm -2,0 C 0,1 C 4,8 km/h (1 Bft) 100,00 %
14.04.2021 07:07 0,1 C 86 % 1029,0 hPa 0,0 l/m 8,0 km/h (2 Bft) W-SW 247 0,000 mm -2,0 C -2,6 C 11,3 km/h (2 Bft) 100,00 %
14.04.2021 07:06 0,1 C 85 % 1029,1 hPa 0,0 l/m 6,4 km/h (2 Bft) W-SW 247 0,000 mm -2,1 C -2,1 C 8,0 km/h (2 Bft) 100,00 %
14.04.2021 07:05 0,1 C 85 % 1029,1 hPa 0,0 l/m 6,4 km/h (2 Bft) W-SW 247 0,000 mm -2,1 C -2,1 C 6,4 km/h (2 Bft) 100,00 %
14.04.2021 07:04 0,1 C 85 % 1029,1 hPa 0,0 l/m 6,4 km/h (2 Bft) W-SW 247 0,000 mm -2,1 C -2,1 C 9,7 km/h (2 Bft) 100,00 %
14.04.2021 07:03 0,1 C 86 % 1029,1 hPa 0,0 l/m 6,4 km/h (2 Bft) W-SW 247 0,000 mm -2,0 C -2,1 C 6,4 km/h (2 Bft) 100,00 %
14.04.2021 07:02 0,0 C 86 % 1029,1 hPa 0,0 l/m 4,8 km/h (1 Bft) W-SW 247 0,000 mm -2,1 C -1,5 C 6,4 km/h (2 Bft) 100,00 %
14.04.2021 07:01 0,0 C 86 % 1029,0 hPa 0,0 l/m 6,4 km/h (2 Bft) W-SW 247 0,000 mm -2,1 C -2,2 C 9,7 km/h (2 Bft) 100,00 %
14.04.2021 07:00 0,0 C 85 % 1029,1 hPa 0,0 l/m 4,8 km/h (1 Bft) W-SW 247 0,000 mm -2,2 C -1,5 C 6,4 km/h (2 Bft) 100,00 %
14.04.2021 06:59 0,0 C 85 % 1029,0 hPa 0,0 l/m 6,4 km/h (2 Bft) W-SW 247 0,000 mm -2,2 C -2,2 C 6,4 km/h (2 Bft) 100,00 %
14.04.2021 06:58 0,0 C 85 % 1029,1 hPa 0,0 l/m 4,8 km/h (1 Bft) W-SW 247 0,000 mm -2,2 C -1,5 C 6,4 km/h (2 Bft) 100,00 %
14.04.2021 06:57 0,0 C 85 % 1029,0 hPa 0,0 l/m 4,8 km/h (1 Bft) W-SW 247 0,000 mm -2,2 C -1,5 C 6,4 km/h (2 Bft) 100,00 %
14.04.2021 06:56 0,0 C 85 % 1029,0 hPa 0,0 l/m 4,8 km/h (1 Bft) W-SW 247 0,000 mm -2,2 C -1,5 C 6,4 km/h (2 Bft) 100,00 %
14.04.2021 06:55 0,1 C 85 % 1029,0 hPa 0,0 l/m 4,8 km/h (1 Bft) W-SW 247 0,000 mm -2,1 C -1,4 C 6,4 km/h (2 Bft) 100,00 %
14.04.2021 06:54 0,1 C 85 % 1029,0 hPa 0,0 l/m 4,8 km/h (1 Bft) W-SW 247 0,000 mm -2,1 C -1,4 C 6,4 km/h (2 Bft) 100,00 %
14.04.2021 06:53 0,1 C 85 % 1029,0 hPa 0,0 l/m 6,4 km/h (2 Bft) W-SW 247 0,000 mm -2,1 C -2,1 C 8,0 km/h (2 Bft) 100,00 %
14.04.2021 06:52 0,1 C 85 % 1029,0 hPa 0,0 l/m 6,4 km/h (2 Bft) W-SW 247 0,000 mm -2,1 C -2,1 C 9,7 km/h (2 Bft) 100,00 %
14.04.2021 06:51 0,1 C 85 % 1029,0 hPa 0,0 l/m 4,8 km/h (1 Bft) W-SW 247 0,000 mm -2,1 C -1,4 C 6,4 km/h (2 Bft) 100,00 %
14.04.2021 06:50 0,1 C 85 % 1029,1 hPa 0,0 l/m 4,8 km/h (1 Bft) W-SW 247 0,000 mm -2,1 C -1,4 C 6,4 km/h (2 Bft) 100,00 %
14.04.2021 06:49 0,1 C 85 % 1029,0 hPa 0,0 l/m 6,4 km/h (2 Bft) W-SW 247 0,000 mm -2,1 C -2,1 C 8,0 km/h (2 Bft) 100,00 %
14.04.2021 06:48 0,1 C 86 % 1029,0 hPa 0,0 l/m 6,4 km/h (2 Bft) W-SW 247 0,000 mm -2,0 C -2,1 C 6,4 km/h (2 Bft) 100,00 %
14.04.2021 06:47 0,1 C 86 % 1029,1 hPa 0,0 l/m 6,4 km/h (2 Bft) W-SW 247 0,000 mm -2,0 C -2,1 C 6,4 km/h (2 Bft) 100,00 %
14.04.2021 06:46 0,1 C 86 % 1029,0 hPa 0,0 l/m 4,8 km/h (1 Bft) W-SW 247 0,000 mm -2,0 C -1,4 C 6,4 km/h (2 Bft) 100,00 %
14.04.2021 06:45 0,0 C 85 % 1029,0 hPa 0,0 l/m 4,8 km/h (1 Bft) W-SW 247 0,000 mm -2,2 C -1,5 C 6,4 km/h (2 Bft) 100,00 %
14.04.2021 06:44 0,1 C 86 % 1029,0 hPa 0,0 l/m 3,2 km/h (1 Bft) W-SW 247 0,000 mm -2,0 C 0,1 C 4,8 km/h (1 Bft) 100,00 %
14.04.2021 06:43 0,1 C 86 % 1029,0 hPa 0,0 l/m 3,2 km/h (1 Bft) W-SW 247 0,000 mm -2,0 C 0,1 C 4,8 km/h (1 Bft) 100,00 %
14.04.2021 06:42 0,1 C 86 % 1028,9 hPa 0,0 l/m 3,2 km/h (1 Bft) W-SW 247 0,000 mm -2,0 C 0,1 C 4,8 km/h (1 Bft) 100,00 %
14.04.2021 06:41 0,0 C 86 % 1029,0 hPa 0,0 l/m 4,8 km/h (1 Bft) W-SW 247 0,000 mm -2,1 C -1,5 C 6,4 km/h (2 Bft) 100,00 %
14.04.2021 06:40 0,1 C 86 % 1029,0 hPa 0,0 l/m 3,2 km/h (1 Bft) SW 225 0,000 mm -2,0 C 0,1 C 4,8 km/h (1 Bft) 100,00 %
14.04.2021 06:39 0,0 C 86 % 1029,0 hPa 0,0 l/m 4,8 km/h (1 Bft) SW 225 0,000 mm -2,1 C -1,5 C 6,4 km/h (2 Bft) 100,00 %
14.04.2021 06:38 0,1 C 86 % 1029,0 hPa 0,0 l/m 3,2 km/h (1 Bft) SW 225 0,000 mm -2,0 C 0,1 C 4,8 km/h (1 Bft) 100,00 %
14.04.2021 06:37 0,0 C 86 % 1029,0 hPa 0,0 l/m 3,2 km/h (1 Bft) SW 225 0,000 mm -2,1 C 0,0 C 4,8 km/h (1 Bft) 100,00 %
14.04.2021 06:36 0,0 C 86 % 1029,0 hPa 0,0 l/m 3,2 km/h (1 Bft) SW 225 0,000 mm -2,1 C 0,0 C 4,8 km/h (1 Bft) 100,00 %
14.04.2021 06:35 0,0 C 86 % 1029,0 hPa 0,0 l/m 4,8 km/h (1 Bft) SW 225 0,000 mm -2,1 C -1,5 C 6,4 km/h (2 Bft) 100,00 %
14.04.2021 06:34 0,1 C 86 % 1029,0 hPa 0,0 l/m 3,2 km/h (1 Bft) SW 225 0,000 mm -2,0 C 0,1 C 4,8 km/h (1 Bft) 100,00 %
14.04.2021 06:33 0,0 C 87 % 1028,9 hPa 0,0 l/m 1,6 km/h (1 Bft) SW 225 0,000 mm -1,9 C 0,0 C 3,2 km/h (1 Bft) 100,00 %
14.04.2021 06:32 0,0 C 87 % 1028,9 hPa 0,0 l/m 3,2 km/h (1 Bft) SW 225 0,000 mm -1,9 C 0,0 C 4,8 km/h (1 Bft) 100,00 %
14.04.2021 06:31 -0,1 C 87 % 1029,0 hPa 0,0 l/m 1,6 km/h (1 Bft) SW 225 0,000 mm -2,0 C -0,1 C 3,2 km/h (1 Bft) 100,00 %
14.04.2021 06:30 -0,1 C 87 % 1029,0 hPa 0,0 l/m 3,2 km/h (1 Bft) SW 225 0,000 mm -2,0 C -0,1 C 3,2 km/h (1 Bft) 100,00 %
14.04.2021 06:29 -0,1 C 87 % 1029,0 hPa 0,0 l/m 1,6 km/h (1 Bft) SW 225 0,000 mm -2,0 C -0,1 C 3,2 km/h (1 Bft) 100,00 %
14.04.2021 06:28 -0,1 C 86 % 1029,0 hPa 0,0 l/m 1,6 km/h (1 Bft) SW 225 0,000 mm -2,2 C -0,1 C 3,2 km/h (1 Bft) 100,00 %
14.04.2021 06:27 -0,1 C 87 % 1029,0 hPa 0,0 l/m 3,2 km/h (1 Bft) SW 225 0,000 mm -2,0 C -0,1 C 4,8 km/h (1 Bft) 100,00 %
14.04.2021 06:26 -0,1 C 87 % 1028,9 hPa 0,0 l/m 4,8 km/h (1 Bft) SW 225 0,000 mm -2,0 C -1,6 C 6,4 km/h (2 Bft) 100,00 %
14.04.2021 06:25 -0,1 C 86 % 1028,9 hPa 0,0 l/m 3,2 km/h (1 Bft) SW 225 0,000 mm -2,2 C -0,1 C 4,8 km/h (1 Bft) 100,00 %
14.04.2021 06:24 -0,1 C 86 % 1028,9 hPa 0,0 l/m 4,8 km/h (1 Bft) W-SW 247 0,000 mm -2,2 C -1,6 C 8,0 km/h (2 Bft) 100,00 %
14.04.2021 06:23 -0,2 C 86 % 1029,0 hPa 0,0 l/m 3,2 km/h (1 Bft) W-SW 247 0,000 mm -2,3 C -0,2 C 4,8 km/h (1 Bft) 100,00 %
14.04.2021 06:22 -0,1 C 86 % 1029,0 hPa 0,0 l/m 4,8 km/h (1 Bft) W-SW 247 0,000 mm -2,2 C -1,6 C 6,4 km/h (2 Bft) 100,00 %
14.04.2021 06:21 -0,1 C 86 % 1028,9 hPa 0,0 l/m 4,8 km/h (1 Bft) W-SW 247 0,000 mm -2,2 C -1,6 C 4,8 km/h (1 Bft) 100,00 %
14.04.2021 06:20 -0,1 C 86 % 1028,9 hPa 0,0 l/m 3,2 km/h (1 Bft) W-SW 247 0,000 mm -2,2 C -0,1 C 4,8 km/h (1 Bft) 100,00 %
14.04.2021 06:19 -0,2 C 86 % 1029,0 hPa 0,0 l/m 3,2 km/h (1 Bft) W-SW 247 0,000 mm -2,3 C -0,2 C 4,8 km/h (1 Bft) 100,00 %
14.04.2021 06:18 -0,1 C 86 % 1029,0 hPa 0,0 l/m 3,2 km/h (1 Bft) W-SW 247 0,000 mm -2,2 C -0,1 C 4,8 km/h (1 Bft) 100,00 %
14.04.2021 06:17 -0,1 C 86 % 1029,0 hPa 0,0 l/m 4,8 km/h (1 Bft) W-SW 247 0,000 mm -2,2 C -1,6 C 4,8 km/h (1 Bft) 100,00 %
14.04.2021 06:16 -0,1 C 86 % 1028,9 hPa 0,0 l/m 4,8 km/h (1 Bft) W-SW 247 0,000 mm -2,2 C -1,6 C 4,8 km/h (1 Bft) 100,00 %
14.04.2021 06:15 -0,1 C 86 % 1029,0 hPa 0,0 l/m 4,8 km/h (1 Bft) W-SW 247 0,000 mm -2,2 C -1,6 C 6,4 km/h (2 Bft) 100,00 %
14.04.2021 06:14 -0,1 C 86 % 1029,1 hPa 0,0 l/m 3,2 km/h (1 Bft) W-SW 247 0,000 mm -2,2 C -0,1 C 4,8 km/h (1 Bft) 100,00 %
14.04.2021 06:13 -0,1 C 86 % 1029,0 hPa 0,0 l/m 3,2 km/h (1 Bft) W-SW 247 0,000 mm -2,2 C -0,1 C 4,8 km/h (1 Bft) 100,00 %
14.04.2021 06:12 -0,1 C 86 % 1029,0 hPa 0,0 l/m 4,8 km/h (1 Bft) W-SW 247 0,000 mm -2,2 C -1,6 C 4,8 km/h (1 Bft) 100,00 %
14.04.2021 06:11 -0,1 C 86 % 1029,0 hPa 0,0 l/m 4,8 km/h (1 Bft) W-SW 247 0,000 mm -2,2 C -1,6 C 6,4 km/h (2 Bft) 100,00 %
14.04.2021 06:10 -0,1 C 86 % 1029,0 hPa 0,0 l/m 4,8 km/h (1 Bft) W-SW 247 0,000 mm -2,2 C -1,6 C 6,4 km/h (2 Bft) 100,00 %
14.04.2021 06:09 -0,1 C 86 % 1029,0 hPa 0,0 l/m 6,4 km/h (2 Bft) W-SW 247 0,000 mm -2,2 C -2,3 C 8,0 km/h (2 Bft) 100,00 %
14.04.2021 06:08 -0,1 C 86 % 1028,9 hPa 0,0 l/m 4,8 km/h (1 Bft) W-SW 247 0,000 mm -2,2 C -1,6 C 4,8 km/h (1 Bft) 100,00 %
14.04.2021 06:07 -0,1 C 86 % 1028,9 hPa 0,0 l/m 4,8 km/h (1 Bft) W-SW 247 0,000 mm -2,2 C -1,6 C 6,4 km/h (2 Bft) 100,00 %
14.04.2021 06:06 -0,1 C 87 % 1028,9 hPa 0,0 l/m 4,8 km/h (1 Bft) W-SW 247 0,000 mm -2,0 C -1,6 C 4,8 km/h (1 Bft) 100,00 %
14.04.2021 06:05 -0,1 C 86 % 1029,0 hPa 0,0 l/m 6,4 km/h (2 Bft) W-SW 247 0,000 mm -2,2 C -2,3 C 8,0 km/h (2 Bft) 100,00 %
14.04.2021 06:04 -0,1 C 86 % 1028,9 hPa 0,0 l/m 3,2 km/h (1 Bft) W-SW 247 0,000 mm -2,2 C -0,1 C 6,4 km/h (2 Bft) 100,00 %
14.04.2021 06:03 -0,1 C 87 % 1028,9 hPa 0,0 l/m 3,2 km/h (1 Bft) W-SW 247 0,000 mm -2,0 C -0,1 C 4,8 km/h (1 Bft) 100,00 %
14.04.2021 06:02 -0,1 C 86 % 1029,0 hPa 0,0 l/m 4,8 km/h (1 Bft) W-SW 247 0,000 mm -2,2 C -1,6 C 6,4 km/h (2 Bft) 100,00 %
14.04.2021 06:01 -0,1 C 87 % 1029,0 hPa 0,0 l/m 4,8 km/h (1 Bft) W-SW 247 0,000 mm -2,0 C -1,6 C 6,4 km/h (2 Bft) 100,00 %
14.04.2021 06:00 -0,1 C 86 % 1029,0 hPa 0,0 l/m 6,4 km/h (2 Bft) W-SW 247 0,000 mm -2,2 C -2,3 C 8,0 km/h (2 Bft) 100,00 %
14.04.2021 05:59 -0,1 C 86 % 1029,0 hPa 0,0 l/m 4,8 km/h (1 Bft) W-SW 247 0,000 mm -2,2 C -1,6 C 6,4 km/h (2 Bft) 100,00 %
14.04.2021 05:58 -0,1 C 86 % 1029,0 hPa 0,0 l/m 4,8 km/h (1 Bft) W-SW 247 0,000 mm -2,2 C -1,6 C 6,4 km/h (2 Bft) 100,00 %
14.04.2021 05:57 -0,1 C 86 % 1029,0 hPa 0,0 l/m 4,8 km/h (1 Bft) W-SW 247 0,000 mm -2,2 C -1,6 C 6,4 km/h (2 Bft) 100,00 %
14.04.2021 05:56 -0,1 C 86 % 1028,9 hPa 0,0 l/m 4,8 km/h (1 Bft) W-SW 247 0,000 mm -2,2 C -1,6 C 6,4 km/h (2 Bft) 100,00 %
14.04.2021 05:55 -0,1 C 86 % 1028,9 hPa 0,0 l/m 3,2 km/h (1 Bft) W-SW 247 0,000 mm -2,2 C -0,1 C 6,4 km/h (2 Bft) 100,00 %
14.04.2021 05:54 0,0 C 86 % 1028,9 hPa 0,0 l/m 3,2 km/h (1 Bft) W-SW 247 0,000 mm -2,1 C 0,0 C 4,8 km/h (1 Bft) 100,00 %
14.04.2021 05:53 0,0 C 86 % 1029,0 hPa 0,0 l/m 3,2 km/h (1 Bft) W-SW 247 0,000 mm -2,1 C 0,0 C 4,8 km/h (1 Bft) 100,00 %
14.04.2021 05:52 0,0 C 86 % 1029,0 hPa 0,0 l/m 4,8 km/h (1 Bft) W-SW 247 0,000 mm -2,1 C -1,5 C 6,4 km/h (2 Bft) 100,00 %
14.04.2021 05:51 0,1 C 86 % 1029,0 hPa 0,0 l/m 4,8 km/h (1 Bft) W-SW 247 0,000 mm -2,0 C -1,4 C 6,4 km/h (2 Bft) 100,00 %
14.04.2021 05:50 0,1 C 86 % 1029,0 hPa 0,0 l/m 4,8 km/h (1 Bft) W-SW 247 0,000 mm -2,0 C -1,4 C 6,4 km/h (2 Bft) 100,00 %
14.04.2021 05:49 0,1 C 86 % 1028,9 hPa 0,0 l/m 4,8 km/h (1 Bft) W-SW 247 0,000 mm -2,0 C -1,4 C 6,4 km/h (2 Bft) 100,00 %
14.04.2021 05:48 0,1 C 86 % 1029,0 hPa 0,0 l/m 4,8 km/h (1 Bft) W-SW 247 0,000 mm -2,0 C -1,4 C 6,4 km/h (2 Bft) 100,00 %
14.04.2021 05:47 0,0 C 86 % 1028,8 hPa 0,0 l/m 6,4 km/h (2 Bft) W-SW 247 0,000 mm -2,1 C -2,2 C 8,0 km/h (2 Bft) 100,00 %
14.04.2021 05:46 0,0 C 86 % 1029,0 hPa 0,0 l/m 6,4 km/h (2 Bft) W-SW 247 0,000 mm -2,1 C -2,2 C 8,0 km/h (2 Bft) 100,00 %
14.04.2021 05:45 0,0 C 86 % 1028,9 hPa 0,0 l/m 4,8 km/h (1 Bft) SW 225 0,000 mm -2,1 C -1,5 C 6,4 km/h (2 Bft) 100,00 %
14.04.2021 05:44 0,0 C 86 % 1029,0 hPa 0,0 l/m 6,4 km/h (2 Bft) SW 225 0,000 mm -2,1 C -2,2 C 8,0 km/h (2 Bft) 100,00 %
14.04.2021 05:43 0,0 C 86 % 1028,9 hPa 0,0 l/m 6,4 km/h (2 Bft) W-SW 247 0,000 mm -2,1 C -2,2 C 8,0 km/h (2 Bft) 100,00 %
14.04.2021 05:42 0,0 C 86 % 1029,0 hPa 0,0 l/m 4,8 km/h (1 Bft) W-SW 247 0,000 mm -2,1 C -1,5 C 6,4 km/h (2 Bft) 100,00 %
14.04.2021 05:41 0,1 C 86 % 1029,0 hPa 0,0 l/m 6,4 km/h (2 Bft) W-SW 247 0,000 mm -2,0 C -2,1 C 8,0 km/h (2 Bft) 100,00 %
14.04.2021 05:40 0,1 C 86 % 1029,0 hPa 0,0 l/m 6,4 km/h (2 Bft) W-SW 247 0,000 mm -2,0 C -2,1 C 8,0 km/h (2 Bft) 100,00 %
14.04.2021 05:39 0,1 C 86 % 1029,0 hPa 0,0 l/m 4,8 km/h (1 Bft) W-SW 247 0,000 mm -2,0 C -1,4 C 6,4 km/h (2 Bft) 100,00 %
14.04.2021 05:38 0,1 C 86 % 1028,9 hPa 0,0 l/m 4,8 km/h (1 Bft) W-SW 247 0,000 mm -2,0 C -1,4 C 6,4 km/h (2 Bft) 100,00 %
14.04.2021 05:37 0,1 C 86 % 1029,0 hPa 0,0 l/m 4,8 km/h (1 Bft) W-SW 247 0,000 mm -2,0 C -1,4 C 6,4 km/h (2 Bft) 100,00 %
14.04.2021 05:36 0,1 C 86 % 1028,9 hPa 0,0 l/m 6,4 km/h (2 Bft) W-SW 247 0,000 mm -2,0 C -2,1 C 8,0 km/h (2 Bft) 100,00 %
14.04.2021 05:35 0,1 C 86 % 1028,9 hPa 0,0 l/m 4,8 km/h (1 Bft) W-SW 247 0,000 mm -2,0 C -1,4 C 6,4 km/h (2 Bft) 100,00 %
14.04.2021 05:34 0,1 C 86 % 1029,0 hPa 0,0 l/m 4,8 km/h (1 Bft) W-SW 247 0,000 mm -2,0 C -1,4 C 6,4 km/h (2 Bft) 100,00 %
14.04.2021 05:33 0,1 C 86 % 1028,9 hPa 0,0 l/m 4,8 km/h (1 Bft) W-SW 247 0,000 mm -2,0 C -1,4 C 6,4 km/h (2 Bft) 100,00 %
14.04.2021 05:32 0,2 C 86 % 1028,9 hPa 0,0 l/m 4,8 km/h (1 Bft) W-SW 247 0,000 mm -1,9 C -1,3 C 6,4 km/h (2 Bft) 100,00 %
14.04.2021 05:31 0,2 C 86 % 1028,9 hPa 0,0 l/m 6,4 km/h (2 Bft) W-SW 247 0,000 mm -1,9 C -2,0 C 8,0 km/h (2 Bft) 100,00 %
14.04.2021 05:30 0,1 C 86 % 1028,9 hPa 0,0 l/m 6,4 km/h (2 Bft) W-SW 247 0,000 mm -2,0 C -2,1 C 8,0 km/h (2 Bft) 100,00 %
14.04.2021 05:29 0,1 C 86 % 1028,9 hPa 0,0 l/m 4,8 km/h (1 Bft) W-SW 247 0,000 mm -2,0 C -1,4 C 6,4 km/h (2 Bft) 100,00 %
14.04.2021 05:28 0,1 C 86 % 1029,0 hPa 0,0 l/m 4,8 km/h (1 Bft) W-SW 247 0,000 mm -2,0 C -1,4 C 6,4 km/h (2 Bft) 100,00 %
14.04.2021 05:27 0,2 C 86 % 1028,8 hPa 0,0 l/m 3,2 km/h (1 Bft) W-SW 247 0,000 mm -1,9 C 0,2 C 6,4 km/h (2 Bft) 100,00 %
14.04.2021 05:26 0,2 C 86 % 1029,0 hPa 0,0 l/m 4,8 km/h (1 Bft) W-SW 247 0,000 mm -1,9 C -1,3 C 6,4 km/h (2 Bft) 100,00 %
14.04.2021 05:25 0,2 C 86 % 1028,9 hPa 0,0 l/m 4,8 km/h (1 Bft) W-SW 247 0,000 mm -1,9 C -1,3 C 6,4 km/h (2 Bft) 100,00 %
14.04.2021 05:24 0,2 C 86 % 1028,9 hPa 0,0 l/m 4,8 km/h (1 Bft) W-SW 247 0,000 mm -1,9 C -1,3 C 6,4 km/h (2 Bft) 100,00 %
14.04.2021 05:23 0,2 C 86 % 1028,9 hPa 0,0 l/m 6,4 km/h (2 Bft) W-SW 247 0,000 mm -1,9 C -2,0 C 8,0 km/h (2 Bft) 100,00 %
14.04.2021 05:22 0,2 C 86 % 1029,0 hPa 0,0 l/m 4,8 km/h (1 Bft) W-SW 247 0,000 mm -1,9 C -1,3 C 6,4 km/h (2 Bft) 100,00 %
14.04.2021 05:21 0,2 C 86 % 1029,0 hPa 0,0 l/m 4,8 km/h (1 Bft) W-SW 247 0,000 mm -1,9 C -1,3 C 4,8 km/h (1 Bft) 100,00 %
14.04.2021 05:20 0,2 C 86 % 1029,0 hPa 0,0 l/m 4,8 km/h (1 Bft) W-SW 247 0,000 mm -1,9 C -1,3 C 6,4 km/h (2 Bft) 100,00 %
14.04.2021 05:19 0,2 C 86 % 1029,0 hPa 0,0 l/m 6,4 km/h (2 Bft) W-SW 247 0,000 mm -1,9 C -2,0 C 9,7 km/h (2 Bft) 100,00 %
14.04.2021 05:18 0,2 C 86 % 1028,9 hPa 0,0 l/m 8,0 km/h (2 Bft) W-SW 247 0,000 mm -1,9 C -2,5 C 9,7 km/h (2 Bft) 100,00 %
14.04.2021 05:17 0,2 C 86 % 1029,0 hPa 0,0 l/m 6,4 km/h (2 Bft) W-SW 247 0,000 mm -1,9 C -2,0 C 11,3 km/h (2 Bft) 100,00 %
14.04.2021 05:16 0,2 C 87 % 1028,9 hPa 0,0 l/m 6,4 km/h (2 Bft) W-SW 247 0,000 mm -1,7 C -2,0 C 8,0 km/h (2 Bft) 100,00 %
14.04.2021 05:15 0,2 C 87 % 1028,9 hPa 0,0 l/m 6,4 km/h (2 Bft) W-SW 247 0,000 mm -1,7 C -2,0 C 11,3 km/h (2 Bft) 100,00 %
14.04.2021 05:14 0,2 C 87 % 1029,0 hPa 0,0 l/m 6,4 km/h (2 Bft) W-SW 247 0,000 mm -1,7 C -2,0 C 8,0 km/h (2 Bft) 100,00 %
14.04.2021 05:13 0,2 C 87 % 1028,9 hPa 0,0 l/m 6,4 km/h (2 Bft) W-SW 247 0,000 mm -1,7 C -2,0 C 9,7 km/h (2 Bft) 100,00 %
14.04.2021 05:12 0,2 C 87 % 1028,9 hPa 0,0 l/m 8,0 km/h (2 Bft) W-SW 247 0,000 mm -1,7 C -2,5 C 11,3 km/h (2 Bft) 100,00 %
14.04.2021 05:11 0,2 C 87 % 1028,9 hPa 0,0 l/m 6,4 km/h (2 Bft) W-SW 247 0,000 mm -1,7 C -2,0 C 8,0 km/h (2 Bft) 100,00 %
14.04.2021 05:10 0,2 C 87 % 1029,0 hPa 0,0 l/m 6,4 km/h (2 Bft) W-SW 247 0,000 mm -1,7 C -2,0 C 8,0 km/h (2 Bft) 100,00 %
14.04.2021 05:09 0,2 C 87 % 1029,0 hPa 0,0 l/m 6,4 km/h (2 Bft) W-SW 247 0,000 mm -1,7 C -2,0 C 6,4 km/h (2 Bft) 100,00 %
14.04.2021 05:08 0,2 C 87 % 1029,1 hPa 0,0 l/m 6,4 km/h (2 Bft) W 270 0,000 mm -1,7 C -2,0 C 6,4 km/h (2 Bft) 100,00 %
14.04.2021 05:07 0,2 C 87 % 1029,0 hPa 0,0 l/m 4,8 km/h (1 Bft) W 270 0,000 mm -1,7 C -1,3 C 6,4 km/h (2 Bft) 100,00 %
14.04.2021 05:06 0,2 C 87 % 1029,0 hPa 0,0 l/m 4,8 km/h (1 Bft) W 270 0,000 mm -1,7 C -1,3 C 6,4 km/h (2 Bft) 100,00 %
14.04.2021 05:05 0,2 C 87 % 1028,9 hPa 0,0 l/m 4,8 km/h (1 Bft) W 270 0,000 mm -1,7 C -1,3 C 6,4 km/h (2 Bft) 100,00 %
14.04.2021 05:04 0,2 C 87 % 1029,0 hPa 0,0 l/m 3,2 km/h (1 Bft) W 270 0,000 mm -1,7 C 0,2 C 4,8 km/h (1 Bft) 100,00 %
14.04.2021 05:03 0,2 C 87 % 1029,0 hPa 0,0 l/m 4,8 km/h (1 Bft) W 270 0,000 mm -1,7 C -1,3 C 4,8 km/h (1 Bft) 100,00 %
14.04.2021 05:02 0,2 C 87 % 1029,0 hPa 0,0 l/m 4,8 km/h (1 Bft) W 270 0,000 mm -1,7 C -1,3 C 4,8 km/h (1 Bft) 100,00 %
14.04.2021 05:01 0,2 C 87 % 1029,0 hPa 0,0 l/m 3,2 km/h (1 Bft) W 270 0,000 mm -1,7 C 0,2 C 4,8 km/h (1 Bft) 100,00 %
14.04.2021 05:00 0,2 C 87 % 1029,0 hPa 0,0 l/m 4,8 km/h (1 Bft) W 270 0,000 mm -1,7 C -1,3 C 4,8 km/h (1 Bft) 100,00 %
14.04.2021 04:59 0,2 C 87 % 1029,0 hPa 0,0 l/m 3,2 km/h (1 Bft) W 270 0,000 mm -1,7 C 0,2 C 6,4 km/h (2 Bft) 100,00 %
14.04.2021 04:58 0,2 C 87 % 1029,0 hPa 0,0 l/m 3,2 km/h (1 Bft) W 270 0,000 mm -1,7 C 0,2 C 4,8 km/h (1 Bft) 100,00 %
14.04.2021 04:57 0,3 C 87 % 1029,0 hPa 0,0 l/m 3,2 km/h (1 Bft) W 270 0,000 mm -1,6 C 0,3 C 4,8 km/h (1 Bft) 100,00 %
14.04.2021 04:56 0,3 C 87 % 1029,0 hPa 0,0 l/m 4,8 km/h (1 Bft) W 270 0,000 mm -1,6 C -1,2 C 4,8 km/h (1 Bft) 100,00 %
14.04.2021 04:55 0,3 C 87 % 1029,0 hPa 0,0 l/m 3,2 km/h (1 Bft) W 270 0,000 mm -1,6 C 0,3 C 4,8 km/h (1 Bft) 100,00 %
14.04.2021 04:54 0,3 C 87 % 1028,9 hPa 0,0 l/m 4,8 km/h (1 Bft) W 270 0,000 mm -1,6 C -1,2 C 4,8 km/h (1 Bft) 100,00 %
14.04.2021 04:53 0,3 C 87 % 1029,0 hPa 0,0 l/m 3,2 km/h (1 Bft) W-SW 247 0,000 mm -1,6 C 0,3 C 4,8 km/h (1 Bft) 100,00 %
14.04.2021 04:52 0,3 C 87 % 1029,0 hPa 0,0 l/m 3,2 km/h (1 Bft) W-SW 247 0,000 mm -1,6 C 0,3 C 4,8 km/h (1 Bft) 100,00 %
14.04.2021 04:51 0,3 C 87 % 1029,1 hPa 0,0 l/m 3,2 km/h (1 Bft) W-SW 247 0,000 mm -1,6 C 0,3 C 4,8 km/h (1 Bft) 100,00 %
14.04.2021 04:50 0,3 C 87 % 1029,0 hPa 0,0 l/m 4,8 km/h (1 Bft) W-SW 247 0,000 mm -1,6 C -1,2 C 4,8 km/h (1 Bft) 100,00 %
14.04.2021 04:49 0,4 C 87 % 1029,0 hPa 0,0 l/m 3,2 km/h (1 Bft) W-SW 247 0,000 mm -1,5 C 0,4 C 4,8 km/h (1 Bft) 100,00 %
14.04.2021 04:48 0,4 C 87 % 1029,0 hPa 0,0 l/m 4,8 km/h (1 Bft) W-SW 247 0,000 mm -1,5 C -1,0 C 6,4 km/h (2 Bft) 100,00 %
14.04.2021 04:47 0,3 C 87 % 1029,1 hPa 0,0 l/m 4,8 km/h (1 Bft) W-SW 247 0,000 mm -1,6 C -1,2 C 6,4 km/h (2 Bft) 100,00 %
14.04.2021 04:46 0,3 C 87 % 1029,0 hPa 0,0 l/m 4,8 km/h (1 Bft) W-SW 247 0,000 mm -1,6 C -1,2 C 6,4 km/h (2 Bft) 100,00 %
14.04.2021 04:45 0,3 C 87 % 1029,1 hPa 0,0 l/m 3,2 km/h (1 Bft) W 270 0,000 mm -1,6 C 0,3 C 4,8 km/h (1 Bft) 100,00 %
14.04.2021 04:44 0,4 C 87 % 1029,1 hPa 0,0 l/m 4,8 km/h (1 Bft) W 270 0,000 mm -1,5 C -1,0 C 6,4 km/h (2 Bft) 100,00 %
14.04.2021 04:43 0,3 C 87 % 1029,1 hPa 0,0 l/m 4,8 km/h (1 Bft) W 270 0,000 mm -1,6 C -1,2 C 6,4 km/h (2 Bft) 100,00 %
14.04.2021 04:42 0,3 C 87 % 1029,1 hPa 0,0 l/m 3,2 km/h (1 Bft) W 270 0,000 mm -1,6 C 0,3 C 4,8 km/h (1 Bft) 100,00 %
14.04.2021 04:41 0,3 C 87 % 1029,2 hPa 0,0 l/m 3,2 km/h (1 Bft) W 270 0,000 mm -1,6 C 0,3 C 4,8 km/h (1 Bft) 100,00 %
14.04.2021 04:40 0,3 C 87 % 1029,2 hPa 0,0 l/m 3,2 km/h (1 Bft) W 270 0,000 mm -1,6 C 0,3 C 4,8 km/h (1 Bft) 100,00 %
14.04.2021 04:39 0,3 C 87 % 1029,2 hPa 0,0 l/m 1,6 km/h (1 Bft) W 270 0,000 mm -1,6 C 0,3 C 3,2 km/h (1 Bft) 100,00 %
14.04.2021 04:38 0,3 C 87 % 1029,2 hPa 0,0 l/m 1,6 km/h (1 Bft) W 270 0,000 mm -1,6 C 0,3 C 3,2 km/h (1 Bft) 100,00 %
14.04.2021 04:37 0,3 C 87 % 1029,1 hPa 0,0 l/m 1,6 km/h (1 Bft) W 270 0,000 mm -1,6 C 0,3 C 3,2 km/h (1 Bft) 100,00 %
14.04.2021 04:36 0,3 C 87 % 1029,2 hPa 0,0 l/m 3,2 km/h (1 Bft) W 270 0,000 mm -1,6 C 0,3 C 3,2 km/h (1 Bft) 100,00 %
14.04.2021 04:35 0,3 C 87 % 1029,2 hPa 0,0 l/m 3,2 km/h (1 Bft) W 270 0,000 mm -1,6 C 0,3 C 3,2 km/h (1 Bft) 100,00 %
14.04.2021 04:34 0,3 C 87 % 1029,1 hPa 0,0 l/m 1,6 km/h (1 Bft) W 270 0,000 mm -1,6 C 0,3 C 3,2 km/h (1 Bft) 100,00 %
14.04.2021 04:33 0,4 C 87 % 1029,1 hPa 0,0 l/m 3,2 km/h (1 Bft) W 270 0,000 mm -1,5 C 0,4 C 3,2 km/h (1 Bft) 100,00 %
14.04.2021 04:32 0,4 C 87 % 1029,1 hPa 0,0 l/m 3,2 km/h (1 Bft) W 270 0,000 mm -1,5 C 0,4 C 3,2 km/h (1 Bft) 100,00 %
14.04.2021 04:31 0,4 C 87 % 1029,2 hPa 0,0 l/m 3,2 km/h (1 Bft) W 270 0,000 mm -1,5 C 0,4 C 3,2 km/h (1 Bft) 100,00 %
14.04.2021 04:30 0,3 C 87 % 1029,1 hPa 0,0 l/m 3,2 km/h (1 Bft) W-NW 292 0,000 mm -1,6 C 0,3 C 4,8 km/h (1 Bft) 100,00 %
14.04.2021 04:29 0,4 C 87 % 1029,1 hPa 0,0 l/m 1,6 km/h (1 Bft) W-NW 292 0,000 mm -1,5 C 0,4 C 3,2 km/h (1 Bft) 100,00 %
14.04.2021 04:28 0,4 C 87 % 1029,2 hPa 0,0 l/m 1,6 km/h (1 Bft) W-NW 292 0,000 mm -1,5 C 0,4 C 3,2 km/h (1 Bft) 100,00 %
14.04.2021 04:27 0,4 C 87 % 1029,2 hPa 0,0 l/m 1,6 km/h (1 Bft) W-NW 292 0,000 mm -1,5 C 0,4 C 3,2 km/h (1 Bft) 100,00 %
14.04.2021 04:26 0,4 C 87 % 1029,2 hPa 0,0 l/m 0,0 km/h (0 Bft) W-NW 292 0,000 mm -1,5 C 0,4 C 3,2 km/h (1 Bft) 100,00 %
14.04.2021 04:25 0,4 C 86 % 1029,2 hPa 0,0 l/m 0,0 km/h (0 Bft) N 0 0,000 mm -1,7 C 0,4 C 0,0 km/h (0 Bft) 100,00 %
14.04.2021 04:24 0,4 C 86 % 1029,2 hPa 0,0 l/m 0,0 km/h (0 Bft) N 0 0,000 mm -1,7 C 0,4 C 0,0 km/h (0 Bft) 100,00 %
14.04.2021 04:23 0,4 C 86 % 1029,2 hPa 0,0 l/m 0,0 km/h (0 Bft) N 0 0,000 mm -1,7 C 0,4 C 0,0 km/h (0 Bft) 100,00 %
14.04.2021 04:22 0,5 C 86 % 1029,2 hPa 0,0 l/m 0,0 km/h (0 Bft) N 0 0,000 mm -1,6 C 0,5 C 0,0 km/h (0 Bft) 100,00 %
14.04.2021 04:21 0,6 C 86 % 1029,1 hPa 0,0 l/m 0,0 km/h (0 Bft) N 0 0,000 mm -1,5 C 0,6 C 0,0 km/h (0 Bft) 100,00 %
14.04.2021 04:20 0,6 C 86 % 1029,2 hPa 0,0 l/m 0,0 km/h (0 Bft) N 0 0,000 mm -1,5 C 0,6 C 0,0 km/h (0 Bft) 100,00 %
14.04.2021 04:19 0,6 C 86 % 1029,2 hPa 0,0 l/m 0,0 km/h (0 Bft) N 0 0,000 mm -1,5 C 0,6 C 0,0 km/h (0 Bft) 100,00 %
14.04.2021 04:18 0,7 C 86 % 1029,2 hPa 0,0 l/m 0,0 km/h (0 Bft) N 0 0,000 mm -1,4 C 0,7 C 0,0 km/h (0 Bft) 100,00 %
14.04.2021 04:17 0,6 C 86 % 1029,1 hPa 0,0 l/m 1,6 km/h (1 Bft) W-NW 292 0,000 mm -1,5 C 0,6 C 3,2 km/h (1 Bft) 100,00 %
14.04.2021 04:16 0,7 C 86 % 1029,2 hPa 0,0 l/m 1,6 km/h (1 Bft) W-NW 292 0,000 mm -1,4 C 0,7 C 3,2 km/h (1 Bft) 100,00 %
14.04.2021 04:15 0,7 C 86 % 1029,2 hPa 0,0 l/m 1,6 km/h (1 Bft) W-NW 292 0,000 mm -1,4 C 0,7 C 3,2 km/h (1 Bft) 100,00 %
14.04.2021 04:14 0,7 C 86 % 1029,3 hPa 0,0 l/m 3,2 km/h (1 Bft) W-NW 292 0,000 mm -1,4 C 0,7 C 6,4 km/h (2 Bft) 100,00 %
14.04.2021 04:13 0,7 C 86 % 1029,2 hPa 0,0 l/m 3,2 km/h (1 Bft) W 270 0,000 mm -1,4 C 0,7 C 6,4 km/h (2 Bft) 100,00 %
14.04.2021 04:12 0,7 C 86 % 1029,2 hPa 0,0 l/m 4,8 km/h (1 Bft) W-NW 292 0,000 mm -1,4 C -0,7 C 9,7 km/h (2 Bft) 100,00 %
14.04.2021 04:11 0,7 C 87 % 1029,2 hPa 0,0 l/m 4,8 km/h (1 Bft) W 270 0,000 mm -1,2 C -0,7 C 6,4 km/h (2 Bft) 100,00 %
14.04.2021 04:10 0,7 C 87 % 1029,2 hPa 0,0 l/m 4,8 km/h (1 Bft) W 270 0,000 mm -1,2 C -0,7 C 6,4 km/h (2 Bft) 100,00 %
14.04.2021 04:09 0,7 C 87 % 1029,2 hPa 0,0 l/m 4,8 km/h (1 Bft) W 270 0,000 mm -1,2 C -0,7 C 6,4 km/h (2 Bft) 100,00 %
14.04.2021 04:08 0,7 C 87 % 1029,2 hPa 0,0 l/m 4,8 km/h (1 Bft) W 270 0,000 mm -1,2 C -0,7 C 6,4 km/h (2 Bft) 100,00 %
14.04.2021 04:07 0,7 C 86 % 1029,2 hPa 0,0 l/m 4,8 km/h (1 Bft) W 270 0,000 mm -1,4 C -0,7 C 6,4 km/h (2 Bft) 100,00 %
14.04.2021 04:06 0,8 C 87 % 1029,2 hPa 0,0 l/m 4,8 km/h (1 Bft) W 270 0,000 mm -1,1 C -0,6 C 6,4 km/h (2 Bft) 100,00 %
14.04.2021 04:05 0,7 C 87 % 1029,2 hPa 0,0 l/m 4,8 km/h (1 Bft) W 270 0,000 mm -1,2 C -0,7 C 6,4 km/h (2 Bft) 100,00 %
14.04.2021 04:04 0,7 C 87 % 1029,3 hPa 0,0 l/m 6,4 km/h (2 Bft) W 270 0,000 mm -1,2 C -1,4 C 9,7 km/h (2 Bft) 100,00 %
14.04.2021 04:03 0,8 C 87 % 1029,2 hPa 0,0 l/m 4,8 km/h (1 Bft) W 270 0,000 mm -1,1 C -0,6 C 6,4 km/h (2 Bft) 100,00 %
14.04.2021 04:02 0,8 C 87 % 1029,2 hPa 0,0 l/m 8,0 km/h (2 Bft) W 270 0,000 mm -1,1 C -1,8 C 9,7 km/h (2 Bft) 100,00 %
14.04.2021 04:01 0,8 C 87 % 1029,2 hPa 0,0 l/m 8,0 km/h (2 Bft) W 270 0,000 mm -1,1 C -1,8 C 11,3 km/h (2 Bft) 100,00 %
14.04.2021 04:00 0,8 C 87 % 1029,2 hPa 0,0 l/m 6,4 km/h (2 Bft) W 270 0,000 mm -1,1 C -1,3 C 11,3 km/h (2 Bft) 100,00 %
14.04.2021 03:59 0,8 C 87 % 1029,2 hPa 0,0 l/m 8,0 km/h (2 Bft) W 270 0,000 mm -1,1 C -1,8 C 11,3 km/h (2 Bft) 100,00 %
14.04.2021 03:58 0,8 C 87 % 1029,2 hPa 0,0 l/m 6,4 km/h (2 Bft) W 270 0,000 mm -1,1 C -1,3 C 11,3 km/h (2 Bft) 100,00 %
14.04.2021 03:57 0,8 C 87 % 1029,2 hPa 0,0 l/m 8,0 km/h (2 Bft) W 270 0,000 mm -1,1 C -1,8 C 11,3 km/h (2 Bft) 100,00 %
14.04.2021 03:56 0,8 C 87 % 1029,2 hPa 0,0 l/m 6,4 km/h (2 Bft) W-SW 247 0,000 mm -1,1 C -1,3 C 9,7 km/h (2 Bft) 100,00 %
14.04.2021 03:55 0,8 C 86 % 1029,2 hPa 0,0 l/m 6,4 km/h (2 Bft) W 270 0,000 mm -1,3 C -1,3 C 9,7 km/h (2 Bft) 100,00 %
14.04.2021 03:54 0,8 C 87 % 1029,2 hPa 0,0 l/m 6,4 km/h (2 Bft) W 270 0,000 mm -1,1 C -1,3 C 9,7 km/h (2 Bft) 100,00 %
14.04.2021 03:53 0,8 C 87 % 1029,2 hPa 0,0 l/m 4,8 km/h (1 Bft) W 270 0,000 mm -1,1 C -0,6 C 6,4 km/h (2 Bft) 100,00 %
14.04.2021 03:52 0,9 C 87 % 1029,2 hPa 0,0 l/m 6,4 km/h (2 Bft) W 270 0,000 mm -1,0 C -1,1 C 9,7 km/h (2 Bft) 100,00 %
14.04.2021 03:51 0,9 C 87 % 1029,2 hPa 0,0 l/m 6,4 km/h (2 Bft) W 270 0,000 mm -1,0 C -1,1 C 9,7 km/h (2 Bft) 100,00 %
14.04.2021 03:50 0,8 C 87 % 1029,2 hPa 0,0 l/m 9,7 km/h (2 Bft) W 270 0,000 mm -1,1 C -2,3 C 14,5 km/h (3 Bft) 100,00 %
14.04.2021 03:49 0,9 C 87 % 1029,2 hPa 0,0 l/m 9,7 km/h (2 Bft) W 270 0,000 mm -1,0 C -2,2 C 12,9 km/h (3 Bft) 100,00 %
14.04.2021 03:48 0,9 C 87 % 1029,2 hPa 0,0 l/m 9,7 km/h (2 Bft) W-SW 247 0,000 mm -1,0 C -2,2 C 11,3 km/h (2 Bft) 100,00 %
14.04.2021 03:47 0,9 C 87 % 1029,2 hPa 0,0 l/m 8,0 km/h (2 Bft) W-SW 247 0,000 mm -1,0 C -1,7 C 11,3 km/h (2 Bft) 100,00 %
14.04.2021 03:46 0,9 C 86 % 1029,3 hPa 0,0 l/m 6,4 km/h (2 Bft) W 270 0,000 mm -1,2 C -1,1 C 6,4 km/h (2 Bft) 100,00 %
14.04.2021 03:45 0,9 C 86 % 1029,2 hPa 0,0 l/m 8,0 km/h (2 Bft) W-SW 247 0,000 mm -1,2 C -1,7 C 11,3 km/h (2 Bft) 100,00 %
14.04.2021 03:44 0,9 C 86 % 1029,2 hPa 0,0 l/m 6,4 km/h (2 Bft) W 270 0,000 mm -1,2 C -1,1 C 9,7 km/h (2 Bft) 100,00 %
14.04.2021 03:43 0,9 C 86 % 1029,2 hPa 0,0 l/m 6,4 km/h (2 Bft) W-SW 247 0,000 mm -1,2 C -1,1 C 9,7 km/h (2 Bft) 100,00 %
14.04.2021 03:42 0,9 C 86 % 1029,2 hPa 0,0 l/m 6,4 km/h (2 Bft) W-SW 247 0,000 mm -1,2 C -1,1 C 9,7 km/h (2 Bft) 100,00 %
14.04.2021 03:41 0,9 C 86 % 1029,1 hPa 0,0 l/m 8,0 km/h (2 Bft) W 270 0,000 mm -1,2 C -1,7 C 9,7 km/h (2 Bft) 100,00 %
14.04.2021 03:40 0,9 C 86 % 1029,3 hPa 0,0 l/m 6,4 km/h (2 Bft) W 270 0,000 mm -1,2 C -1,1 C 11,3 km/h (2 Bft) 100,00 %
14.04.2021 03:39 0,9 C 86 % 1029,2 hPa 0,0 l/m 6,4 km/h (2 Bft) W 270 0,000 mm -1,2 C -1,1 C 9,7 km/h (2 Bft) 100,00 %
14.04.2021 03:38 0,9 C 86 % 1029,2 hPa 0,0 l/m 8,0 km/h (2 Bft) W 270 0,000 mm -1,2 C -1,7 C 11,3 km/h (2 Bft) 100,00 %
14.04.2021 03:37 0,9 C 86 % 1029,3 hPa 0,0 l/m 4,8 km/h (1 Bft) W 270 0,000 mm -1,2 C -0,5 C 6,4 km/h (2 Bft) 100,00 %
14.04.2021 03:36 0,9 C 86 % 1029,2 hPa 0,0 l/m 6,4 km/h (2 Bft) W 270 0,000 mm -1,2 C -1,1 C 9,7 km/h (2 Bft) 100,00 %
14.04.2021 03:35 1,0 C 86 % 1029,2 hPa 0,0 l/m 6,4 km/h (2 Bft) W-SW 247 0,000 mm -1,1 C -1,0 C 9,7 km/h (2 Bft) 100,00 %
14.04.2021 03:34 0,9 C 86 % 1029,1 hPa 0,0 l/m 6,4 km/h (2 Bft) W-SW 247 0,000 mm -1,2 C -1,1 C 9,7 km/h (2 Bft) 100,00 %
14.04.2021 03:33 0,9 C 86 % 1029,1 hPa 0,0 l/m 8,0 km/h (2 Bft) W-SW 247 0,000 mm -1,2 C -1,7 C 11,3 km/h (2 Bft) 100,00 %
14.04.2021 03:32 0,9 C 86 % 1029,2 hPa 0,0 l/m 4,8 km/h (1 Bft) W 270 0,000 mm -1,2 C -0,5 C 8,0 km/h (2 Bft) 100,00 %
14.04.2021 03:31 1,0 C 86 % 1029,3 hPa 0,0 l/m 4,8 km/h (1 Bft) W 270 0,000 mm -1,1 C -0,4 C 6,4 km/h (2 Bft) 100,00 %
14.04.2021 03:30 1,0 C 87 % 1029,2 hPa 0,0 l/m 4,8 km/h (1 Bft) W 270 0,000 mm -0,9 C -0,4 C 6,4 km/h (2 Bft) 100,00 %
14.04.2021 03:29 1,0 C 86 % 1029,2 hPa 0,0 l/m 4,8 km/h (1 Bft) W 270 0,000 mm -1,1 C -0,4 C 6,4 km/h (2 Bft) 100,00 %
14.04.2021 03:28 1,0 C 86 % 1029,2 hPa 0,0 l/m 6,4 km/h (2 Bft) W 270 0,000 mm -1,1 C -1,0 C 6,4 km/h (2 Bft) 100,00 %
14.04.2021 03:27 1,0 C 86 % 1029,2 hPa 0,0 l/m 4,8 km/h (1 Bft) W 270 0,000 mm -1,1 C -0,4 C 6,4 km/h (2 Bft) 100,00 %
14.04.2021 03:26 1,1 C 86 % 1029,2 hPa 0,0 l/m 4,8 km/h (1 Bft) W 270 0,000 mm -1,0 C -0,2 C 6,4 km/h (2 Bft) 100,00 %
14.04.2021 03:25 1,0 C 86 % 1029,3 hPa 0,0 l/m 4,8 km/h (1 Bft) W-SW 247 0,000 mm -1,1 C -0,4 C 6,4 km/h (2 Bft) 100,00 %
14.04.2021 03:24 1,0 C 86 % 1029,3 hPa 0,0 l/m 4,8 km/h (1 Bft) W-SW 247 0,000 mm -1,1 C -0,4 C 6,4 km/h (2 Bft) 100,00 %
14.04.2021 03:23 1,0 C 86 % 1029,2 hPa 0,0 l/m 6,4 km/h (2 Bft) W 270 0,000 mm -1,1 C -1,0 C 6,4 km/h (2 Bft) 100,00 %
14.04.2021 03:22 1,1 C 86 % 1029,2 hPa 0,0 l/m 4,8 km/h (1 Bft) W 270 0,000 mm -1,0 C -0,2 C 9,7 km/h (2 Bft) 100,00 %
14.04.2021 03:21 1,1 C 86 % 1029,2 hPa 0,0 l/m 6,4 km/h (2 Bft) W 270 0,000 mm -1,0 C -0,9 C 9,7 km/h (2 Bft) 100,00 %
14.04.2021 03:20 1,1 C 86 % 1029,2 hPa 0,0 l/m 4,8 km/h (1 Bft) W-SW 247 0,000 mm -1,0 C -0,2 C 6,4 km/h (2 Bft) 100,00 %
14.04.2021 03:19 1,1 C 86 % 1029,2 hPa 0,0 l/m 4,8 km/h (1 Bft) W 270 0,000 mm -1,0 C -0,2 C 9,7 km/h (2 Bft) 100,00 %
14.04.2021 03:18 1,1 C 86 % 1029,2 hPa 0,0 l/m 6,4 km/h (2 Bft) W 270 0,000 mm -1,0 C -0,9 C 11,3 km/h (2 Bft) 100,00 %
14.04.2021 03:17 1,1 C 86 % 1029,4 hPa 0,0 l/m 6,4 km/h (2 Bft) W 270 0,000 mm -1,0 C -0,9 C 9,7 km/h (2 Bft) 100,00 %
14.04.2021 03:16 1,1 C 86 % 1029,2 hPa 0,0 l/m 4,8 km/h (1 Bft) W 270 0,000 mm -1,0 C -0,2 C 8,0 km/h (2 Bft) 100,00 %
14.04.2021 03:15 1,1 C 86 % 1029,3 hPa 0,0 l/m 4,8 km/h (1 Bft) W 270 0,000 mm -1,0 C -0,2 C 4,8 km/h (1 Bft) 100,00 %
14.04.2021 03:14 1,1 C 86 % 1029,3 hPa 0,0 l/m 4,8 km/h (1 Bft) W 270 0,000 mm -1,0 C -0,2 C 6,4 km/h (2 Bft) 100,00 %
14.04.2021 03:13 1,1 C 86 % 1029,3 hPa 0,0 l/m 4,8 km/h (1 Bft) W 270 0,000 mm -1,0 C -0,2 C 6,4 km/h (2 Bft) 100,00 %
14.04.2021 03:12 1,1 C 86 % 1029,3 hPa 0,0 l/m 4,8 km/h (1 Bft) W-SW 247 0,000 mm -1,0 C -0,2 C 6,4 km/h (2 Bft) 100,00 %
14.04.2021 03:11 1,1 C 86 % 1029,4 hPa 0,0 l/m 6,4 km/h (2 Bft) W 270 0,000 mm -1,0 C -0,9 C 9,7 km/h (2 Bft) 100,00 %
14.04.2021 03:10 1,1 C 86 % 1029,4 hPa 0,0 l/m 4,8 km/h (1 Bft) W 270 0,000 mm -1,0 C -0,2 C 9,7 km/h (2 Bft) 100,00 %
14.04.2021 03:09 1,1 C 86 % 1029,4 hPa 0,0 l/m 4,8 km/h (1 Bft) W 270 0,000 mm -1,0 C -0,2 C 6,4 km/h (2 Bft) 100,00 %
14.04.2021 03:08 1,1 C 86 % 1029,4 hPa 0,0 l/m 6,4 km/h (2 Bft) W 270 0,000 mm -1,0 C -0,9 C 6,4 km/h (2 Bft) 100,00 %
14.04.2021 03:07 1,1 C 86 % 1029,3 hPa 0,0 l/m 6,4 km/h (2 Bft) W 270 0,000 mm -1,0 C -0,9 C 9,7 km/h (2 Bft) 100,00 %
14.04.2021 03:06 1,1 C 86 % 1029,4 hPa 0,0 l/m 6,4 km/h (2 Bft) W-SW 247 0,000 mm -1,0 C -0,9 C 9,7 km/h (2 Bft) 100,00 %
14.04.2021 03:05 1,1 C 86 % 1029,3 hPa 0,0 l/m 4,8 km/h (1 Bft) W 270 0,000 mm -1,0 C -0,2 C 6,4 km/h (2 Bft) 100,00 %
14.04.2021 03:04 1,1 C 86 % 1029,3 hPa 0,0 l/m 4,8 km/h (1 Bft) W-SW 247 0,000 mm -1,0 C -0,2 C 6,4 km/h (2 Bft) 100,00 %
14.04.2021 03:03 1,1 C 86 % 1029,4 hPa 0,0 l/m 4,8 km/h (1 Bft) W-SW 247 0,000 mm -1,0 C -0,2 C 6,4 km/h (2 Bft) 100,00 %
14.04.2021 03:02 1,1 C 86 % 1029,5 hPa 0,0 l/m 3,2 km/h (1 Bft) W-SW 247 0,000 mm -1,0 C 1,1 C 6,4 km/h (2 Bft) 100,00 %
14.04.2021 03:01 1,1 C 86 % 1029,4 hPa 0,0 l/m 4,8 km/h (1 Bft) W-SW 247 0,000 mm -1,0 C -0,2 C 4,8 km/h (1 Bft) 100,00 %
14.04.2021 03:00 1,1 C 86 % 1029,4 hPa 0,0 l/m 4,8 km/h (1 Bft) W-SW 247 0,000 mm -1,0 C -0,2 C 6,4 km/h (2 Bft) 100,00 %
14.04.2021 02:59 1,1 C 86 % 1029,4 hPa 0,0 l/m 4,8 km/h (1 Bft) W-SW 247 0,000 mm -1,0 C -0,2 C 6,4 km/h (2 Bft) 100,00 %
14.04.2021 02:58 1,1 C 86 % 1029,4 hPa 0,0 l/m 4,8 km/h (1 Bft) W-SW 247 0,000 mm -1,0 C -0,2 C 6,4 km/h (2 Bft) 100,00 %
14.04.2021 02:57 1,1 C 86 % 1029,5 hPa 0,0 l/m 6,4 km/h (2 Bft) W-SW 247 0,000 mm -1,0 C -0,9 C 9,7 km/h (2 Bft) 100,00 %
14.04.2021 02:56 1,1 C 86 % 1029,4 hPa 0,0 l/m 6,4 km/h (2 Bft) W 270 0,000 mm -1,0 C -0,9 C 9,7 km/h (2 Bft) 100,00 %
14.04.2021 02:55 1,1 C 86 % 1029,5 hPa 0,0 l/m 6,4 km/h (2 Bft) W 270 0,000 mm -1,0 C -0,9 C 9,7 km/h (2 Bft) 100,00 %
14.04.2021 02:54 1,1 C 86 % 1029,4 hPa 0,0 l/m 6,4 km/h (2 Bft) W 270 0,000 mm -1,0 C -0,9 C 9,7 km/h (2 Bft) 100,00 %
14.04.2021 02:53 1,1 C 86 % 1029,4 hPa 0,0 l/m 4,8 km/h (1 Bft) W 270 0,000 mm -1,0 C -0,2 C 6,4 km/h (2 Bft) 100,00 %
14.04.2021 02:52 1,1 C 86 % 1029,4 hPa 0,0 l/m 4,8 km/h (1 Bft) W 270 0,000 mm -1,0 C -0,2 C 6,4 km/h (2 Bft) 100,00 %
14.04.2021 02:51 1,1 C 86 % 1029,5 hPa 0,0 l/m 4,8 km/h (1 Bft) W 270 0,000 mm -1,0 C -0,2 C 6,4 km/h (2 Bft) 100,00 %
14.04.2021 02:50 1,1 C 86 % 1029,5 hPa 0,0 l/m 4,8 km/h (1 Bft) W 270 0,000 mm -1,0 C -0,2 C 9,7 km/h (2 Bft) 100,00 %
14.04.2021 02:49 1,1 C 86 % 1029,5 hPa 0,0 l/m 3,2 km/h (1 Bft) W 270 0,000 mm -1,0 C 1,1 C 4,8 km/h (1 Bft) 100,00 %
14.04.2021 02:48 1,1 C 86 % 1029,4 hPa 0,0 l/m 1,6 km/h (1 Bft) W 270 0,000 mm -1,0 C 1,1 C 3,2 km/h (1 Bft) 100,00 %
14.04.2021 02:47 1,2 C 86 % 1029,5 hPa 0,0 l/m 1,6 km/h (1 Bft) W 270 0,000 mm -0,9 C 1,2 C 3,2 km/h (1 Bft) 100,00 %
14.04.2021 02:46 1,2 C 86 % 1029,5 hPa 0,0 l/m 1,6 km/h (1 Bft) W 270 0,000 mm -0,9 C 1,2 C 3,2 km/h (1 Bft) 100,00 %
14.04.2021 02:45 1,2 C 86 % 1029,5 hPa 0,0 l/m 3,2 km/h (1 Bft) W 270 0,000 mm -0,9 C 1,2 C 6,4 km/h (2 Bft) 100,00 %
14.04.2021 02:44 1,2 C 86 % 1029,5 hPa 0,0 l/m 3,2 km/h (1 Bft) W 270 0,000 mm -0,9 C 1,2 C 3,2 km/h (1 Bft) 100,00 %
14.04.2021 02:43 1,2 C 86 % 1029,5 hPa 0,0 l/m 3,2 km/h (1 Bft) W 270 0,000 mm -0,9 C 1,2 C 4,8 km/h (1 Bft) 100,00 %
14.04.2021 02:42 1,2 C 86 % 1029,5 hPa 0,0 l/m 3,2 km/h (1 Bft) W 270 0,000 mm -0,9 C 1,2 C 6,4 km/h (2 Bft) 100,00 %
14.04.2021 02:41 1,2 C 86 % 1029,5 hPa 0,0 l/m 3,2 km/h (1 Bft) W 270 0,000 mm -0,9 C 1,2 C 4,8 km/h (1 Bft) 100,00 %
14.04.2021 02:40 1,2 C 86 % 1029,5 hPa 0,0 l/m 3,2 km/h (1 Bft) W 270 0,000 mm -0,9 C 1,2 C 4,8 km/h (1 Bft) 100,00 %
14.04.2021 02:39 1,2 C 86 % 1029,5 hPa 0,0 l/m 1,6 km/h (1 Bft) W 270 0,000 mm -0,9 C 1,2 C 3,2 km/h (1 Bft) 100,00 %
14.04.2021 02:38 1,3 C 86 % 1029,4 hPa 0,0 l/m 3,2 km/h (1 Bft) W 270 0,000 mm -0,8 C 1,3 C 4,8 km/h (1 Bft) 100,00 %
14.04.2021 02:37 1,3 C 86 % 1029,4 hPa 0,0 l/m 3,2 km/h (1 Bft) W 270 0,000 mm -0,8 C 1,3 C 4,8 km/h (1 Bft) 100,00 %
14.04.2021 02:36 1,3 C 86 % 1029,4 hPa 0,0 l/m 3,2 km/h (1 Bft) W 270 0,000 mm -0,8 C 1,3 C 4,8 km/h (1 Bft) 100,00 %
14.04.2021 02:35 1,3 C 86 % 1029,4 hPa 0,0 l/m 3,2 km/h (1 Bft) W 270 0,000 mm -0,8 C 1,3 C 6,4 km/h (2 Bft) 100,00 %
14.04.2021 02:34 1,3 C 86 % 1029,4 hPa 0,0 l/m 3,2 km/h (1 Bft) W 270 0,000 mm -0,8 C 1,3 C 4,8 km/h (1 Bft) 100,00 %
14.04.2021 02:33 1,3 C 86 % 1029,3 hPa 0,0 l/m 4,8 km/h (1 Bft) W 270 0,000 mm -0,8 C -0,0 C 6,4 km/h (2 Bft) 100,00 %
14.04.2021 02:32 1,3 C 86 % 1029,4 hPa 0,0 l/m 6,4 km/h (2 Bft) W 270 0,000 mm -0,8 C -0,7 C 9,7 km/h (2 Bft) 100,00 %
14.04.2021 02:31 1,3 C 86 % 1029,4 hPa 0,0 l/m 4,8 km/h (1 Bft) W-SW 247 0,000 mm -0,8 C -0,0 C 6,4 km/h (2 Bft) 100,00 %
14.04.2021 02:30 1,3 C 86 % 1029,4 hPa 0,0 l/m 4,8 km/h (1 Bft) W-SW 247 0,000 mm -0,8 C -0,0 C 6,4 km/h (2 Bft) 100,00 %
14.04.2021 02:29 1,3 C 86 % 1029,5 hPa 0,0 l/m 3,2 km/h (1 Bft) W 270 0,000 mm -0,8 C 1,3 C 6,4 km/h (2 Bft) 100,00 %
14.04.2021 02:28 1,3 C 86 % 1029,5 hPa 0,0 l/m 3,2 km/h (1 Bft) W 270 0,000 mm -0,8 C 1,3 C 4,8 km/h (1 Bft) 100,00 %
14.04.2021 02:27 1,4 C 86 % 1029,4 hPa 0,0 l/m 3,2 km/h (1 Bft) W 270 0,000 mm -0,7 C 1,4 C 4,8 km/h (1 Bft) 100,00 %
14.04.2021 02:26 1,4 C 86 % 1029,4 hPa 0,0 l/m 3,2 km/h (1 Bft) W 270 0,000 mm -0,7 C 1,4 C 4,8 km/h (1 Bft) 100,00 %
14.04.2021 02:25 1,4 C 86 % 1029,4 hPa 0,0 l/m 3,2 km/h (1 Bft) W 270 0,000 mm -0,7 C 1,4 C 6,4 km/h (2 Bft) 100,00 %
14.04.2021 02:24 1,3 C 86 % 1029,4 hPa 0,0 l/m 4,8 km/h (1 Bft) W 270 0,000 mm -0,8 C -0,0 C 9,7 km/h (2 Bft) 100,00 %
14.04.2021 02:23 1,4 C 86 % 1029,5 hPa 0,0 l/m 6,4 km/h (2 Bft) W 270 0,000 mm -0,7 C -0,6 C 9,7 km/h (2 Bft) 100,00 %
14.04.2021 02:22 1,4 C 86 % 1029,4 hPa 0,0 l/m 3,2 km/h (1 Bft) W 270 0,000 mm -0,7 C 1,4 C 6,4 km/h (2 Bft) 100,00 %
14.04.2021 02:21 1,4 C 86 % 1029,5 hPa 0,0 l/m 4,8 km/h (1 Bft) W 270 0,000 mm -0,7 C 0,1 C 6,4 km/h (2 Bft) 100,00 %
14.04.2021 02:20 1,4 C 86 % 1029,4 hPa 0,0 l/m 3,2 km/h (1 Bft) W 270 0,000 mm -0,7 C 1,4 C 4,8 km/h (1 Bft) 100,00 %
14.04.2021 02:19 1,4 C 86 % 1029,5 hPa 0,0 l/m 4,8 km/h (1 Bft) W 270 0,000 mm -0,7 C 0,1 C 9,7 km/h (2 Bft) 100,00 %
14.04.2021 02:18 1,3 C 86 % 1029,5 hPa 0,0 l/m 8,0 km/h (2 Bft) W 270 0,000 mm -0,8 C -1,2 C 12,9 km/h (3 Bft) 100,00 %
14.04.2021 02:17 1,4 C 86 % 1029,4 hPa 0,0 l/m 4,8 km/h (1 Bft) W-SW 247 0,000 mm -0,7 C 0,1 C 6,4 km/h (2 Bft) 100,00 %
14.04.2021 02:16 1,4 C 86 % 1029,5 hPa 0,0 l/m 4,8 km/h (1 Bft) W-SW 247 0,000 mm -0,7 C 0,1 C 6,4 km/h (2 Bft) 100,00 %
14.04.2021 02:15 1,4 C 86 % 1029,4 hPa 0,0 l/m 4,8 km/h (1 Bft) W 270 0,000 mm -0,7 C 0,1 C 6,4 km/h (2 Bft) 100,00 %
14.04.2021 02:14 1,4 C 86 % 1029,5 hPa 0,0 l/m 4,8 km/h (1 Bft) W 270 0,000 mm -0,7 C 0,1 C 6,4 km/h (2 Bft) 100,00 %
14.04.2021 02:13 1,4 C 86 % 1029,5 hPa 0,0 l/m 6,4 km/h (2 Bft) W 270 0,000 mm -0,7 C -0,6 C 9,7 km/h (2 Bft) 100,00 %
14.04.2021 02:12 1,4 C 86 % 1029,5 hPa 0,0 l/m 8,0 km/h (2 Bft) W 270 0,000 mm -0,7 C -1,1 C 11,3 km/h (2 Bft) 100,00 %
14.04.2021 02:11 1,4 C 86 % 1029,5 hPa 0,0 l/m 4,8 km/h (1 Bft) W 270 0,000 mm -0,7 C 0,1 C 6,4 km/h (2 Bft) 100,00 %
14.04.2021 02:10 1,4 C 87 % 1029,5 hPa 0,0 l/m 4,8 km/h (1 Bft) W-SW 247 0,000 mm -0,5 C 0,1 C 6,4 km/h (2 Bft) 100,00 %
14.04.2021 02:09 1,4 C 87 % 1029,5 hPa 0,0 l/m 6,4 km/h (2 Bft) W 270 0,000 mm -0,5 C -0,6 C 9,7 km/h (2 Bft) 100,00 %
14.04.2021 02:08 1,4 C 87 % 1029,5 hPa 0,0 l/m 6,4 km/h (2 Bft) W 270 0,000 mm -0,5 C -0,6 C 6,4 km/h (2 Bft) 100,00 %
14.04.2021 02:07 1,4 C 87 % 1029,6 hPa 0,0 l/m 6,4 km/h (2 Bft) W 270 0,000 mm -0,5 C -0,6 C 9,7 km/h (2 Bft) 100,00 %
14.04.2021 02:06 1,4 C 87 % 1029,5 hPa 0,0 l/m 6,4 km/h (2 Bft) W-SW 247 0,000 mm -0,5 C -0,6 C 11,3 km/h (2 Bft) 100,00 %
14.04.2021 02:05 1,4 C 87 % 1029,5 hPa 0,0 l/m 4,8 km/h (1 Bft) W-SW 247 0,000 mm -0,5 C 0,1 C 6,4 km/h (2 Bft) 100,00 %
14.04.2021 02:04 1,4 C 87 % 1029,5 hPa 0,0 l/m 3,2 km/h (1 Bft) W-SW 247 0,000 mm -0,5 C 1,4 C 6,4 km/h (2 Bft) 100,00 %
14.04.2021 02:03 1,4 C 87 % 1029,5 hPa 0,0 l/m 4,8 km/h (1 Bft) W-SW 247 0,000 mm -0,5 C 0,1 C 6,4 km/h (2 Bft) 100,00 %
14.04.2021 02:02 1,4 C 87 % 1029,5 hPa 0,0 l/m 4,8 km/h (1 Bft) W-SW 247 0,000 mm -0,5 C 0,1 C 6,4 km/h (2 Bft) 100,00 %
14.04.2021 02:01 1,4 C 87 % 1029,6 hPa 0,0 l/m 4,8 km/h (1 Bft) W 270 0,000 mm -0,5 C 0,1 C 6,4 km/h (2 Bft) 100,00 %
14.04.2021 02:00 1,4 C 87 % 1029,5 hPa 0,0 l/m 6,4 km/h (2 Bft) W-SW 247 0,000 mm -0,5 C -0,6 C 8,0 km/h (2 Bft) 100,00 %
14.04.2021 01:59 1,4 C 86 % 1029,6 hPa 0,0 l/m 3,2 km/h (1 Bft) W 270 0,000 mm -0,7 C 1,4 C 4,8 km/h (1 Bft) 100,00 %
14.04.2021 01:58 1,5 C 86 % 1029,6 hPa 0,0 l/m 3,2 km/h (1 Bft) W 270 0,000 mm -0,6 C 1,5 C 6,4 km/h (2 Bft) 100,00 %
14.04.2021 01:57 1,5 C 87 % 1029,6 hPa 0,0 l/m 4,8 km/h (1 Bft) W 270 0,000 mm -0,4 C 0,2 C 6,4 km/h (2 Bft) 100,00 %
14.04.2021 01:56 1,5 C 87 % 1029,6 hPa 0,0 l/m 3,2 km/h (1 Bft) W 270 0,000 mm -0,4 C 1,5 C 6,4 km/h (2 Bft) 100,00 %
14.04.2021 01:55 1,5 C 87 % 1029,6 hPa 0,0 l/m 4,8 km/h (1 Bft) W 270 0,000 mm -0,4 C 0,2 C 9,7 km/h (2 Bft) 100,00 %
14.04.2021 01:54 1,5 C 87 % 1029,6 hPa 0,0 l/m 3,2 km/h (1 Bft) W 270 0,000 mm -0,4 C 1,5 C 6,4 km/h (2 Bft) 100,00 %
14.04.2021 01:53 1,5 C 87 % 1029,6 hPa 0,0 l/m 4,8 km/h (1 Bft) W-NW 292 0,000 mm -0,4 C 0,2 C 6,4 km/h (2 Bft) 100,00 %
14.04.2021 01:52 1,5 C 87 % 1029,7 hPa 0,0 l/m 3,2 km/h (1 Bft) W-NW 292 0,000 mm -0,4 C 1,5 C 6,4 km/h (2 Bft) 100,00 %
14.04.2021 01:51 1,5 C 87 % 1029,7 hPa 0,0 l/m 6,4 km/h (2 Bft) W-NW 292 0,000 mm -0,4 C -0,4 C 11,3 km/h (2 Bft) 100,00 %
14.04.2021 01:50 1,5 C 87 % 1029,7 hPa 0,0 l/m 6,4 km/h (2 Bft) W-SW 247 0,000 mm -0,4 C -0,4 C 11,3 km/h (2 Bft) 100,00 %
14.04.2021 01:49 1,5 C 87 % 1029,7 hPa 0,0 l/m 6,4 km/h (2 Bft) W 270 0,000 mm -0,4 C -0,4 C 9,7 km/h (2 Bft) 100,00 %
14.04.2021 01:48 1,5 C 87 % 1029,7 hPa 0,0 l/m 6,4 km/h (2 Bft) W 270 0,000 mm -0,4 C -0,4 C 9,7 km/h (2 Bft) 100,00 %
14.04.2021 01:47 1,5 C 87 % 1029,8 hPa 0,0 l/m 9,7 km/h (2 Bft) W 270 0,000 mm -0,4 C -1,4 C 11,3 km/h (2 Bft) 100,00 %
14.04.2021 01:46 1,5 C 87 % 1029,8 hPa 0,0 l/m 8,0 km/h (2 Bft) W 270 0,000 mm -0,4 C -1,0 C 9,7 km/h (2 Bft) 100,00 %
14.04.2021 01:45 1,5 C 87 % 1029,7 hPa 0,0 l/m 6,4 km/h (2 Bft) W 270 0,000 mm -0,4 C -0,4 C 9,7 km/h (2 Bft) 100,00 %
14.04.2021 01:44 1,5 C 87 % 1029,7 hPa 0,0 l/m 6,4 km/h (2 Bft) W 270 0,000 mm -0,4 C -0,4 C 9,7 km/h (2 Bft) 100,00 %
14.04.2021 01:43 1,5 C 87 % 1029,7 hPa 0,0 l/m 6,4 km/h (2 Bft) W 270 0,000 mm -0,4 C -0,4 C 9,7 km/h (2 Bft) 100,00 %
14.04.2021 01:42 1,6 C 87 % 1029,8 hPa 0,0 l/m 6,4 km/h (2 Bft) W 270 0,000 mm -0,3 C -0,3 C 11,3 km/h (2 Bft) 100,00 %
14.04.2021 01:41 1,6 C 87 % 1029,8 hPa 0,0 l/m 8,0 km/h (2 Bft) W 270 0,000 mm -0,3 C -0,9 C 11,3 km/h (2 Bft) 100,00 %
14.04.2021 01:40 1,6 C 87 % 1029,7 hPa 0,0 l/m 8,0 km/h (2 Bft) W 270 0,000 mm -0,3 C -0,9 C 12,9 km/h (3 Bft) 100,00 %
14.04.2021 01:39 1,6 C 87 % 1029,8 hPa 0,0 l/m 8,0 km/h (2 Bft) W 270 0,000 mm -0,3 C -0,9 C 12,9 km/h (3 Bft) 100,00 %
14.04.2021 01:38 1,5 C 87 % 1029,7 hPa 0,0 l/m 6,4 km/h (2 Bft) W 270 0,000 mm -0,4 C -0,4 C 11,3 km/h (2 Bft) 100,00 %
14.04.2021 01:37 1,6 C 87 % 1029,7 hPa 0,0 l/m 9,7 km/h (2 Bft) W 270 0,000 mm -0,3 C -1,3 C 12,9 km/h (3 Bft) 100,00 %
14.04.2021 01:36 1,6 C 87 % 1029,8 hPa 0,0 l/m 8,0 km/h (2 Bft) W-NW 292 0,000 mm -0,3 C -0,9 C 12,9 km/h (3 Bft) 100,00 %
14.04.2021 01:35 1,6 C 87 % 1029,8 hPa 0,0 l/m 8,0 km/h (2 Bft) W 270 0,000 mm -0,3 C -0,9 C 11,3 km/h (2 Bft) 100,00 %
14.04.2021 01:34 1,5 C 87 % 1029,9 hPa 0,0 l/m 9,7 km/h (2 Bft) W-NW 292 0,000 mm -0,4 C -1,4 C 12,9 km/h (3 Bft) 100,00 %
14.04.2021 01:33 1,5 C 87 % 1029,8 hPa 0,0 l/m 6,4 km/h (2 Bft) W 270 0,000 mm -0,4 C -0,4 C 9,7 km/h (2 Bft) 100,00 %
14.04.2021 01:32 1,5 C 87 % 1029,8 hPa 0,0 l/m 8,0 km/h (2 Bft) W 270 0,000 mm -0,4 C -1,0 C 9,7 km/h (2 Bft) 100,00 %
14.04.2021 01:31 1,6 C 87 % 1029,8 hPa 0,0 l/m 6,4 km/h (2 Bft) W 270 0,000 mm -0,3 C -0,3 C 9,7 km/h (2 Bft) 100,00 %
14.04.2021 01:30 1,5 C 87 % 1029,8 hPa 0,0 l/m 8,0 km/h (2 Bft) W-SW 247 0,000 mm -0,4 C -1,0 C 11,3 km/h (2 Bft) 100,00 %
14.04.2021 01:29 1,5 C 87 % 1029,8 hPa 0,0 l/m 6,4 km/h (2 Bft) W 270 0,000 mm -0,4 C -0,4 C 11,3 km/h (2 Bft) 100,00 %
14.04.2021 01:28 1,6 C 87 % 1029,8 hPa 0,0 l/m 1,6 km/h (1 Bft) W 270 0,000 mm -0,3 C 1,6 C 3,2 km/h (1 Bft) 100,00 %
14.04.2021 01:27 1,5 C 87 % 1029,9 hPa 0,0 l/m 3,2 km/h (1 Bft) W 270 0,000 mm -0,4 C 1,5 C 4,8 km/h (1 Bft) 100,00 %
14.04.2021 01:26 1,5 C 87 % 1029,8 hPa 0,0 l/m 3,2 km/h (1 Bft) W 270 0,000 mm -0,4 C 1,5 C 4,8 km/h (1 Bft) 100,00 %
14.04.2021 01:25 1,5 C 87 % 1029,8 hPa 0,0 l/m 4,8 km/h (1 Bft) W 270 0,000 mm -0,4 C 0,2 C 6,4 km/h (2 Bft) 100,00 %
14.04.2021 01:24 1,5 C 87 % 1029,9 hPa 0,0 l/m 3,2 km/h (1 Bft) W 270 0,000 mm -0,4 C 1,5 C 4,8 km/h (1 Bft) 100,00 %
14.04.2021 01:23 1,5 C 87 % 1029,9 hPa 0,0 l/m 3,2 km/h (1 Bft) W 270 0,000 mm -0,4 C 1,5 C 3,2 km/h (1 Bft) 100,00 %
14.04.2021 01:22 1,5 C 87 % 1029,9 hPa 0,0 l/m 1,6 km/h (1 Bft) W 270 0,000 mm -0,4 C 1,5 C 3,2 km/h (1 Bft) 100,00 %
14.04.2021 01:21 1,5 C 86 % 1029,9 hPa 0,0 l/m 1,6 km/h (1 Bft) W 270 0,000 mm -0,6 C 1,5 C 3,2 km/h (1 Bft) 100,00 %
14.04.2021 01:20 1,5 C 86 % 1029,9 hPa 0,0 l/m 1,6 km/h (1 Bft) W 270 0,000 mm -0,6 C 1,5 C 3,2 km/h (1 Bft) 100,00 %
14.04.2021 01:19 1,6 C 87 % 1029,9 hPa 0,0 l/m 1,6 km/h (1 Bft) W 270 0,000 mm -0,3 C 1,6 C 3,2 km/h (1 Bft) 100,00 %
14.04.2021 01:18 1,6 C 87 % 1029,9 hPa 0,0 l/m 3,2 km/h (1 Bft) W 270 0,000 mm -0,3 C 1,6 C 4,8 km/h (1 Bft) 100,00 %
14.04.2021 01:17 1,6 C 87 % 1029,9 hPa 0,0 l/m 3,2 km/h (1 Bft) W 270 0,000 mm -0,3 C 1,6 C 4,8 km/h (1 Bft) 100,00 %
14.04.2021 01:16 1,6 C 86 % 1029,9 hPa 0,0 l/m 3,2 km/h (1 Bft) W 270 0,000 mm -0,5 C 1,6 C 4,8 km/h (1 Bft) 100,00 %
14.04.2021 01:15 1,6 C 86 % 1029,9 hPa 0,0 l/m 1,6 km/h (1 Bft) W 270 0,000 mm -0,5 C 1,6 C 4,8 km/h (1 Bft) 100,00 %
14.04.2021 01:14 1,6 C 86 % 1030,0 hPa 0,0 l/m 3,2 km/h (1 Bft) W 270 0,000 mm -0,5 C 1,6 C 4,8 km/h (1 Bft) 100,00 %
14.04.2021 01:13 1,6 C 86 % 1030,0 hPa 0,0 l/m 4,8 km/h (1 Bft) W 270 0,000 mm -0,5 C 0,3 C 6,4 km/h (2 Bft) 100,00 %
14.04.2021 01:12 1,6 C 86 % 1030,1 hPa 0,0 l/m 4,8 km/h (1 Bft) W 270 0,000 mm -0,5 C 0,3 C 6,4 km/h (2 Bft) 100,00 %
14.04.2021 01:11 1,6 C 86 % 1030,0 hPa 0,0 l/m 6,4 km/h (2 Bft) W 270 0,000 mm -0,5 C -0,3 C 9,7 km/h (2 Bft) 100,00 %
14.04.2021 01:10 1,6 C 86 % 1030,0 hPa 0,0 l/m 4,8 km/h (1 Bft) W 270 0,000 mm -0,5 C 0,3 C 9,7 km/h (2 Bft) 100,00 %
14.04.2021 01:09 1,6 C 86 % 1030,0 hPa 0,0 l/m 3,2 km/h (1 Bft) W 270 0,000 mm -0,5 C 1,6 C 4,8 km/h (1 Bft) 100,00 %
14.04.2021 01:08 1,6 C 86 % 1030,0 hPa 0,0 l/m 4,8 km/h (1 Bft) W 270 0,000 mm -0,5 C 0,3 C 9,7 km/h (2 Bft) 100,00 %
14.04.2021 01:07 1,6 C 86 % 1030,0 hPa 0,0 l/m 8,0 km/h (2 Bft) W 270 0,000 mm -0,5 C -0,9 C 11,3 km/h (2 Bft) 100,00 %
14.04.2021 01:06 1,6 C 86 % 1030,0 hPa 0,0 l/m 4,8 km/h (1 Bft) W 270 0,000 mm -0,5 C 0,3 C 9,7 km/h (2 Bft) 100,00 %
14.04.2021 01:05 1,6 C 86 % 1030,0 hPa 0,0 l/m 4,8 km/h (1 Bft) W 270 0,000 mm -0,5 C 0,3 C 6,4 km/h (2 Bft) 100,00 %
14.04.2021 01:04 1,6 C 86 % 1030,1 hPa 0,0 l/m 4,8 km/h (1 Bft) W 270 0,000 mm -0,5 C 0,3 C 6,4 km/h (2 Bft) 100,00 %
14.04.2021 01:03 1,6 C 86 % 1030,1 hPa 0,0 l/m 4,8 km/h (1 Bft) W 270 0,000 mm -0,5 C 0,3 C 6,4 km/h (2 Bft) 100,00 %
14.04.2021 01:02 1,6 C 86 % 1030,0 hPa 0,0 l/m 4,8 km/h (1 Bft) W 270 0,000 mm -0,5 C 0,3 C 6,4 km/h (2 Bft) 100,00 %
14.04.2021 01:01 1,6 C 86 % 1030,0 hPa 0,0 l/m 4,8 km/h (1 Bft) W 270 0,000 mm -0,5 C 0,3 C 6,4 km/h (2 Bft) 100,00 %
14.04.2021 01:00 1,6 C 86 % 1030,1 hPa 0,0 l/m 4,8 km/h (1 Bft) W 270 0,000 mm -0,5 C 0,3 C 6,4 km/h (2 Bft) 100,00 %
14.04.2021 00:59 1,6 C 86 % 1030,0 hPa 0,0 l/m 4,8 km/h (1 Bft) W 270 0,000 mm -0,5 C 0,3 C 6,4 km/h (2 Bft) 100,00 %
14.04.2021 00:58 1,6 C 86 % 1030,0 hPa 0,0 l/m 3,2 km/h (1 Bft) W 270 0,000 mm -0,5 C 1,6 C 3,2 km/h (1 Bft) 100,00 %
14.04.2021 00:57 1,6 C 86 % 1030,0 hPa 0,0 l/m 4,8 km/h (1 Bft) W 270 0,000 mm -0,5 C 0,3 C 6,4 km/h (2 Bft) 100,00 %
14.04.2021 00:56 1,6 C 86 % 1030,0 hPa 0,0 l/m 4,8 km/h (1 Bft) W 270 0,000 mm -0,5 C 0,3 C 9,7 km/h (2 Bft) 100,00 %
14.04.2021 00:55 1,6 C 86 % 1030,0 hPa 0,0 l/m 4,8 km/h (1 Bft) W 270 0,000 mm -0,5 C 0,3 C 6,4 km/h (2 Bft) 100,00 %
14.04.2021 00:54 1,6 C 86 % 1030,0 hPa 0,0 l/m 4,8 km/h (1 Bft) W 270 0,000 mm -0,5 C 0,3 C 4,8 km/h (1 Bft) 100,00 %
14.04.2021 00:53 1,7 C 86 % 1030,0 hPa 0,0 l/m 4,8 km/h (1 Bft) W-SW 247 0,000 mm -0,4 C 0,4 C 6,4 km/h (2 Bft) 100,00 %
14.04.2021 00:52 1,6 C 86 % 1030,0 hPa 0,0 l/m 6,4 km/h (2 Bft) W 270 0,000 mm -0,5 C -0,3 C 9,7 km/h (2 Bft) 100,00 %
14.04.2021 00:51 1,6 C 86 % 1030,0 hPa 0,0 l/m 4,8 km/h (1 Bft) W 270 0,000 mm -0,5 C 0,3 C 9,7 km/h (2 Bft) 100,00 %
14.04.2021 00:50 1,7 C 86 % 1030,0 hPa 0,0 l/m 4,8 km/h (1 Bft) W 270 0,000 mm -0,4 C 0,4 C 6,4 km/h (2 Bft) 100,00 %
14.04.2021 00:49 1,7 C 86 % 1030,0 hPa 0,0 l/m 4,8 km/h (1 Bft) W 270 0,000 mm -0,4 C 0,4 C 6,4 km/h (2 Bft) 100,00 %
14.04.2021 00:48 1,7 C 86 % 1030,1 hPa 0,0 l/m 6,4 km/h (2 Bft) W 270 0,000 mm -0,4 C -0,2 C 9,7 km/h (2 Bft) 100,00 %
14.04.2021 00:47 1,7 C 86 % 1030,1 hPa 0,0 l/m 6,4 km/h (2 Bft) W 270 0,000 mm -0,4 C -0,2 C 9,7 km/h (2 Bft) 100,00 %
14.04.2021 00:46 1,7 C 86 % 1030,1 hPa 0,0 l/m 4,8 km/h (1 Bft) W 270 0,000 mm -0,4 C 0,4 C 6,4 km/h (2 Bft) 100,00 %
14.04.2021 00:45 1,6 C 86 % 1030,0 hPa 0,0 l/m 4,8 km/h (1 Bft) W 270 0,000 mm -0,5 C 0,3 C 6,4 km/h (2 Bft) 100,00 %
14.04.2021 00:44 1,7 C 86 % 1030,1 hPa 0,0 l/m 4,8 km/h (1 Bft) W 270 0,000 mm -0,4 C 0,4 C 6,4 km/h (2 Bft) 100,00 %
14.04.2021 00:43 1,7 C 86 % 1030,1 hPa 0,0 l/m 6,4 km/h (2 Bft) W 270 0,000 mm -0,4 C -0,2 C 9,7 km/h (2 Bft) 100,00 %
14.04.2021 00:42 1,7 C 86 % 1030,0 hPa 0,0 l/m 4,8 km/h (1 Bft) W 270 0,000 mm -0,4 C 0,4 C 6,4 km/h (2 Bft) 100,00 %
14.04.2021 00:41 1,7 C 86 % 1030,0 hPa 0,0 l/m 4,8 km/h (1 Bft) W 270 0,000 mm -0,4 C 0,4 C 9,7 km/h (2 Bft) 100,00 %
14.04.2021 00:40 1,7 C 86 % 1030,1 hPa 0,0 l/m 6,4 km/h (2 Bft) W 270 0,000 mm -0,4 C -0,2 C 11,3 km/h (2 Bft) 100,00 %
14.04.2021 00:39 1,7 C 86 % 1030,1 hPa 0,0 l/m 6,4 km/h (2 Bft) W 270 0,000 mm -0,4 C -0,2 C 9,7 km/h (2 Bft) 100,00 %
14.04.2021 00:38 1,7 C 86 % 1030,0 hPa 0,0 l/m 9,7 km/h (2 Bft) W 270 0,000 mm -0,4 C -1,2 C 12,9 km/h (3 Bft) 100,00 %
14.04.2021 00:37 1,7 C 86 % 1030,0 hPa 0,0 l/m 8,0 km/h (2 Bft) W 270 0,000 mm -0,4 C -0,7 C 9,7 km/h (2 Bft) 100,00 %
14.04.2021 00:36 1,7 C 86 % 1030,0 hPa 0,0 l/m 8,0 km/h (2 Bft) W 270 0,000 mm -0,4 C -0,7 C 11,3 km/h (2 Bft) 100,00 %
14.04.2021 00:35 1,7 C 86 % 1030,0 hPa 0,0 l/m 6,4 km/h (2 Bft) W 270 0,000 mm -0,4 C -0,2 C 9,7 km/h (2 Bft) 100,00 %
14.04.2021 00:34 1,7 C 86 % 1030,0 hPa 0,0 l/m 8,0 km/h (2 Bft) W-SW 247 0,000 mm -0,4 C -0,7 C 12,9 km/h (3 Bft) 100,00 %
14.04.2021 00:33 1,7 C 86 % 1030,1 hPa 0,0 l/m 11,3 km/h (2 Bft) W 270 0,000 mm -0,4 C -1,6 C 12,9 km/h (3 Bft) 100,00 %
14.04.2021 00:32 1,7 C 86 % 1030,0 hPa 0,0 l/m 9,7 km/h (2 Bft) W 270 0,000 mm -0,4 C -1,2 C 12,9 km/h (3 Bft) 100,00 %
14.04.2021 00:31 1,7 C 86 % 1030,0 hPa 0,0 l/m 9,7 km/h (2 Bft) W 270 0,000 mm -0,4 C -1,2 C 11,3 km/h (2 Bft) 100,00 %
14.04.2021 00:30 1,7 C 86 % 1030,0 hPa 0,0 l/m 11,3 km/h (2 Bft) W 270 0,000 mm -0,4 C -1,6 C 12,9 km/h (3 Bft) 100,00 %
14.04.2021 00:29 1,7 C 86 % 1030,0 hPa 0,0 l/m 11,3 km/h (2 Bft) W-SW 247 0,000 mm -0,4 C -1,6 C 14,5 km/h (3 Bft) 100,00 %
14.04.2021 00:28 1,7 C 86 % 1030,0 hPa 0,0 l/m 9,7 km/h (2 Bft) W 270 0,000 mm -0,4 C -1,2 C 12,9 km/h (3 Bft) 100,00 %
14.04.2021 00:27 1,8 C 86 % 1030,0 hPa 0,0 l/m 9,7 km/h (2 Bft) W 270 0,000 mm -0,3 C -1,1 C 11,3 km/h (2 Bft) 100,00 %
14.04.2021 00:26 1,7 C 86 % 1029,9 hPa 0,0 l/m 9,7 km/h (2 Bft) W 270 0,000 mm -0,4 C -1,2 C 12,9 km/h (3 Bft) 100,00 %
14.04.2021 00:25 1,7 C 86 % 1030,0 hPa 0,0 l/m 9,7 km/h (2 Bft) W 270 0,000 mm -0,4 C -1,2 C 14,5 km/h (3 Bft) 100,00 %
14.04.2021 00:24 1,8 C 86 % 1030,0 hPa 0,0 l/m 11,3 km/h (2 Bft) W 270 0,000 mm -0,3 C -1,5 C 12,9 km/h (3 Bft) 100,00 %
14.04.2021 00:23 1,7 C 86 % 1030,0 hPa 0,0 l/m 12,9 km/h (3 Bft) W 270 0,000 mm -0,4 C -1,9 C 14,5 km/h (3 Bft) 100,00 %
14.04.2021 00:22 1,8 C 86 % 1029,9 hPa 0,0 l/m 11,3 km/h (2 Bft) W 270 0,000 mm -0,3 C -1,5 C 12,9 km/h (3 Bft) 100,00 %
14.04.2021 00:21 1,8 C 86 % 1030,0 hPa 0,0 l/m 9,7 km/h (2 Bft) W 270 0,000 mm -0,3 C -1,1 C 12,9 km/h (3 Bft) 100,00 %
14.04.2021 00:20 1,7 C 86 % 1030,0 hPa 0,0 l/m 9,7 km/h (2 Bft) W 270 0,000 mm -0,4 C -1,2 C 12,9 km/h (3 Bft) 100,00 %
14.04.2021 00:19 1,8 C 86 % 1030,0 hPa 0,0 l/m 9,7 km/h (2 Bft) W-SW 247 0,000 mm -0,3 C -1,1 C 14,5 km/h (3 Bft) 100,00 %
14.04.2021 00:18 1,7 C 86 % 1030,0 hPa 0,0 l/m 12,9 km/h (3 Bft) W 270 0,000 mm -0,4 C -1,9 C 16,1 km/h (3 Bft) 100,00 %
14.04.2021 00:17 1,7 C 86 % 1029,9 hPa 0,0 l/m 11,3 km/h (2 Bft) W 270 0,000 mm -0,4 C -1,6 C 14,5 km/h (3 Bft) 100,00 %
14.04.2021 00:16 1,8 C 86 % 1030,0 hPa 0,0 l/m 9,7 km/h (2 Bft) W 270 0,000 mm -0,3 C -1,1 C 12,9 km/h (3 Bft) 100,00 %
14.04.2021 00:15 1,8 C 86 % 1030,0 hPa 0,0 l/m 8,0 km/h (2 Bft) W 270 0,000 mm -0,3 C -0,6 C 11,3 km/h (2 Bft) 100,00 %
14.04.2021 00:14 1,8 C 86 % 1029,9 hPa 0,0 l/m 9,7 km/h (2 Bft) W 270 0,000 mm -0,3 C -1,1 C 11,3 km/h (2 Bft) 100,00 %
14.04.2021 00:13 1,8 C 86 % 1029,9 hPa 0,0 l/m 11,3 km/h (2 Bft) W 270 0,000 mm -0,3 C -1,5 C 14,5 km/h (3 Bft) 100,00 %
14.04.2021 00:12 1,8 C 86 % 1029,9 hPa 0,0 l/m 11,3 km/h (2 Bft) W 270 0,000 mm -0,3 C -1,5 C 14,5 km/h (3 Bft) 100,00 %
14.04.2021 00:11 1,8 C 86 % 1030,0 hPa 0,0 l/m 12,9 km/h (3 Bft) W 270 0,000 mm -0,3 C -1,8 C 14,5 km/h (3 Bft) 100,00 %
14.04.2021 00:10 1,8 C 86 % 1030,0 hPa 0,0 l/m 8,0 km/h (2 Bft) W 270 0,000 mm -0,3 C -0,6 C 11,3 km/h (2 Bft) 100,00 %
14.04.2021 00:09 1,8 C 86 % 1030,0 hPa 0,0 l/m 8,0 km/h (2 Bft) W 270 0,000 mm -0,3 C -0,6 C 12,9 km/h (3 Bft) 100,00 %
14.04.2021 00:08 1,8 C 86 % 1030,0 hPa 0,0 l/m 11,3 km/h (2 Bft) W 270 0,000 mm -0,3 C -1,5 C 14,5 km/h (3 Bft) 100,00 %
14.04.2021 00:07 1,8 C 86 % 1030,0 hPa 0,0 l/m 8,0 km/h (2 Bft) W 270 0,000 mm -0,3 C -0,6 C 12,9 km/h (3 Bft) 100,00 %
14.04.2021 00:06 1,8 C 86 % 1030,0 hPa 0,0 l/m 9,7 km/h (2 Bft) W 270 0,000 mm -0,3 C -1,1 C 12,9 km/h (3 Bft) 100,00 %
14.04.2021 00:05 1,8 C 86 % 1030,0 hPa 0,0 l/m 11,3 km/h (2 Bft) W 270 0,000 mm -0,3 C -1,5 C 12,9 km/h (3 Bft) 100,00 %
14.04.2021 00:04 1,8 C 86 % 1030,0 hPa 0,0 l/m 11,3 km/h (2 Bft) W-SW 247 0,000 mm -0,3 C -1,5 C 16,1 km/h (3 Bft) 100,00 %
14.04.2021 00:03 1,8 C 86 % 1030,0 hPa 0,0 l/m 9,7 km/h (2 Bft) W 270 0,000 mm -0,3 C -1,1 C 12,9 km/h (3 Bft) 100,00 %
14.04.2021 00:02 1,8 C 86 % 1030,0 hPa 0,0 l/m 9,7 km/h (2 Bft) W 270 0,000 mm -0,3 C -1,1 C 12,9 km/h (3 Bft) 100,00 %
14.04.2021 00:01 1,8 C 86 % 1030,0 hPa 0,0 l/m 9,7 km/h (2 Bft) W 270 0,000 mm -0,3 C -1,1 C 12,9 km/h (3 Bft) 95,65 %
14.04.2021 00:00 1,8 C 86 % 1030,0 hPa 0,0 l/m 9,7 km/h (2 Bft) W 270 0,000 mm -0,3 C -1,1 C 12,9 km/h (3 Bft) 100,00 %
_ Min-Zeit 06:19 16:48 16:38 - 04:18 - - - 06:19 07:07 04:18 09:56
Minimum _ -0,2 C 55 % 1026,2 hPa - 0,0 km/h (0 Bft) - - - -2,3 C -2,6 C 0,0 km/h (0 Bft) 56,52 %
_ Max-Zeit 14:33 13:44 00:33 12:59 13:01 - - 00:00 14:32 14:32 13:00 00:00
Maximum _ 8,8 C 88 % 1030,1 hPa 0,2 l/m 17,7 km/h
N-NW (3 Bft)
- - 0,000 mm 2,7 C 8,7 C 25,7 km/h
N-NO (4 Bft)
100,00 %
Durchschnitt _ 3,0 C 78 % 1028,8 hPa #1,2 l/m 6,8 km/h (2 Bft) W - #0,000 mm -0,6 C 1,4 C 9,7 km/h (2 Bft) 99,91 %